<?xml version="1.0" encoding="UTF-8" standalone="yes"?>
<gpx
 xmlns="http://www.topografix.com/GPX/1/1"
 creator="OziExplorer Version 3956f - http://www.oziexplorer.com"
 version="1.1"
 xmlns:xsi="http://www.w3.org/2001/XMLSchema-instance"
 xsi:schemaLocation="http://www.topografix.com/GPX/1/1 http://www.topografix.com/GPX/1/1/gpx.xsd">
<metadata>
 <time>2021-05-07T10:53:03Z</time>
 <bounds minlat="31.784930" minlon="34.989940" maxlat="31.840810" maxlon="35.058540"/>
</metadata>
<trk>
 <name>EshtKanadaIlanMishl_40km</name>
 <desc>EshtKanadaIlanMishl_40km</desc>
<trkseg>
<trkpt lat="31.8115100" lon="35.0129100">
<ele>276.080017</ele>
<time>2021-05-07T13:53:03.574Z</time>
</trkpt>
<trkpt lat="31.8114700" lon="35.0131300">
<ele>275.950012</ele>
<time>2021-05-07T13:53:03.574Z</time>
</trkpt>
<trkpt lat="31.8114300" lon="35.0133100">
<ele>275.579987</ele>
<time>2021-05-07T13:53:03.574Z</time>
</trkpt>
<trkpt lat="31.8113700" lon="35.0134500">
<ele>275.829987</ele>
<time>2021-05-07T13:53:03.574Z</time>
</trkpt>
<trkpt lat="31.8113100" lon="35.0136000">
<ele>276.119995</ele>
<time>2021-05-07T13:53:03.574Z</time>
</trkpt>
<trkpt lat="31.8109900" lon="35.0141100">
<ele>276.550018</ele>
<time>2021-05-07T13:53:03.574Z</time>
</trkpt>
<trkpt lat="31.8105100" lon="35.0149600">
<ele>283.739990</ele>
<time>2021-05-07T13:53:03.574Z</time>
</trkpt>
<trkpt lat="31.8104600" lon="35.0152000">
<ele>285.289978</ele>
<time>2021-05-07T13:53:03.574Z</time>
</trkpt>
<trkpt lat="31.8103500" lon="35.0154900">
<ele>284.700012</ele>
<time>2021-05-07T13:53:03.574Z</time>
</trkpt>
<trkpt lat="31.8102800" lon="35.0157700">
<ele>283.239990</ele>
<time>2021-05-07T13:53:03.574Z</time>
</trkpt>
<trkpt lat="31.8101500" lon="35.0161100">
<ele>284.540009</ele>
<time>2021-05-07T13:53:03.574Z</time>
</trkpt>
<trkpt lat="31.8100100" lon="35.0165600">
<ele>284.130005</ele>
<time>2021-05-07T13:53:03.574Z</time>
</trkpt>
<trkpt lat="31.8098100" lon="35.0170900">
<ele>286.140015</ele>
<time>2021-05-07T13:53:03.574Z</time>
</trkpt>
<trkpt lat="31.8097500" lon="35.0173500">
<ele>286.509979</ele>
<time>2021-05-07T13:53:03.574Z</time>
</trkpt>
<trkpt lat="31.8097500" lon="35.0174600">
<ele>286.869995</ele>
<time>2021-05-07T13:53:03.574Z</time>
</trkpt>
<trkpt lat="31.8097900" lon="35.0175100">
<ele>287.029999</ele>
<time>2021-05-07T13:53:03.574Z</time>
</trkpt>
<trkpt lat="31.8098900" lon="35.0175200">
<ele>287.029999</ele>
<time>2021-05-07T13:53:03.574Z</time>
</trkpt>
<trkpt lat="31.8099600" lon="35.0176100">
<ele>287.059998</ele>
<time>2021-05-07T13:53:03.574Z</time>
</trkpt>
<trkpt lat="31.8099800" lon="35.0177200">
<ele>287.059998</ele>
<time>2021-05-07T13:53:03.574Z</time>
</trkpt>
<trkpt lat="31.8100100" lon="35.0178300">
<ele>287.279999</ele>
<time>2021-05-07T13:53:03.575Z</time>
</trkpt>
<trkpt lat="31.8101100" lon="35.0180000">
<ele>288.350006</ele>
<time>2021-05-07T13:53:03.575Z</time>
</trkpt>
<trkpt lat="31.8103300" lon="35.0182400">
<ele>291.079987</ele>
<time>2021-05-07T13:53:03.575Z</time>
</trkpt>
<trkpt lat="31.8106800" lon="35.0185600">
<ele>293.550018</ele>
<time>2021-05-07T13:53:03.575Z</time>
</trkpt>
<trkpt lat="31.8107000" lon="35.0185900">
<ele>293.480011</ele>
<time>2021-05-07T13:53:03.575Z</time>
</trkpt>
<trkpt lat="31.8107300" lon="35.0186200">
<ele>293.440002</ele>
<time>2021-05-07T13:53:03.575Z</time>
</trkpt>
<trkpt lat="31.8107600" lon="35.0187100">
<ele>294.140015</ele>
<time>2021-05-07T13:53:03.575Z</time>
</trkpt>
<trkpt lat="31.8107800" lon="35.0189500">
<ele>296.070007</ele>
<time>2021-05-07T13:53:03.575Z</time>
</trkpt>
<trkpt lat="31.8108300" lon="35.0191900">
<ele>297.339996</ele>
<time>2021-05-07T13:53:03.575Z</time>
</trkpt>
<trkpt lat="31.8108800" lon="35.0193000">
<ele>299.359985</ele>
<time>2021-05-07T13:53:03.575Z</time>
</trkpt>
<trkpt lat="31.8109200" lon="35.0194000">
<ele>300.610016</ele>
<time>2021-05-07T13:53:03.575Z</time>
</trkpt>
<trkpt lat="31.8109900" lon="35.0194700">
<ele>301.369995</ele>
<time>2021-05-07T13:53:03.575Z</time>
</trkpt>
<trkpt lat="31.8110600" lon="35.0195100">
<ele>301.940002</ele>
<time>2021-05-07T13:53:03.575Z</time>
</trkpt>
<trkpt lat="31.8111400" lon="35.0195700">
<ele>303.470001</ele>
<time>2021-05-07T13:53:03.575Z</time>
</trkpt>
<trkpt lat="31.8114000" lon="35.0197000">
<ele>307.429993</ele>
<time>2021-05-07T13:53:03.575Z</time>
</trkpt>
<trkpt lat="31.8115400" lon="35.0197800">
<ele>308.929993</ele>
<time>2021-05-07T13:53:03.575Z</time>
</trkpt>
<trkpt lat="31.8116100" lon="35.0197900">
<ele>309.679993</ele>
<time>2021-05-07T13:53:03.575Z</time>
</trkpt>
<trkpt lat="31.8117100" lon="35.0197900">
<ele>312.119995</ele>
<time>2021-05-07T13:53:03.575Z</time>
</trkpt>
<trkpt lat="31.8118000" lon="35.0197900">
<ele>316.019989</ele>
<time>2021-05-07T13:53:03.576Z</time>
</trkpt>
<trkpt lat="31.8118800" lon="35.0197500">
<ele>319.779999</ele>
<time>2021-05-07T13:53:03.576Z</time>
</trkpt>
<trkpt lat="31.8119200" lon="35.0196200">
<ele>320.579987</ele>
<time>2021-05-07T13:53:03.576Z</time>
</trkpt>
<trkpt lat="31.8121400" lon="35.0187500">
<ele>321.080017</ele>
<time>2021-05-07T13:53:03.576Z</time>
</trkpt>
<trkpt lat="31.8121800" lon="35.0187200">
<ele>322.000000</ele>
<time>2021-05-07T13:53:03.576Z</time>
</trkpt>
<trkpt lat="31.8122400" lon="35.0187100">
<ele>323.109985</ele>
<time>2021-05-07T13:53:03.576Z</time>
</trkpt>
<trkpt lat="31.8123200" lon="35.0186800">
<ele>323.529968</ele>
<time>2021-05-07T13:53:03.576Z</time>
</trkpt>
<trkpt lat="31.8126000" lon="35.0190300">
<ele>328.589996</ele>
<time>2021-05-07T13:53:03.576Z</time>
</trkpt>
<trkpt lat="31.8128600" lon="35.0191600">
<ele>329.750000</ele>
<time>2021-05-07T13:53:03.576Z</time>
</trkpt>
<trkpt lat="31.8133700" lon="35.0194600">
<ele>327.339996</ele>
<time>2021-05-07T13:53:03.576Z</time>
</trkpt>
<trkpt lat="31.8136800" lon="35.0195600">
<ele>327.890015</ele>
<time>2021-05-07T13:53:03.576Z</time>
</trkpt>
<trkpt lat="31.8139900" lon="35.0197000">
<ele>319.670013</ele>
<time>2021-05-07T13:53:03.576Z</time>
</trkpt>
<trkpt lat="31.8146100" lon="35.0195900">
<ele>316.100006</ele>
<time>2021-05-07T13:53:03.576Z</time>
</trkpt>
<trkpt lat="31.8148200" lon="35.0194200">
<ele>319.200012</ele>
<time>2021-05-07T13:53:03.576Z</time>
</trkpt>
<trkpt lat="31.8149800" lon="35.0193900">
<ele>318.439972</ele>
<time>2021-05-07T13:53:03.576Z</time>
</trkpt>
<trkpt lat="31.8155800" lon="35.0192900">
<ele>303.720001</ele>
<time>2021-05-07T13:53:03.576Z</time>
</trkpt>
<trkpt lat="31.8158200" lon="35.0191700">
<ele>302.290009</ele>
<time>2021-05-07T13:53:03.576Z</time>
</trkpt>
<trkpt lat="31.8160500" lon="35.0191100">
<ele>297.420013</ele>
<time>2021-05-07T13:53:03.576Z</time>
</trkpt>
<trkpt lat="31.8164900" lon="35.0191000">
<ele>294.890015</ele>
<time>2021-05-07T13:53:03.576Z</time>
</trkpt>
<trkpt lat="31.8167500" lon="35.0190700">
<ele>291.149994</ele>
<time>2021-05-07T13:53:03.576Z</time>
</trkpt>
<trkpt lat="31.8168800" lon="35.0189800">
<ele>289.600006</ele>
<time>2021-05-07T13:53:03.576Z</time>
</trkpt>
<trkpt lat="31.8173600" lon="35.0186200">
<ele>291.860016</ele>
<time>2021-05-07T13:53:03.576Z</time>
</trkpt>
<trkpt lat="31.8175400" lon="35.0185600">
<ele>291.529999</ele>
<time>2021-05-07T13:53:03.576Z</time>
</trkpt>
<trkpt lat="31.8178700" lon="35.0183000">
<ele>287.809998</ele>
<time>2021-05-07T13:53:03.577Z</time>
</trkpt>
<trkpt lat="31.8181800" lon="35.0182300">
<ele>285.570007</ele>
<time>2021-05-07T13:53:03.577Z</time>
</trkpt>
<trkpt lat="31.8189600" lon="35.0181700">
<ele>276.000000</ele>
<time>2021-05-07T13:53:03.577Z</time>
</trkpt>
<trkpt lat="31.8192500" lon="35.0179300">
<ele>272.459991</ele>
<time>2021-05-07T13:53:03.577Z</time>
</trkpt>
<trkpt lat="31.8196000" lon="35.0176100">
<ele>274.390015</ele>
<time>2021-05-07T13:53:03.577Z</time>
</trkpt>
<trkpt lat="31.8196100" lon="35.0176400">
<ele>274.390015</ele>
<time>2021-05-07T13:53:03.577Z</time>
</trkpt>
<trkpt lat="31.8196500" lon="35.0176600">
<ele>274.589996</ele>
<time>2021-05-07T13:53:03.577Z</time>
</trkpt>
<trkpt lat="31.8202900" lon="35.0180200">
<ele>260.170013</ele>
<time>2021-05-07T13:53:03.578Z</time>
</trkpt>
<trkpt lat="31.8203500" lon="35.0180800">
<ele>258.790009</ele>
<time>2021-05-07T13:53:03.578Z</time>
</trkpt>
<trkpt lat="31.8203800" lon="35.0181800">
<ele>258.610016</ele>
<time>2021-05-07T13:53:03.578Z</time>
</trkpt>
<trkpt lat="31.8204000" lon="35.0184100">
<ele>259.040009</ele>
<time>2021-05-07T13:53:03.578Z</time>
</trkpt>
<trkpt lat="31.8204200" lon="35.0187200">
<ele>259.669983</ele>
<time>2021-05-07T13:53:03.578Z</time>
</trkpt>
<trkpt lat="31.8204900" lon="35.0188300">
<ele>259.730011</ele>
<time>2021-05-07T13:53:03.578Z</time>
</trkpt>
<trkpt lat="31.8206700" lon="35.0190800">
<ele>260.250000</ele>
<time>2021-05-07T13:53:03.578Z</time>
</trkpt>
<trkpt lat="31.8208800" lon="35.0192600">
<ele>259.450012</ele>
<time>2021-05-07T13:53:03.578Z</time>
</trkpt>
<trkpt lat="31.8210000" lon="35.0194100">
<ele>260.930023</ele>
<time>2021-05-07T13:53:03.578Z</time>
</trkpt>
<trkpt lat="31.8213300" lon="35.0196700">
<ele>263.479980</ele>
<time>2021-05-07T13:53:03.578Z</time>
</trkpt>
<trkpt lat="31.8215800" lon="35.0197200">
<ele>263.990021</ele>
<time>2021-05-07T13:53:03.578Z</time>
</trkpt>
<trkpt lat="31.8217200" lon="35.0196700">
<ele>263.459991</ele>
<time>2021-05-07T13:53:03.578Z</time>
</trkpt>
<trkpt lat="31.8218700" lon="35.0191800">
<ele>263.660004</ele>
<time>2021-05-07T13:53:03.578Z</time>
</trkpt>
<trkpt lat="31.8219600" lon="35.0188300">
<ele>263.630005</ele>
<time>2021-05-07T13:53:03.578Z</time>
</trkpt>
<trkpt lat="31.8219400" lon="35.0190200">
<ele>263.959991</ele>
<time>2021-05-07T13:53:03.578Z</time>
</trkpt>
<trkpt lat="31.8220100" lon="35.0189600">
<ele>263.290009</ele>
<time>2021-05-07T13:53:03.578Z</time>
</trkpt>
<trkpt lat="31.8220400" lon="35.0190000">
<ele>262.970001</ele>
<time>2021-05-07T13:53:03.578Z</time>
</trkpt>
<trkpt lat="31.8219400" lon="35.0195800">
<ele>262.020020</ele>
<time>2021-05-07T13:53:03.578Z</time>
</trkpt>
<trkpt lat="31.8218500" lon="35.0197700">
<ele>262.910004</ele>
<time>2021-05-07T13:53:03.578Z</time>
</trkpt>
<trkpt lat="31.8216600" lon="35.0199900">
<ele>264.019989</ele>
<time>2021-05-07T13:53:03.578Z</time>
</trkpt>
<trkpt lat="31.8215000" lon="35.0200600">
<ele>264.639984</ele>
<time>2021-05-07T13:53:03.578Z</time>
</trkpt>
<trkpt lat="31.8210600" lon="35.0205200">
<ele>260.660004</ele>
<time>2021-05-07T13:53:03.578Z</time>
</trkpt>
<trkpt lat="31.8210200" lon="35.0205900">
<ele>260.630005</ele>
<time>2021-05-07T13:53:03.578Z</time>
</trkpt>
<trkpt lat="31.8209600" lon="35.0208000">
<ele>261.589996</ele>
<time>2021-05-07T13:53:03.578Z</time>
</trkpt>
<trkpt lat="31.8209200" lon="35.0208600">
<ele>261.410004</ele>
<time>2021-05-07T13:53:03.578Z</time>
</trkpt>
<trkpt lat="31.8208200" lon="35.0209700">
<ele>260.910004</ele>
<time>2021-05-07T13:53:03.578Z</time>
</trkpt>
<trkpt lat="31.8202300" lon="35.0215700">
<ele>261.550018</ele>
<time>2021-05-07T13:53:03.578Z</time>
</trkpt>
<trkpt lat="31.8195600" lon="35.0222800">
<ele>267.540009</ele>
<time>2021-05-07T13:53:03.578Z</time>
</trkpt>
<trkpt lat="31.8193000" lon="35.0225500">
<ele>269.589996</ele>
<time>2021-05-07T13:53:03.578Z</time>
</trkpt>
<trkpt lat="31.8191100" lon="35.0229800">
<ele>273.070007</ele>
<time>2021-05-07T13:53:03.578Z</time>
</trkpt>
<trkpt lat="31.8190200" lon="35.0233800">
<ele>273.859985</ele>
<time>2021-05-07T13:53:03.578Z</time>
</trkpt>
<trkpt lat="31.8190100" lon="35.0240100">
<ele>278.500000</ele>
<time>2021-05-07T13:53:03.578Z</time>
</trkpt>
<trkpt lat="31.8190100" lon="35.0244200">
<ele>283.059998</ele>
<time>2021-05-07T13:53:03.578Z</time>
</trkpt>
<trkpt lat="31.8189800" lon="35.0244300">
<ele>282.850006</ele>
<time>2021-05-07T13:53:03.578Z</time>
</trkpt>
<trkpt lat="31.8188500" lon="35.0244400">
<ele>281.260010</ele>
<time>2021-05-07T13:53:03.578Z</time>
</trkpt>
<trkpt lat="31.8187400" lon="35.0245100">
<ele>279.410004</ele>
<time>2021-05-07T13:53:03.578Z</time>
</trkpt>
<trkpt lat="31.8186000" lon="35.0246600">
<ele>276.119995</ele>
<time>2021-05-07T13:53:03.579Z</time>
</trkpt>
<trkpt lat="31.8185500" lon="35.0247300">
<ele>275.610016</ele>
<time>2021-05-07T13:53:03.579Z</time>
</trkpt>
<trkpt lat="31.8184600" lon="35.0248400">
<ele>275.529999</ele>
<time>2021-05-07T13:53:03.579Z</time>
</trkpt>
<trkpt lat="31.8183700" lon="35.0249800">
<ele>275.309998</ele>
<time>2021-05-07T13:53:03.579Z</time>
</trkpt>
<trkpt lat="31.8183100" lon="35.0250400">
<ele>275.489990</ele>
<time>2021-05-07T13:53:03.579Z</time>
</trkpt>
<trkpt lat="31.8181000" lon="35.0259700">
<ele>284.290009</ele>
<time>2021-05-07T13:53:03.579Z</time>
</trkpt>
<trkpt lat="31.8181100" lon="35.0260900">
<ele>285.070007</ele>
<time>2021-05-07T13:53:03.579Z</time>
</trkpt>
<trkpt lat="31.8181000" lon="35.0262200">
<ele>286.010010</ele>
<time>2021-05-07T13:53:03.579Z</time>
</trkpt>
<trkpt lat="31.8181200" lon="35.0264800">
<ele>288.510010</ele>
<time>2021-05-07T13:53:03.579Z</time>
</trkpt>
<trkpt lat="31.8181200" lon="35.0269600">
<ele>292.440002</ele>
<time>2021-05-07T13:53:03.579Z</time>
</trkpt>
<trkpt lat="31.8180700" lon="35.0272100">
<ele>291.510010</ele>
<time>2021-05-07T13:53:03.579Z</time>
</trkpt>
<trkpt lat="31.8180000" lon="35.0274800">
<ele>291.300018</ele>
<time>2021-05-07T13:53:03.579Z</time>
</trkpt>
<trkpt lat="31.8175000" lon="35.0284000">
<ele>291.240021</ele>
<time>2021-05-07T13:53:03.579Z</time>
</trkpt>
<trkpt lat="31.8174300" lon="35.0288000">
<ele>294.269989</ele>
<time>2021-05-07T13:53:03.579Z</time>
</trkpt>
<trkpt lat="31.8173100" lon="35.0293000">
<ele>294.720001</ele>
<time>2021-05-07T13:53:03.579Z</time>
</trkpt>
<trkpt lat="31.8172900" lon="35.0296200">
<ele>295.339996</ele>
<time>2021-05-07T13:53:03.579Z</time>
</trkpt>
<trkpt lat="31.8172900" lon="35.0297400">
<ele>296.010010</ele>
<time>2021-05-07T13:53:03.579Z</time>
</trkpt>
<trkpt lat="31.8173200" lon="35.0300300">
<ele>301.510010</ele>
<time>2021-05-07T13:53:03.579Z</time>
</trkpt>
<trkpt lat="31.8174700" lon="35.0307100">
<ele>307.809998</ele>
<time>2021-05-07T13:53:03.579Z</time>
</trkpt>
<trkpt lat="31.8175100" lon="35.0307600">
<ele>308.259979</ele>
<time>2021-05-07T13:53:03.579Z</time>
</trkpt>
<trkpt lat="31.8175700" lon="35.0308900">
<ele>308.750000</ele>
<time>2021-05-07T13:53:03.579Z</time>
</trkpt>
<trkpt lat="31.8176000" lon="35.0309400">
<ele>308.589996</ele>
<time>2021-05-07T13:53:03.579Z</time>
</trkpt>
<trkpt lat="31.8176800" lon="35.0310700">
<ele>307.679993</ele>
<time>2021-05-07T13:53:03.579Z</time>
</trkpt>
<trkpt lat="31.8177500" lon="35.0311700">
<ele>306.750000</ele>
<time>2021-05-07T13:53:03.580Z</time>
</trkpt>
<trkpt lat="31.8177700" lon="35.0312300">
<ele>305.839996</ele>
<time>2021-05-07T13:53:03.580Z</time>
</trkpt>
<trkpt lat="31.8178200" lon="35.0313800">
<ele>304.850006</ele>
<time>2021-05-07T13:53:03.580Z</time>
</trkpt>
<trkpt lat="31.8179000" lon="35.0316400">
<ele>306.759979</ele>
<time>2021-05-07T13:53:03.580Z</time>
</trkpt>
<trkpt lat="31.8179300" lon="35.0317000">
<ele>307.209991</ele>
<time>2021-05-07T13:53:03.580Z</time>
</trkpt>
<trkpt lat="31.8180900" lon="35.0321000">
<ele>309.399994</ele>
<time>2021-05-07T13:53:03.580Z</time>
</trkpt>
<trkpt lat="31.8181300" lon="35.0323100">
<ele>310.110016</ele>
<time>2021-05-07T13:53:03.580Z</time>
</trkpt>
<trkpt lat="31.8181500" lon="35.0325300">
<ele>309.519989</ele>
<time>2021-05-07T13:53:03.580Z</time>
</trkpt>
<trkpt lat="31.8181700" lon="35.0325800">
<ele>310.149994</ele>
<time>2021-05-07T13:53:03.580Z</time>
</trkpt>
<trkpt lat="31.8182100" lon="35.0328500">
<ele>311.830017</ele>
<time>2021-05-07T13:53:03.580Z</time>
</trkpt>
<trkpt lat="31.8182500" lon="35.0329600">
<ele>312.839996</ele>
<time>2021-05-07T13:53:03.580Z</time>
</trkpt>
<trkpt lat="31.8183400" lon="35.0331000">
<ele>312.789978</ele>
<time>2021-05-07T13:53:03.580Z</time>
</trkpt>
<trkpt lat="31.8183800" lon="35.0331500">
<ele>313.049988</ele>
<time>2021-05-07T13:53:03.580Z</time>
</trkpt>
<trkpt lat="31.8185500" lon="35.0334400">
<ele>313.080017</ele>
<time>2021-05-07T13:53:03.580Z</time>
</trkpt>
<trkpt lat="31.8186000" lon="35.0335600">
<ele>312.440002</ele>
<time>2021-05-07T13:53:03.580Z</time>
</trkpt>
<trkpt lat="31.8186200" lon="35.0336400">
<ele>312.399994</ele>
<time>2021-05-07T13:53:03.580Z</time>
</trkpt>
<trkpt lat="31.8186600" lon="35.0338800">
<ele>313.609985</ele>
<time>2021-05-07T13:53:03.580Z</time>
</trkpt>
<trkpt lat="31.8186800" lon="35.0340600">
<ele>315.470001</ele>
<time>2021-05-07T13:53:03.580Z</time>
</trkpt>
<trkpt lat="31.8187000" lon="35.0341900">
<ele>316.769989</ele>
<time>2021-05-07T13:53:03.580Z</time>
</trkpt>
<trkpt lat="31.8187800" lon="35.0346200">
<ele>320.230011</ele>
<time>2021-05-07T13:53:03.580Z</time>
</trkpt>
<trkpt lat="31.8187800" lon="35.0347000">
<ele>320.700012</ele>
<time>2021-05-07T13:53:03.580Z</time>
</trkpt>
<trkpt lat="31.8187800" lon="35.0348300">
<ele>320.980011</ele>
<time>2021-05-07T13:53:03.580Z</time>
</trkpt>
<trkpt lat="31.8187600" lon="35.0349200">
<ele>320.940002</ele>
<time>2021-05-07T13:53:03.581Z</time>
</trkpt>
<trkpt lat="31.8186400" lon="35.0351000">
<ele>320.360016</ele>
<time>2021-05-07T13:53:03.581Z</time>
</trkpt>
<trkpt lat="31.8185000" lon="35.0354900">
<ele>323.679993</ele>
<time>2021-05-07T13:53:03.581Z</time>
</trkpt>
<trkpt lat="31.8184600" lon="35.0362200">
<ele>321.579987</ele>
<time>2021-05-07T13:53:03.581Z</time>
</trkpt>
<trkpt lat="31.8182100" lon="35.0369700">
<ele>325.480011</ele>
<time>2021-05-07T13:53:03.581Z</time>
</trkpt>
<trkpt lat="31.8181800" lon="35.0372100">
<ele>330.399994</ele>
<time>2021-05-07T13:53:03.581Z</time>
</trkpt>
<trkpt lat="31.8180800" lon="35.0373600">
<ele>325.540009</ele>
<time>2021-05-07T13:53:03.581Z</time>
</trkpt>
<trkpt lat="31.8180300" lon="35.0375300">
<ele>321.300018</ele>
<time>2021-05-07T13:53:03.581Z</time>
</trkpt>
<trkpt lat="31.8179000" lon="35.0377100">
<ele>321.119995</ele>
<time>2021-05-07T13:53:03.581Z</time>
</trkpt>
<trkpt lat="31.8177600" lon="35.0378200">
<ele>319.299988</ele>
<time>2021-05-07T13:53:03.582Z</time>
</trkpt>
<trkpt lat="31.8174800" lon="35.0380300">
<ele>323.119995</ele>
<time>2021-05-07T13:53:03.582Z</time>
</trkpt>
<trkpt lat="31.8173000" lon="35.0382400">
<ele>328.860016</ele>
<time>2021-05-07T13:53:03.582Z</time>
</trkpt>
<trkpt lat="31.8171200" lon="35.0385700">
<ele>334.579987</ele>
<time>2021-05-07T13:53:03.582Z</time>
</trkpt>
<trkpt lat="31.8169600" lon="35.0389400">
<ele>334.279999</ele>
<time>2021-05-07T13:53:03.582Z</time>
</trkpt>
<trkpt lat="31.8168700" lon="35.0391900">
<ele>336.869995</ele>
<time>2021-05-07T13:53:03.582Z</time>
</trkpt>
<trkpt lat="31.8162000" lon="35.0416600">
<ele>361.049988</ele>
<time>2021-05-07T13:53:03.582Z</time>
</trkpt>
<trkpt lat="31.8161200" lon="35.0418900">
<ele>361.459991</ele>
<time>2021-05-07T13:53:03.582Z</time>
</trkpt>
<trkpt lat="31.8159500" lon="35.0424900">
<ele>368.959991</ele>
<time>2021-05-07T13:53:03.582Z</time>
</trkpt>
<trkpt lat="31.8158900" lon="35.0426100">
<ele>369.209991</ele>
<time>2021-05-07T13:53:03.582Z</time>
</trkpt>
<trkpt lat="31.8156100" lon="35.0430700">
<ele>368.959991</ele>
<time>2021-05-07T13:53:03.582Z</time>
</trkpt>
<trkpt lat="31.8155700" lon="35.0432000">
<ele>367.820007</ele>
<time>2021-05-07T13:53:03.582Z</time>
</trkpt>
<trkpt lat="31.8155700" lon="35.0433200">
<ele>367.459991</ele>
<time>2021-05-07T13:53:03.582Z</time>
</trkpt>
<trkpt lat="31.8155700" lon="35.0435100">
<ele>368.149994</ele>
<time>2021-05-07T13:53:03.582Z</time>
</trkpt>
<trkpt lat="31.8155900" lon="35.0437300">
<ele>369.849976</ele>
<time>2021-05-07T13:53:03.582Z</time>
</trkpt>
<trkpt lat="31.8156400" lon="35.0440800">
<ele>372.440002</ele>
<time>2021-05-07T13:53:03.582Z</time>
</trkpt>
<trkpt lat="31.8156600" lon="35.0442000">
<ele>373.089996</ele>
<time>2021-05-07T13:53:03.582Z</time>
</trkpt>
<trkpt lat="31.8156900" lon="35.0447700">
<ele>374.019989</ele>
<time>2021-05-07T13:53:03.582Z</time>
</trkpt>
<trkpt lat="31.8157400" lon="35.0452700">
<ele>376.650024</ele>
<time>2021-05-07T13:53:03.582Z</time>
</trkpt>
<trkpt lat="31.8157400" lon="35.0454800">
<ele>377.139984</ele>
<time>2021-05-07T13:53:03.582Z</time>
</trkpt>
<trkpt lat="31.8157200" lon="35.0457200">
<ele>378.490021</ele>
<time>2021-05-07T13:53:03.583Z</time>
</trkpt>
<trkpt lat="31.8157000" lon="35.0457900">
<ele>378.730011</ele>
<time>2021-05-07T13:53:03.583Z</time>
</trkpt>
<trkpt lat="31.8156800" lon="35.0458300">
<ele>378.660004</ele>
<time>2021-05-07T13:53:03.583Z</time>
</trkpt>
<trkpt lat="31.8154800" lon="35.0465600">
<ele>380.039978</ele>
<time>2021-05-07T13:53:03.583Z</time>
</trkpt>
<trkpt lat="31.8153300" lon="35.0468300">
<ele>378.339996</ele>
<time>2021-05-07T13:53:03.583Z</time>
</trkpt>
<trkpt lat="31.8150500" lon="35.0470500">
<ele>378.779999</ele>
<time>2021-05-07T13:53:03.583Z</time>
</trkpt>
<trkpt lat="31.8147800" lon="35.0472700">
<ele>384.759979</ele>
<time>2021-05-07T13:53:03.583Z</time>
</trkpt>
<trkpt lat="31.8136700" lon="35.0485000">
<ele>388.089996</ele>
<time>2021-05-07T13:53:03.583Z</time>
</trkpt>
<trkpt lat="31.8135000" lon="35.0486400">
<ele>387.449982</ele>
<time>2021-05-07T13:53:03.583Z</time>
</trkpt>
<trkpt lat="31.8133000" lon="35.0488400">
<ele>386.719971</ele>
<time>2021-05-07T13:53:03.583Z</time>
</trkpt>
<trkpt lat="31.8132000" lon="35.0489800">
<ele>386.869995</ele>
<time>2021-05-07T13:53:03.583Z</time>
</trkpt>
<trkpt lat="31.8128100" lon="35.0497500">
<ele>388.380005</ele>
<time>2021-05-07T13:53:03.583Z</time>
</trkpt>
<trkpt lat="31.8126400" lon="35.0501800">
<ele>397.750000</ele>
<time>2021-05-07T13:53:03.583Z</time>
</trkpt>
<trkpt lat="31.8126200" lon="35.0502400">
<ele>398.789978</ele>
<time>2021-05-07T13:53:03.583Z</time>
</trkpt>
<trkpt lat="31.8125700" lon="35.0506900">
<ele>408.509979</ele>
<time>2021-05-07T13:53:03.583Z</time>
</trkpt>
<trkpt lat="31.8125600" lon="35.0509900">
<ele>409.309998</ele>
<time>2021-05-07T13:53:03.583Z</time>
</trkpt>
<trkpt lat="31.8125400" lon="35.0511400">
<ele>409.559998</ele>
<time>2021-05-07T13:53:03.583Z</time>
</trkpt>
<trkpt lat="31.8125200" lon="35.0513000">
<ele>409.449982</ele>
<time>2021-05-07T13:53:03.583Z</time>
</trkpt>
<trkpt lat="31.8125000" lon="35.0515200">
<ele>409.940002</ele>
<time>2021-05-07T13:53:03.583Z</time>
</trkpt>
<trkpt lat="31.8125000" lon="35.0521000">
<ele>417.239990</ele>
<time>2021-05-07T13:53:03.583Z</time>
</trkpt>
<trkpt lat="31.8125200" lon="35.0528200">
<ele>424.429993</ele>
<time>2021-05-07T13:53:03.583Z</time>
</trkpt>
<trkpt lat="31.8125300" lon="35.0529000">
<ele>424.819977</ele>
<time>2021-05-07T13:53:03.584Z</time>
</trkpt>
<trkpt lat="31.8125400" lon="35.0533100">
<ele>425.559998</ele>
<time>2021-05-07T13:53:03.584Z</time>
</trkpt>
<trkpt lat="31.8126000" lon="35.0535800">
<ele>426.369995</ele>
<time>2021-05-07T13:53:03.584Z</time>
</trkpt>
<trkpt lat="31.8126700" lon="35.0536900">
<ele>427.460022</ele>
<time>2021-05-07T13:53:03.584Z</time>
</trkpt>
<trkpt lat="31.8127700" lon="35.0537600">
<ele>428.580017</ele>
<time>2021-05-07T13:53:03.584Z</time>
</trkpt>
<trkpt lat="31.8129300" lon="35.0538600">
<ele>434.089996</ele>
<time>2021-05-07T13:53:03.584Z</time>
</trkpt>
<trkpt lat="31.8131200" lon="35.0540200">
<ele>439.969971</ele>
<time>2021-05-07T13:53:03.584Z</time>
</trkpt>
<trkpt lat="31.8133300" lon="35.0544800">
<ele>435.730011</ele>
<time>2021-05-07T13:53:03.584Z</time>
</trkpt>
<trkpt lat="31.8134900" lon="35.0547500">
<ele>440.449982</ele>
<time>2021-05-07T13:53:03.584Z</time>
</trkpt>
<trkpt lat="31.8136800" lon="35.0551200">
<ele>438.829987</ele>
<time>2021-05-07T13:53:03.584Z</time>
</trkpt>
<trkpt lat="31.8138900" lon="35.0554700">
<ele>441.009979</ele>
<time>2021-05-07T13:53:03.584Z</time>
</trkpt>
<trkpt lat="31.8138900" lon="35.0555400">
<ele>440.250000</ele>
<time>2021-05-07T13:53:03.584Z</time>
</trkpt>
<trkpt lat="31.8138800" lon="35.0556200">
<ele>439.859985</ele>
<time>2021-05-07T13:53:03.584Z</time>
</trkpt>
<trkpt lat="31.8138100" lon="35.0558100">
<ele>439.360016</ele>
<time>2021-05-07T13:53:03.584Z</time>
</trkpt>
<trkpt lat="31.8137400" lon="35.0571200">
<ele>447.889984</ele>
<time>2021-05-07T13:53:03.584Z</time>
</trkpt>
<trkpt lat="31.8137500" lon="35.0576800">
<ele>448.850006</ele>
<time>2021-05-07T13:53:03.584Z</time>
</trkpt>
<trkpt lat="31.8137600" lon="35.0583600">
<ele>451.390015</ele>
<time>2021-05-07T13:53:03.584Z</time>
</trkpt>
<trkpt lat="31.8137100" lon="35.0583200">
<ele>450.059998</ele>
<time>2021-05-07T13:53:03.584Z</time>
</trkpt>
<trkpt lat="31.8136700" lon="35.0581500">
<ele>448.089996</ele>
<time>2021-05-07T13:53:03.584Z</time>
</trkpt>
<trkpt lat="31.8136200" lon="35.0579900">
<ele>445.989990</ele>
<time>2021-05-07T13:53:03.584Z</time>
</trkpt>
<trkpt lat="31.8135500" lon="35.0578100">
<ele>446.579987</ele>
<time>2021-05-07T13:53:03.584Z</time>
</trkpt>
<trkpt lat="31.8135200" lon="35.0577800">
<ele>447.299988</ele>
<time>2021-05-07T13:53:03.584Z</time>
</trkpt>
<trkpt lat="31.8134400" lon="35.0577500">
<ele>449.410004</ele>
<time>2021-05-07T13:53:03.584Z</time>
</trkpt>
<trkpt lat="31.8131500" lon="35.0577500">
<ele>457.309998</ele>
<time>2021-05-07T13:53:03.584Z</time>
</trkpt>
<trkpt lat="31.8130700" lon="35.0577100">
<ele>459.600006</ele>
<time>2021-05-07T13:53:03.585Z</time>
</trkpt>
<trkpt lat="31.8130400" lon="35.0576600">
<ele>460.340027</ele>
<time>2021-05-07T13:53:03.585Z</time>
</trkpt>
<trkpt lat="31.8130100" lon="35.0575500">
<ele>460.880005</ele>
<time>2021-05-07T13:53:03.585Z</time>
</trkpt>
<trkpt lat="31.8130000" lon="35.0571800">
<ele>462.010010</ele>
<time>2021-05-07T13:53:03.585Z</time>
</trkpt>
<trkpt lat="31.8129700" lon="35.0570400">
<ele>463.290009</ele>
<time>2021-05-07T13:53:03.585Z</time>
</trkpt>
<trkpt lat="31.8128900" lon="35.0567800">
<ele>466.399994</ele>
<time>2021-05-07T13:53:03.585Z</time>
</trkpt>
<trkpt lat="31.8126200" lon="35.0561700">
<ele>474.619995</ele>
<time>2021-05-07T13:53:03.585Z</time>
</trkpt>
<trkpt lat="31.8124800" lon="35.0559300">
<ele>477.359985</ele>
<time>2021-05-07T13:53:03.585Z</time>
</trkpt>
<trkpt lat="31.8124000" lon="35.0557200">
<ele>478.250000</ele>
<time>2021-05-07T13:53:03.585Z</time>
</trkpt>
<trkpt lat="31.8123600" lon="35.0556700">
<ele>478.639984</ele>
<time>2021-05-07T13:53:03.585Z</time>
</trkpt>
<trkpt lat="31.8123000" lon="35.0556600">
<ele>479.529999</ele>
<time>2021-05-07T13:53:03.585Z</time>
</trkpt>
<trkpt lat="31.8121900" lon="35.0556600">
<ele>480.169983</ele>
<time>2021-05-07T13:53:03.585Z</time>
</trkpt>
<trkpt lat="31.8121300" lon="35.0556700">
<ele>479.160004</ele>
<time>2021-05-07T13:53:03.585Z</time>
</trkpt>
<trkpt lat="31.8120800" lon="35.0557100">
<ele>478.549988</ele>
<time>2021-05-07T13:53:03.585Z</time>
</trkpt>
<trkpt lat="31.8119700" lon="35.0559500">
<ele>478.600006</ele>
<time>2021-05-07T13:53:03.585Z</time>
</trkpt>
<trkpt lat="31.8119200" lon="35.0560500">
<ele>479.269989</ele>
<time>2021-05-07T13:53:03.585Z</time>
</trkpt>
<trkpt lat="31.8118900" lon="35.0561100">
<ele>479.789978</ele>
<time>2021-05-07T13:53:03.585Z</time>
</trkpt>
<trkpt lat="31.8118700" lon="35.0561800">
<ele>480.910004</ele>
<time>2021-05-07T13:53:03.585Z</time>
</trkpt>
<trkpt lat="31.8118500" lon="35.0562700">
<ele>482.329987</ele>
<time>2021-05-07T13:53:03.585Z</time>
</trkpt>
<trkpt lat="31.8118300" lon="35.0563800">
<ele>484.029999</ele>
<time>2021-05-07T13:53:03.585Z</time>
</trkpt>
<trkpt lat="31.8118200" lon="35.0564800">
<ele>485.739990</ele>
<time>2021-05-07T13:53:03.585Z</time>
</trkpt>
<trkpt lat="31.8118200" lon="35.0566200">
<ele>488.259979</ele>
<time>2021-05-07T13:53:03.585Z</time>
</trkpt>
<trkpt lat="31.8118300" lon="35.0567500">
<ele>490.080017</ele>
<time>2021-05-07T13:53:03.586Z</time>
</trkpt>
<trkpt lat="31.8118600" lon="35.0568600">
<ele>491.479980</ele>
<time>2021-05-07T13:53:03.586Z</time>
</trkpt>
<trkpt lat="31.8119100" lon="35.0569600">
<ele>492.809998</ele>
<time>2021-05-07T13:53:03.586Z</time>
</trkpt>
<trkpt lat="31.8120300" lon="35.0571100">
<ele>491.810028</ele>
<time>2021-05-07T13:53:03.586Z</time>
</trkpt>
<trkpt lat="31.8120400" lon="35.0572700">
<ele>491.469971</ele>
<time>2021-05-07T13:53:03.586Z</time>
</trkpt>
<trkpt lat="31.8120500" lon="35.0574500">
<ele>490.720001</ele>
<time>2021-05-07T13:53:03.586Z</time>
</trkpt>
<trkpt lat="31.8120500" lon="35.0576600">
<ele>491.369995</ele>
<time>2021-05-07T13:53:03.586Z</time>
</trkpt>
<trkpt lat="31.8120500" lon="35.0578900">
<ele>492.360016</ele>
<time>2021-05-07T13:53:03.586Z</time>
</trkpt>
<trkpt lat="31.8120600" lon="35.0581400">
<ele>493.730011</ele>
<time>2021-05-07T13:53:03.586Z</time>
</trkpt>
<trkpt lat="31.8120500" lon="35.0582400">
<ele>495.140015</ele>
<time>2021-05-07T13:53:03.586Z</time>
</trkpt>
<trkpt lat="31.8120500" lon="35.0583400">
<ele>496.250000</ele>
<time>2021-05-07T13:53:03.586Z</time>
</trkpt>
<trkpt lat="31.8120600" lon="35.0585300">
<ele>496.579987</ele>
<time>2021-05-07T13:53:03.586Z</time>
</trkpt>
<trkpt lat="31.8120200" lon="35.0585300">
<ele>496.970001</ele>
<time>2021-05-07T13:53:03.586Z</time>
</trkpt>
<trkpt lat="31.8119500" lon="35.0585300">
<ele>497.649994</ele>
<time>2021-05-07T13:53:03.586Z</time>
</trkpt>
<trkpt lat="31.8117900" lon="35.0585400">
<ele>498.160004</ele>
<time>2021-05-07T13:53:03.586Z</time>
</trkpt>
<trkpt lat="31.8116600" lon="35.0585300">
<ele>498.690002</ele>
<time>2021-05-07T13:53:03.586Z</time>
</trkpt>
<trkpt lat="31.8115800" lon="35.0585000">
<ele>501.690002</ele>
<time>2021-05-07T13:53:03.586Z</time>
</trkpt>
<trkpt lat="31.8113100" lon="35.0580500">
<ele>507.650024</ele>
<time>2021-05-07T13:53:03.586Z</time>
</trkpt>
<trkpt lat="31.8112300" lon="35.0577500">
<ele>508.489990</ele>
<time>2021-05-07T13:53:03.586Z</time>
</trkpt>
<trkpt lat="31.8111800" lon="35.0575300">
<ele>507.229980</ele>
<time>2021-05-07T13:53:03.586Z</time>
</trkpt>
<trkpt lat="31.8111500" lon="35.0573300">
<ele>507.300018</ele>
<time>2021-05-07T13:53:03.586Z</time>
</trkpt>
<trkpt lat="31.8111000" lon="35.0570400">
<ele>507.569977</ele>
<time>2021-05-07T13:53:03.587Z</time>
</trkpt>
<trkpt lat="31.8110700" lon="35.0569200">
<ele>507.489990</ele>
<time>2021-05-07T13:53:03.587Z</time>
</trkpt>
<trkpt lat="31.8110200" lon="35.0568400">
<ele>507.640015</ele>
<time>2021-05-07T13:53:03.587Z</time>
</trkpt>
<trkpt lat="31.8107200" lon="35.0564600">
<ele>514.750000</ele>
<time>2021-05-07T13:53:03.587Z</time>
</trkpt>
<trkpt lat="31.8105400" lon="35.0561300">
<ele>519.299988</ele>
<time>2021-05-07T13:53:03.587Z</time>
</trkpt>
<trkpt lat="31.8104500" lon="35.0559500">
<ele>518.559998</ele>
<time>2021-05-07T13:53:03.587Z</time>
</trkpt>
<trkpt lat="31.8103300" lon="35.0555900">
<ele>518.489990</ele>
<time>2021-05-07T13:53:03.587Z</time>
</trkpt>
<trkpt lat="31.8101100" lon="35.0551500">
<ele>519.049988</ele>
<time>2021-05-07T13:53:03.587Z</time>
</trkpt>
<trkpt lat="31.8097800" lon="35.0545200">
<ele>520.619995</ele>
<time>2021-05-07T13:53:03.587Z</time>
</trkpt>
<trkpt lat="31.8097500" lon="35.0543800">
<ele>520.400024</ele>
<time>2021-05-07T13:53:03.587Z</time>
</trkpt>
<trkpt lat="31.8097500" lon="35.0542700">
<ele>520.400024</ele>
<time>2021-05-07T13:53:03.587Z</time>
</trkpt>
<trkpt lat="31.8097700" lon="35.0541700">
<ele>519.970032</ele>
<time>2021-05-07T13:53:03.588Z</time>
</trkpt>
<trkpt lat="31.8097600" lon="35.0538000">
<ele>521.269958</ele>
<time>2021-05-07T13:53:03.588Z</time>
</trkpt>
<trkpt lat="31.8098500" lon="35.0535700">
<ele>522.890015</ele>
<time>2021-05-07T13:53:03.588Z</time>
</trkpt>
<trkpt lat="31.8099800" lon="35.0533000">
<ele>527.020020</ele>
<time>2021-05-07T13:53:03.588Z</time>
</trkpt>
<trkpt lat="31.8101100" lon="35.0530800">
<ele>527.789978</ele>
<time>2021-05-07T13:53:03.588Z</time>
</trkpt>
<trkpt lat="31.8101200" lon="35.0529000">
<ele>528.209961</ele>
<time>2021-05-07T13:53:03.588Z</time>
</trkpt>
<trkpt lat="31.8101200" lon="35.0527900">
<ele>528.270020</ele>
<time>2021-05-07T13:53:03.588Z</time>
</trkpt>
<trkpt lat="31.8100800" lon="35.0526500">
<ele>528.049988</ele>
<time>2021-05-07T13:53:03.588Z</time>
</trkpt>
<trkpt lat="31.8098200" lon="35.0522700">
<ele>532.880005</ele>
<time>2021-05-07T13:53:03.588Z</time>
</trkpt>
<trkpt lat="31.8097100" lon="35.0520100">
<ele>534.859985</ele>
<time>2021-05-07T13:53:03.588Z</time>
</trkpt>
<trkpt lat="31.8096600" lon="35.0517000">
<ele>537.119995</ele>
<time>2021-05-07T13:53:03.588Z</time>
</trkpt>
<trkpt lat="31.8096000" lon="35.0515100">
<ele>539.520020</ele>
<time>2021-05-07T13:53:03.588Z</time>
</trkpt>
<trkpt lat="31.8095600" lon="35.0511700">
<ele>541.710022</ele>
<time>2021-05-07T13:53:03.588Z</time>
</trkpt>
<trkpt lat="31.8094900" lon="35.0508000">
<ele>545.230042</ele>
<time>2021-05-07T13:53:03.588Z</time>
</trkpt>
<trkpt lat="31.8093700" lon="35.0502000">
<ele>551.799988</ele>
<time>2021-05-07T13:53:03.588Z</time>
</trkpt>
<trkpt lat="31.8092800" lon="35.0498200">
<ele>552.779968</ele>
<time>2021-05-07T13:53:03.588Z</time>
</trkpt>
<trkpt lat="31.8092400" lon="35.0497800">
<ele>553.209961</ele>
<time>2021-05-07T13:53:03.588Z</time>
</trkpt>
<trkpt lat="31.8091900" lon="35.0497500">
<ele>553.750000</ele>
<time>2021-05-07T13:53:03.588Z</time>
</trkpt>
<trkpt lat="31.8090300" lon="35.0497100">
<ele>554.450012</ele>
<time>2021-05-07T13:53:03.588Z</time>
</trkpt>
<trkpt lat="31.8088800" lon="35.0497800">
<ele>555.119995</ele>
<time>2021-05-07T13:53:03.588Z</time>
</trkpt>
<trkpt lat="31.8087900" lon="35.0498100">
<ele>556.309998</ele>
<time>2021-05-07T13:53:03.588Z</time>
</trkpt>
<trkpt lat="31.8086100" lon="35.0498500">
<ele>558.540039</ele>
<time>2021-05-07T13:53:03.588Z</time>
</trkpt>
<trkpt lat="31.8086000" lon="35.0497700">
<ele>558.760010</ele>
<time>2021-05-07T13:53:03.588Z</time>
</trkpt>
<trkpt lat="31.8085500" lon="35.0496800">
<ele>558.630005</ele>
<time>2021-05-07T13:53:03.588Z</time>
</trkpt>
<trkpt lat="31.8083800" lon="35.0494000">
<ele>559.210022</ele>
<time>2021-05-07T13:53:03.588Z</time>
</trkpt>
<trkpt lat="31.8082700" lon="35.0491600">
<ele>558.649963</ele>
<time>2021-05-07T13:53:03.588Z</time>
</trkpt>
<trkpt lat="31.8081500" lon="35.0488100">
<ele>555.239990</ele>
<time>2021-05-07T13:53:03.588Z</time>
</trkpt>
<trkpt lat="31.8079700" lon="35.0481800">
<ele>548.599976</ele>
<time>2021-05-07T13:53:03.588Z</time>
</trkpt>
<trkpt lat="31.8079000" lon="35.0478900">
<ele>545.820007</ele>
<time>2021-05-07T13:53:03.589Z</time>
</trkpt>
<trkpt lat="31.8078500" lon="35.0475700">
<ele>541.570007</ele>
<time>2021-05-07T13:53:03.589Z</time>
</trkpt>
<trkpt lat="31.8078500" lon="35.0474200">
<ele>539.700012</ele>
<time>2021-05-07T13:53:03.589Z</time>
</trkpt>
<trkpt lat="31.8078500" lon="35.0471400">
<ele>537.409973</ele>
<time>2021-05-07T13:53:03.589Z</time>
</trkpt>
<trkpt lat="31.8078600" lon="35.0468200">
<ele>535.739990</ele>
<time>2021-05-07T13:53:03.589Z</time>
</trkpt>
<trkpt lat="31.8079800" lon="35.0461400">
<ele>532.840027</ele>
<time>2021-05-07T13:53:03.589Z</time>
</trkpt>
<trkpt lat="31.8080500" lon="35.0452800">
<ele>526.820007</ele>
<time>2021-05-07T13:53:03.589Z</time>
</trkpt>
<trkpt lat="31.8080700" lon="35.0443000">
<ele>518.940002</ele>
<time>2021-05-07T13:53:03.590Z</time>
</trkpt>
<trkpt lat="31.8081200" lon="35.0433200">
<ele>508.820007</ele>
<time>2021-05-07T13:53:03.590Z</time>
</trkpt>
<trkpt lat="31.8081300" lon="35.0422100">
<ele>496.990021</ele>
<time>2021-05-07T13:53:03.590Z</time>
</trkpt>
<trkpt lat="31.8081500" lon="35.0419000">
<ele>489.769989</ele>
<time>2021-05-07T13:53:03.590Z</time>
</trkpt>
<trkpt lat="31.8081900" lon="35.0418100">
<ele>487.359985</ele>
<time>2021-05-07T13:53:03.590Z</time>
</trkpt>
<trkpt lat="31.8082200" lon="35.0417700">
<ele>486.350006</ele>
<time>2021-05-07T13:53:03.590Z</time>
</trkpt>
<trkpt lat="31.8083400" lon="35.0416900">
<ele>484.610016</ele>
<time>2021-05-07T13:53:03.590Z</time>
</trkpt>
<trkpt lat="31.8085800" lon="35.0416100">
<ele>484.230011</ele>
<time>2021-05-07T13:53:03.590Z</time>
</trkpt>
<trkpt lat="31.8086500" lon="35.0415700">
<ele>484.230011</ele>
<time>2021-05-07T13:53:03.590Z</time>
</trkpt>
<trkpt lat="31.8087100" lon="35.0414900">
<ele>483.480011</ele>
<time>2021-05-07T13:53:03.590Z</time>
</trkpt>
<trkpt lat="31.8091600" lon="35.0409100">
<ele>478.769989</ele>
<time>2021-05-07T13:53:03.590Z</time>
</trkpt>
<trkpt lat="31.8092000" lon="35.0408200">
<ele>478.069977</ele>
<time>2021-05-07T13:53:03.590Z</time>
</trkpt>
<trkpt lat="31.8092200" lon="35.0407300">
<ele>477.819977</ele>
<time>2021-05-07T13:53:03.590Z</time>
</trkpt>
<trkpt lat="31.8092200" lon="35.0404000">
<ele>476.870026</ele>
<time>2021-05-07T13:53:03.590Z</time>
</trkpt>
<trkpt lat="31.8091900" lon="35.0401700">
<ele>477.120026</ele>
<time>2021-05-07T13:53:03.590Z</time>
</trkpt>
<trkpt lat="31.8087800" lon="35.0394200">
<ele>478.179993</ele>
<time>2021-05-07T13:53:03.590Z</time>
</trkpt>
<trkpt lat="31.8085900" lon="35.0390200">
<ele>475.509979</ele>
<time>2021-05-07T13:53:03.590Z</time>
</trkpt>
<trkpt lat="31.8084000" lon="35.0386400">
<ele>471.869995</ele>
<time>2021-05-07T13:53:03.590Z</time>
</trkpt>
<trkpt lat="31.8083100" lon="35.0384700">
<ele>469.750000</ele>
<time>2021-05-07T13:53:03.590Z</time>
</trkpt>
<trkpt lat="31.8082500" lon="35.0382500">
<ele>466.500000</ele>
<time>2021-05-07T13:53:03.590Z</time>
</trkpt>
<trkpt lat="31.8082100" lon="35.0380200">
<ele>461.719971</ele>
<time>2021-05-07T13:53:03.590Z</time>
</trkpt>
<trkpt lat="31.8082000" lon="35.0377600">
<ele>458.590027</ele>
<time>2021-05-07T13:53:03.590Z</time>
</trkpt>
<trkpt lat="31.8082000" lon="35.0375700">
<ele>457.569977</ele>
<time>2021-05-07T13:53:03.590Z</time>
</trkpt>
<trkpt lat="31.8082000" lon="35.0372700">
<ele>454.720001</ele>
<time>2021-05-07T13:53:03.590Z</time>
</trkpt>
<trkpt lat="31.8082700" lon="35.0369100">
<ele>451.999969</ele>
<time>2021-05-07T13:53:03.590Z</time>
</trkpt>
<trkpt lat="31.8083100" lon="35.0367900">
<ele>450.869995</ele>
<time>2021-05-07T13:53:03.590Z</time>
</trkpt>
<trkpt lat="31.8083900" lon="35.0366000">
<ele>449.300018</ele>
<time>2021-05-07T13:53:03.590Z</time>
</trkpt>
<trkpt lat="31.8086300" lon="35.0362000">
<ele>447.010010</ele>
<time>2021-05-07T13:53:03.590Z</time>
</trkpt>
<trkpt lat="31.8086900" lon="35.0360800">
<ele>446.179993</ele>
<time>2021-05-07T13:53:03.590Z</time>
</trkpt>
<trkpt lat="31.8088800" lon="35.0354700">
<ele>441.489990</ele>
<time>2021-05-07T13:53:03.590Z</time>
</trkpt>
<trkpt lat="31.8089200" lon="35.0353400">
<ele>440.709991</ele>
<time>2021-05-07T13:53:03.590Z</time>
</trkpt>
<trkpt lat="31.8090600" lon="35.0350000">
<ele>434.850006</ele>
<time>2021-05-07T13:53:03.590Z</time>
</trkpt>
<trkpt lat="31.8092500" lon="35.0346900">
<ele>431.029999</ele>
<time>2021-05-07T13:53:03.590Z</time>
</trkpt>
<trkpt lat="31.8095000" lon="35.0344000">
<ele>430.110016</ele>
<time>2021-05-07T13:53:03.590Z</time>
</trkpt>
<trkpt lat="31.8096100" lon="35.0343100">
<ele>427.540009</ele>
<time>2021-05-07T13:53:03.590Z</time>
</trkpt>
<trkpt lat="31.8097200" lon="35.0342700">
<ele>425.729980</ele>
<time>2021-05-07T13:53:03.592Z</time>
</trkpt>
<trkpt lat="31.8098500" lon="35.0342500">
<ele>421.779999</ele>
<time>2021-05-07T13:53:03.592Z</time>
</trkpt>
<trkpt lat="31.8101800" lon="35.0342400">
<ele>416.440002</ele>
<time>2021-05-07T13:53:03.592Z</time>
</trkpt>
<trkpt lat="31.8106600" lon="35.0342500">
<ele>411.660004</ele>
<time>2021-05-07T13:53:03.592Z</time>
</trkpt>
<trkpt lat="31.8108000" lon="35.0342500">
<ele>412.820007</ele>
<time>2021-05-07T13:53:03.592Z</time>
</trkpt>
<trkpt lat="31.8108900" lon="35.0342400">
<ele>413.149994</ele>
<time>2021-05-07T13:53:03.592Z</time>
</trkpt>
<trkpt lat="31.8110400" lon="35.0342100">
<ele>413.349976</ele>
<time>2021-05-07T13:53:03.592Z</time>
</trkpt>
<trkpt lat="31.8111400" lon="35.0341500">
<ele>412.889984</ele>
<time>2021-05-07T13:53:03.592Z</time>
</trkpt>
<trkpt lat="31.8113300" lon="35.0340200">
<ele>412.779999</ele>
<time>2021-05-07T13:53:03.592Z</time>
</trkpt>
<trkpt lat="31.8114200" lon="35.0339000">
<ele>412.650024</ele>
<time>2021-05-07T13:53:03.592Z</time>
</trkpt>
<trkpt lat="31.8115200" lon="35.0337200">
<ele>411.159973</ele>
<time>2021-05-07T13:53:03.592Z</time>
</trkpt>
<trkpt lat="31.8117000" lon="35.0332500">
<ele>410.149994</ele>
<time>2021-05-07T13:53:03.592Z</time>
</trkpt>
<trkpt lat="31.8118600" lon="35.0329100">
<ele>409.640015</ele>
<time>2021-05-07T13:53:03.593Z</time>
</trkpt>
<trkpt lat="31.8119400" lon="35.0327100">
<ele>410.880005</ele>
<time>2021-05-07T13:53:03.593Z</time>
</trkpt>
<trkpt lat="31.8120000" lon="35.0324400">
<ele>411.039978</ele>
<time>2021-05-07T13:53:03.593Z</time>
</trkpt>
<trkpt lat="31.8120700" lon="35.0316800">
<ele>398.740021</ele>
<time>2021-05-07T13:53:03.593Z</time>
</trkpt>
<trkpt lat="31.8120900" lon="35.0316100">
<ele>396.829987</ele>
<time>2021-05-07T13:53:03.593Z</time>
</trkpt>
<trkpt lat="31.8121600" lon="35.0315000">
<ele>394.059998</ele>
<time>2021-05-07T13:53:03.593Z</time>
</trkpt>
<trkpt lat="31.8122100" lon="35.0314700">
<ele>393.529999</ele>
<time>2021-05-07T13:53:03.593Z</time>
</trkpt>
<trkpt lat="31.8123100" lon="35.0314400">
<ele>392.600006</ele>
<time>2021-05-07T13:53:03.593Z</time>
</trkpt>
<trkpt lat="31.8124000" lon="35.0314300">
<ele>392.239990</ele>
<time>2021-05-07T13:53:03.593Z</time>
</trkpt>
<trkpt lat="31.8129100" lon="35.0314900">
<ele>386.679993</ele>
<time>2021-05-07T13:53:03.593Z</time>
</trkpt>
<trkpt lat="31.8130400" lon="35.0315000">
<ele>384.309998</ele>
<time>2021-05-07T13:53:03.593Z</time>
</trkpt>
<trkpt lat="31.8133100" lon="35.0315000">
<ele>381.069977</ele>
<time>2021-05-07T13:53:03.593Z</time>
</trkpt>
<trkpt lat="31.8134300" lon="35.0314800">
<ele>381.709991</ele>
<time>2021-05-07T13:53:03.593Z</time>
</trkpt>
<trkpt lat="31.8135700" lon="35.0314100">
<ele>384.019989</ele>
<time>2021-05-07T13:53:03.593Z</time>
</trkpt>
<trkpt lat="31.8136500" lon="35.0313200">
<ele>383.910004</ele>
<time>2021-05-07T13:53:03.593Z</time>
</trkpt>
<trkpt lat="31.8137100" lon="35.0312100">
<ele>382.619995</ele>
<time>2021-05-07T13:53:03.593Z</time>
</trkpt>
<trkpt lat="31.8137400" lon="35.0310600">
<ele>382.399994</ele>
<time>2021-05-07T13:53:03.593Z</time>
</trkpt>
<trkpt lat="31.8137600" lon="35.0308900">
<ele>383.690002</ele>
<time>2021-05-07T13:53:03.593Z</time>
</trkpt>
<trkpt lat="31.8137600" lon="35.0307600">
<ele>384.669983</ele>
<time>2021-05-07T13:53:03.593Z</time>
</trkpt>
<trkpt lat="31.8136200" lon="35.0300500">
<ele>381.620026</ele>
<time>2021-05-07T13:53:03.593Z</time>
</trkpt>
<trkpt lat="31.8136200" lon="35.0299600">
<ele>380.350006</ele>
<time>2021-05-07T13:53:03.593Z</time>
</trkpt>
<trkpt lat="31.8136200" lon="35.0298400">
<ele>378.220001</ele>
<time>2021-05-07T13:53:03.593Z</time>
</trkpt>
<trkpt lat="31.8136400" lon="35.0295800">
<ele>373.860016</ele>
<time>2021-05-07T13:53:03.594Z</time>
</trkpt>
<trkpt lat="31.8137800" lon="35.0291200">
<ele>365.520020</ele>
<time>2021-05-07T13:53:03.594Z</time>
</trkpt>
<trkpt lat="31.8138800" lon="35.0289500">
<ele>360.380005</ele>
<time>2021-05-07T13:53:03.594Z</time>
</trkpt>
<trkpt lat="31.8140000" lon="35.0288200">
<ele>358.059998</ele>
<time>2021-05-07T13:53:03.594Z</time>
</trkpt>
<trkpt lat="31.8141400" lon="35.0287700">
<ele>358.959991</ele>
<time>2021-05-07T13:53:03.594Z</time>
</trkpt>
<trkpt lat="31.8142300" lon="35.0287100">
<ele>358.639984</ele>
<time>2021-05-07T13:53:03.594Z</time>
</trkpt>
<trkpt lat="31.8143500" lon="35.0285700">
<ele>358.020020</ele>
<time>2021-05-07T13:53:03.594Z</time>
</trkpt>
<trkpt lat="31.8144300" lon="35.0284300">
<ele>358.140015</ele>
<time>2021-05-07T13:53:03.594Z</time>
</trkpt>
<trkpt lat="31.8145700" lon="35.0280800">
<ele>355.139984</ele>
<time>2021-05-07T13:53:03.594Z</time>
</trkpt>
<trkpt lat="31.8146300" lon="35.0279100">
<ele>353.079987</ele>
<time>2021-05-07T13:53:03.594Z</time>
</trkpt>
<trkpt lat="31.8146600" lon="35.0277300">
<ele>350.880005</ele>
<time>2021-05-07T13:53:03.594Z</time>
</trkpt>
<trkpt lat="31.8147600" lon="35.0274000">
<ele>345.630005</ele>
<time>2021-05-07T13:53:03.594Z</time>
</trkpt>
<trkpt lat="31.8148900" lon="35.0271600">
<ele>339.570007</ele>
<time>2021-05-07T13:53:03.594Z</time>
</trkpt>
<trkpt lat="31.8150000" lon="35.0270600">
<ele>338.080017</ele>
<time>2021-05-07T13:53:03.594Z</time>
</trkpt>
<trkpt lat="31.8150700" lon="35.0269900">
<ele>337.529999</ele>
<time>2021-05-07T13:53:03.594Z</time>
</trkpt>
<trkpt lat="31.8153800" lon="35.0267500">
<ele>337.229980</ele>
<time>2021-05-07T13:53:03.594Z</time>
</trkpt>
<trkpt lat="31.8154600" lon="35.0267000">
<ele>336.580017</ele>
<time>2021-05-07T13:53:03.594Z</time>
</trkpt>
<trkpt lat="31.8155800" lon="35.0266800">
<ele>336.540009</ele>
<time>2021-05-07T13:53:03.594Z</time>
</trkpt>
<trkpt lat="31.8157300" lon="35.0266800">
<ele>339.299988</ele>
<time>2021-05-07T13:53:03.594Z</time>
</trkpt>
<trkpt lat="31.8158400" lon="35.0266800">
<ele>341.139984</ele>
<time>2021-05-07T13:53:03.594Z</time>
</trkpt>
<trkpt lat="31.8159900" lon="35.0267300">
<ele>340.780029</ele>
<time>2021-05-07T13:53:03.594Z</time>
</trkpt>
<trkpt lat="31.8162300" lon="35.0268700">
<ele>339.960022</ele>
<time>2021-05-07T13:53:03.594Z</time>
</trkpt>
<trkpt lat="31.8164500" lon="35.0271100">
<ele>335.800018</ele>
<time>2021-05-07T13:53:03.594Z</time>
</trkpt>
<trkpt lat="31.8167000" lon="35.0275600">
<ele>327.590027</ele>
<time>2021-05-07T13:53:03.594Z</time>
</trkpt>
<trkpt lat="31.8167200" lon="35.0276900">
<ele>325.230011</ele>
<time>2021-05-07T13:53:03.594Z</time>
</trkpt>
<trkpt lat="31.8167200" lon="35.0278900">
<ele>322.559998</ele>
<time>2021-05-07T13:53:03.594Z</time>
</trkpt>
<trkpt lat="31.8167000" lon="35.0282600">
<ele>319.660004</ele>
<time>2021-05-07T13:53:03.594Z</time>
</trkpt>
<trkpt lat="31.8166300" lon="35.0286000">
<ele>319.049988</ele>
<time>2021-05-07T13:53:03.594Z</time>
</trkpt>
<trkpt lat="31.8164500" lon="35.0294000">
<ele>313.500000</ele>
<time>2021-05-07T13:53:03.594Z</time>
</trkpt>
<trkpt lat="31.8163900" lon="35.0296300">
<ele>312.339996</ele>
<time>2021-05-07T13:53:03.594Z</time>
</trkpt>
<trkpt lat="31.8162700" lon="35.0298700">
<ele>309.959991</ele>
<time>2021-05-07T13:53:03.594Z</time>
</trkpt>
<trkpt lat="31.8160400" lon="35.0301900">
<ele>307.589996</ele>
<time>2021-05-07T13:53:03.594Z</time>
</trkpt>
<trkpt lat="31.8160400" lon="35.0302500">
<ele>307.700012</ele>
<time>2021-05-07T13:53:03.594Z</time>
</trkpt>
<trkpt lat="31.8160400" lon="35.0303200">
<ele>308.089996</ele>
<time>2021-05-07T13:53:03.594Z</time>
</trkpt>
<trkpt lat="31.8160500" lon="35.0303800">
<ele>308.600006</ele>
<time>2021-05-07T13:53:03.594Z</time>
</trkpt>
<trkpt lat="31.8161600" lon="35.0304000">
<ele>309.309998</ele>
<time>2021-05-07T13:53:03.595Z</time>
</trkpt>
<trkpt lat="31.8162800" lon="35.0303900">
<ele>310.269989</ele>
<time>2021-05-07T13:53:03.595Z</time>
</trkpt>
<trkpt lat="31.8165900" lon="35.0303500">
<ele>313.839996</ele>
<time>2021-05-07T13:53:03.595Z</time>
</trkpt>
<trkpt lat="31.8166700" lon="35.0303500">
<ele>314.910004</ele>
<time>2021-05-07T13:53:03.595Z</time>
</trkpt>
<trkpt lat="31.8168800" lon="35.0303600">
<ele>309.540009</ele>
<time>2021-05-07T13:53:03.595Z</time>
</trkpt>
<trkpt lat="31.8170500" lon="35.0304000">
<ele>306.470001</ele>
<time>2021-05-07T13:53:03.595Z</time>
</trkpt>
<trkpt lat="31.8171700" lon="35.0304900">
<ele>304.799988</ele>
<time>2021-05-07T13:53:03.595Z</time>
</trkpt>
<trkpt lat="31.8172600" lon="35.0306500">
<ele>305.720001</ele>
<time>2021-05-07T13:53:03.595Z</time>
</trkpt>
<trkpt lat="31.8173300" lon="35.0307900">
<ele>307.619995</ele>
<time>2021-05-07T13:53:03.595Z</time>
</trkpt>
<trkpt lat="31.8173800" lon="35.0307900">
<ele>307.730011</ele>
<time>2021-05-07T13:53:03.595Z</time>
</trkpt>
<trkpt lat="31.8174400" lon="35.0307900">
<ele>307.869995</ele>
<time>2021-05-07T13:53:03.595Z</time>
</trkpt>
<trkpt lat="31.8174600" lon="35.0307600">
<ele>307.850006</ele>
<time>2021-05-07T13:53:03.595Z</time>
</trkpt>
<trkpt lat="31.8174500" lon="35.0307100">
<ele>307.679993</ele>
<time>2021-05-07T13:53:03.595Z</time>
</trkpt>
<trkpt lat="31.8173200" lon="35.0300300">
<ele>301.510010</ele>
<time>2021-05-07T13:53:03.595Z</time>
</trkpt>
<trkpt lat="31.8172900" lon="35.0297400">
<ele>296.010010</ele>
<time>2021-05-07T13:53:03.595Z</time>
</trkpt>
<trkpt lat="31.8172900" lon="35.0296200">
<ele>295.339996</ele>
<time>2021-05-07T13:53:03.595Z</time>
</trkpt>
<trkpt lat="31.8173100" lon="35.0293000">
<ele>294.720001</ele>
<time>2021-05-07T13:53:03.595Z</time>
</trkpt>
<trkpt lat="31.8174300" lon="35.0288000">
<ele>294.269989</ele>
<time>2021-05-07T13:53:03.595Z</time>
</trkpt>
<trkpt lat="31.8175000" lon="35.0284000">
<ele>291.240021</ele>
<time>2021-05-07T13:53:03.595Z</time>
</trkpt>
<trkpt lat="31.8180000" lon="35.0274800">
<ele>291.300018</ele>
<time>2021-05-07T13:53:03.595Z</time>
</trkpt>
<trkpt lat="31.8180700" lon="35.0272100">
<ele>291.510010</ele>
<time>2021-05-07T13:53:03.596Z</time>
</trkpt>
<trkpt lat="31.8181200" lon="35.0269600">
<ele>292.440002</ele>
<time>2021-05-07T13:53:03.596Z</time>
</trkpt>
<trkpt lat="31.8181200" lon="35.0264800">
<ele>288.510010</ele>
<time>2021-05-07T13:53:03.596Z</time>
</trkpt>
<trkpt lat="31.8181000" lon="35.0262200">
<ele>286.010010</ele>
<time>2021-05-07T13:53:03.596Z</time>
</trkpt>
<trkpt lat="31.8181100" lon="35.0260900">
<ele>285.070007</ele>
<time>2021-05-07T13:53:03.596Z</time>
</trkpt>
<trkpt lat="31.8181000" lon="35.0259700">
<ele>284.290009</ele>
<time>2021-05-07T13:53:03.596Z</time>
</trkpt>
<trkpt lat="31.8183100" lon="35.0250400">
<ele>275.489990</ele>
<time>2021-05-07T13:53:03.596Z</time>
</trkpt>
<trkpt lat="31.8183700" lon="35.0249800">
<ele>275.309998</ele>
<time>2021-05-07T13:53:03.596Z</time>
</trkpt>
<trkpt lat="31.8184600" lon="35.0248400">
<ele>275.529999</ele>
<time>2021-05-07T13:53:03.596Z</time>
</trkpt>
<trkpt lat="31.8185500" lon="35.0247300">
<ele>275.610016</ele>
<time>2021-05-07T13:53:03.596Z</time>
</trkpt>
<trkpt lat="31.8186000" lon="35.0246600">
<ele>276.119995</ele>
<time>2021-05-07T13:53:03.596Z</time>
</trkpt>
<trkpt lat="31.8187400" lon="35.0245100">
<ele>279.410004</ele>
<time>2021-05-07T13:53:03.596Z</time>
</trkpt>
<trkpt lat="31.8188500" lon="35.0244500">
<ele>281.329987</ele>
<time>2021-05-07T13:53:03.596Z</time>
</trkpt>
<trkpt lat="31.8189800" lon="35.0244400">
<ele>282.940002</ele>
<time>2021-05-07T13:53:03.596Z</time>
</trkpt>
<trkpt lat="31.8190500" lon="35.0244400">
<ele>283.690002</ele>
<time>2021-05-07T13:53:03.596Z</time>
</trkpt>
<trkpt lat="31.8191800" lon="35.0245300">
<ele>286.250000</ele>
<time>2021-05-07T13:53:03.596Z</time>
</trkpt>
<trkpt lat="31.8194700" lon="35.0252300">
<ele>296.959991</ele>
<time>2021-05-07T13:53:03.596Z</time>
</trkpt>
<trkpt lat="31.8195800" lon="35.0254100">
<ele>300.359985</ele>
<time>2021-05-07T13:53:03.596Z</time>
</trkpt>
<trkpt lat="31.8196600" lon="35.0254800">
<ele>303.089996</ele>
<time>2021-05-07T13:53:03.596Z</time>
</trkpt>
<trkpt lat="31.8197400" lon="35.0255100">
<ele>305.089996</ele>
<time>2021-05-07T13:53:03.596Z</time>
</trkpt>
<trkpt lat="31.8198900" lon="35.0255700">
<ele>304.619995</ele>
<time>2021-05-07T13:53:03.596Z</time>
</trkpt>
<trkpt lat="31.8200500" lon="35.0256000">
<ele>303.989990</ele>
<time>2021-05-07T13:53:03.596Z</time>
</trkpt>
<trkpt lat="31.8202900" lon="35.0256300">
<ele>304.399994</ele>
<time>2021-05-07T13:53:03.596Z</time>
</trkpt>
<trkpt lat="31.8204900" lon="35.0256900">
<ele>303.239990</ele>
<time>2021-05-07T13:53:03.596Z</time>
</trkpt>
<trkpt lat="31.8206600" lon="35.0257900">
<ele>303.320007</ele>
<time>2021-05-07T13:53:03.596Z</time>
</trkpt>
<trkpt lat="31.8209200" lon="35.0259200">
<ele>302.130005</ele>
<time>2021-05-07T13:53:03.597Z</time>
</trkpt>
<trkpt lat="31.8212800" lon="35.0262000">
<ele>301.429993</ele>
<time>2021-05-07T13:53:03.597Z</time>
</trkpt>
<trkpt lat="31.8218200" lon="35.0264700">
<ele>299.720001</ele>
<time>2021-05-07T13:53:03.597Z</time>
</trkpt>
<trkpt lat="31.8223700" lon="35.0267100">
<ele>289.509979</ele>
<time>2021-05-07T13:53:03.597Z</time>
</trkpt>
<trkpt lat="31.8226800" lon="35.0268600">
<ele>287.739990</ele>
<time>2021-05-07T13:53:03.597Z</time>
</trkpt>
<trkpt lat="31.8231500" lon="35.0271100">
<ele>290.040009</ele>
<time>2021-05-07T13:53:03.597Z</time>
</trkpt>
<trkpt lat="31.8232200" lon="35.0271600">
<ele>289.820007</ele>
<time>2021-05-07T13:53:03.597Z</time>
</trkpt>
<trkpt lat="31.8234400" lon="35.0273600">
<ele>288.809998</ele>
<time>2021-05-07T13:53:03.597Z</time>
</trkpt>
<trkpt lat="31.8237000" lon="35.0276700">
<ele>293.239990</ele>
<time>2021-05-07T13:53:03.597Z</time>
</trkpt>
<trkpt lat="31.8239500" lon="35.0279800">
<ele>296.169983</ele>
<time>2021-05-07T13:53:03.597Z</time>
</trkpt>
<trkpt lat="31.8240300" lon="35.0280600">
<ele>295.949982</ele>
<time>2021-05-07T13:53:03.597Z</time>
</trkpt>
<trkpt lat="31.8241600" lon="35.0282100">
<ele>295.520020</ele>
<time>2021-05-07T13:53:03.597Z</time>
</trkpt>
<trkpt lat="31.8243600" lon="35.0284600">
<ele>293.910004</ele>
<time>2021-05-07T13:53:03.597Z</time>
</trkpt>
<trkpt lat="31.8249600" lon="35.0291900">
<ele>298.739990</ele>
<time>2021-05-07T13:53:03.597Z</time>
</trkpt>
<trkpt lat="31.8253100" lon="35.0296200">
<ele>300.709991</ele>
<time>2021-05-07T13:53:03.597Z</time>
</trkpt>
<trkpt lat="31.8253500" lon="35.0296600">
<ele>300.750000</ele>
<time>2021-05-07T13:53:03.597Z</time>
</trkpt>
<trkpt lat="31.8257200" lon="35.0301000">
<ele>300.089996</ele>
<time>2021-05-07T13:53:03.597Z</time>
</trkpt>
<trkpt lat="31.8260800" lon="35.0305300">
<ele>306.929993</ele>
<time>2021-05-07T13:53:03.597Z</time>
</trkpt>
<trkpt lat="31.8261400" lon="35.0306000">
<ele>306.459991</ele>
<time>2021-05-07T13:53:03.597Z</time>
</trkpt>
<trkpt lat="31.8262000" lon="35.0306700">
<ele>305.399994</ele>
<time>2021-05-07T13:53:03.597Z</time>
</trkpt>
<trkpt lat="31.8262700" lon="35.0307500">
<ele>304.059998</ele>
<time>2021-05-07T13:53:03.598Z</time>
</trkpt>
<trkpt lat="31.8263500" lon="35.0308300">
<ele>302.450012</ele>
<time>2021-05-07T13:53:03.598Z</time>
</trkpt>
<trkpt lat="31.8263800" lon="35.0308500">
<ele>301.739990</ele>
<time>2021-05-07T13:53:03.598Z</time>
</trkpt>
<trkpt lat="31.8264100" lon="35.0308700">
<ele>300.339996</ele>
<time>2021-05-07T13:53:03.598Z</time>
</trkpt>
<trkpt lat="31.8264400" lon="35.0308800">
<ele>298.910004</ele>
<time>2021-05-07T13:53:03.598Z</time>
</trkpt>
<trkpt lat="31.8264700" lon="35.0309000">
<ele>297.339996</ele>
<time>2021-05-07T13:53:03.598Z</time>
</trkpt>
<trkpt lat="31.8265000" lon="35.0309200">
<ele>295.829987</ele>
<time>2021-05-07T13:53:03.598Z</time>
</trkpt>
<trkpt lat="31.8265300" lon="35.0309300">
<ele>294.519989</ele>
<time>2021-05-07T13:53:03.598Z</time>
</trkpt>
<trkpt lat="31.8265700" lon="35.0309400">
<ele>292.869995</ele>
<time>2021-05-07T13:53:03.598Z</time>
</trkpt>
<trkpt lat="31.8266000" lon="35.0309500">
<ele>291.640015</ele>
<time>2021-05-07T13:53:03.598Z</time>
</trkpt>
<trkpt lat="31.8266300" lon="35.0309600">
<ele>290.429993</ele>
<time>2021-05-07T13:53:03.598Z</time>
</trkpt>
<trkpt lat="31.8266600" lon="35.0309700">
<ele>289.260010</ele>
<time>2021-05-07T13:53:03.598Z</time>
</trkpt>
<trkpt lat="31.8267000" lon="35.0309800">
<ele>288.889984</ele>
<time>2021-05-07T13:53:03.598Z</time>
</trkpt>
<trkpt lat="31.8267300" lon="35.0309900">
<ele>288.800018</ele>
<time>2021-05-07T13:53:03.598Z</time>
</trkpt>
<trkpt lat="31.8267600" lon="35.0309900">
<ele>288.769989</ele>
<time>2021-05-07T13:53:03.598Z</time>
</trkpt>
<trkpt lat="31.8268000" lon="35.0310000">
<ele>288.699982</ele>
<time>2021-05-07T13:53:03.598Z</time>
</trkpt>
<trkpt lat="31.8268900" lon="35.0310000">
<ele>288.640015</ele>
<time>2021-05-07T13:53:03.598Z</time>
</trkpt>
<trkpt lat="31.8269900" lon="35.0310000">
<ele>288.699982</ele>
<time>2021-05-07T13:53:03.598Z</time>
</trkpt>
<trkpt lat="31.8271800" lon="35.0310000">
<ele>289.109985</ele>
<time>2021-05-07T13:53:03.598Z</time>
</trkpt>
<trkpt lat="31.8273600" lon="35.0309800">
<ele>288.820007</ele>
<time>2021-05-07T13:53:03.598Z</time>
</trkpt>
<trkpt lat="31.8274200" lon="35.0309400">
<ele>288.329987</ele>
<time>2021-05-07T13:53:03.598Z</time>
</trkpt>
<trkpt lat="31.8274900" lon="35.0309100">
<ele>287.850006</ele>
<time>2021-05-07T13:53:03.598Z</time>
</trkpt>
<trkpt lat="31.8276600" lon="35.0309000">
<ele>287.880005</ele>
<time>2021-05-07T13:53:03.598Z</time>
</trkpt>
<trkpt lat="31.8280000" lon="35.0308800">
<ele>287.199982</ele>
<time>2021-05-07T13:53:03.599Z</time>
</trkpt>
<trkpt lat="31.8286700" lon="35.0308700">
<ele>302.380005</ele>
<time>2021-05-07T13:53:03.599Z</time>
</trkpt>
<trkpt lat="31.8287700" lon="35.0308600">
<ele>305.910004</ele>
<time>2021-05-07T13:53:03.599Z</time>
</trkpt>
<trkpt lat="31.8288600" lon="35.0308600">
<ele>309.149994</ele>
<time>2021-05-07T13:53:03.599Z</time>
</trkpt>
<trkpt lat="31.8292900" lon="35.0308900">
<ele>316.679993</ele>
<time>2021-05-07T13:53:03.599Z</time>
</trkpt>
<trkpt lat="31.8293500" lon="35.0309000">
<ele>317.360016</ele>
<time>2021-05-07T13:53:03.599Z</time>
</trkpt>
<trkpt lat="31.8294200" lon="35.0309400">
<ele>318.680023</ele>
<time>2021-05-07T13:53:03.599Z</time>
</trkpt>
<trkpt lat="31.8295700" lon="35.0311000">
<ele>321.869995</ele>
<time>2021-05-07T13:53:03.599Z</time>
</trkpt>
<trkpt lat="31.8297800" lon="35.0315500">
<ele>321.760010</ele>
<time>2021-05-07T13:53:03.599Z</time>
</trkpt>
<trkpt lat="31.8298100" lon="35.0316100">
<ele>323.709991</ele>
<time>2021-05-07T13:53:03.599Z</time>
</trkpt>
<trkpt lat="31.8298900" lon="35.0316800">
<ele>327.380005</ele>
<time>2021-05-07T13:53:03.599Z</time>
</trkpt>
<trkpt lat="31.8299600" lon="35.0317300">
<ele>329.309998</ele>
<time>2021-05-07T13:53:03.599Z</time>
</trkpt>
<trkpt lat="31.8301500" lon="35.0317800">
<ele>330.110016</ele>
<time>2021-05-07T13:53:03.599Z</time>
</trkpt>
<trkpt lat="31.8302400" lon="35.0317900">
<ele>330.209991</ele>
<time>2021-05-07T13:53:03.599Z</time>
</trkpt>
<trkpt lat="31.8304900" lon="35.0318200">
<ele>329.339996</ele>
<time>2021-05-07T13:53:03.599Z</time>
</trkpt>
<trkpt lat="31.8305800" lon="35.0318500">
<ele>327.970001</ele>
<time>2021-05-07T13:53:03.599Z</time>
</trkpt>
<trkpt lat="31.8310200" lon="35.0320800">
<ele>325.620026</ele>
<time>2021-05-07T13:53:03.599Z</time>
</trkpt>
<trkpt lat="31.8311100" lon="35.0319100">
<ele>324.110016</ele>
<time>2021-05-07T13:53:03.599Z</time>
</trkpt>
<trkpt lat="31.8311200" lon="35.0318500">
<ele>324.349976</ele>
<time>2021-05-07T13:53:03.599Z</time>
</trkpt>
<trkpt lat="31.8311500" lon="35.0316800">
<ele>324.829987</ele>
<time>2021-05-07T13:53:03.599Z</time>
</trkpt>
<trkpt lat="31.8311300" lon="35.0312500">
<ele>324.239990</ele>
<time>2021-05-07T13:53:03.599Z</time>
</trkpt>
<trkpt lat="31.8310200" lon="35.0308200">
<ele>324.750000</ele>
<time>2021-05-07T13:53:03.599Z</time>
</trkpt>
<trkpt lat="31.8309600" lon="35.0306700">
<ele>324.359985</ele>
<time>2021-05-07T13:53:03.599Z</time>
</trkpt>
<trkpt lat="31.8308200" lon="35.0304900">
<ele>322.169983</ele>
<time>2021-05-07T13:53:03.599Z</time>
</trkpt>
<trkpt lat="31.8307600" lon="35.0304300">
<ele>322.279999</ele>
<time>2021-05-07T13:53:03.599Z</time>
</trkpt>
<trkpt lat="31.8301600" lon="35.0300800">
<ele>335.470001</ele>
<time>2021-05-07T13:53:03.599Z</time>
</trkpt>
<trkpt lat="31.8301100" lon="35.0300400">
<ele>335.900024</ele>
<time>2021-05-07T13:53:03.599Z</time>
</trkpt>
<trkpt lat="31.8298500" lon="35.0298100">
<ele>334.579987</ele>
<time>2021-05-07T13:53:03.600Z</time>
</trkpt>
<trkpt lat="31.8297700" lon="35.0296300">
<ele>333.460022</ele>
<time>2021-05-07T13:53:03.600Z</time>
</trkpt>
<trkpt lat="31.8297400" lon="35.0295000">
<ele>331.830017</ele>
<time>2021-05-07T13:53:03.600Z</time>
</trkpt>
<trkpt lat="31.8297200" lon="35.0290200">
<ele>328.910004</ele>
<time>2021-05-07T13:53:03.600Z</time>
</trkpt>
<trkpt lat="31.8297100" lon="35.0288200">
<ele>328.150024</ele>
<time>2021-05-07T13:53:03.600Z</time>
</trkpt>
<trkpt lat="31.8296800" lon="35.0286600">
<ele>328.740021</ele>
<time>2021-05-07T13:53:03.600Z</time>
</trkpt>
<trkpt lat="31.8296200" lon="35.0285600">
<ele>330.240021</ele>
<time>2021-05-07T13:53:03.600Z</time>
</trkpt>
<trkpt lat="31.8295700" lon="35.0284900">
<ele>332.090027</ele>
<time>2021-05-07T13:53:03.600Z</time>
</trkpt>
<trkpt lat="31.8292900" lon="35.0283400">
<ele>339.029999</ele>
<time>2021-05-07T13:53:03.600Z</time>
</trkpt>
<trkpt lat="31.8290600" lon="35.0281700">
<ele>345.250000</ele>
<time>2021-05-07T13:53:03.600Z</time>
</trkpt>
<trkpt lat="31.8289500" lon="35.0280700">
<ele>348.119995</ele>
<time>2021-05-07T13:53:03.600Z</time>
</trkpt>
<trkpt lat="31.8288200" lon="35.0278200">
<ele>347.719971</ele>
<time>2021-05-07T13:53:03.600Z</time>
</trkpt>
<trkpt lat="31.8287600" lon="35.0275600">
<ele>347.039978</ele>
<time>2021-05-07T13:53:03.600Z</time>
</trkpt>
<trkpt lat="31.8287500" lon="35.0272100">
<ele>346.349976</ele>
<time>2021-05-07T13:53:03.600Z</time>
</trkpt>
<trkpt lat="31.8287500" lon="35.0270500">
<ele>344.330017</ele>
<time>2021-05-07T13:53:03.600Z</time>
</trkpt>
<trkpt lat="31.8287600" lon="35.0268200">
<ele>342.459991</ele>
<time>2021-05-07T13:53:03.600Z</time>
</trkpt>
<trkpt lat="31.8287900" lon="35.0267400">
<ele>342.369995</ele>
<time>2021-05-07T13:53:03.600Z</time>
</trkpt>
<trkpt lat="31.8289400" lon="35.0265300">
<ele>343.680023</ele>
<time>2021-05-07T13:53:03.600Z</time>
</trkpt>
<trkpt lat="31.8289500" lon="35.0264800">
<ele>343.820007</ele>
<time>2021-05-07T13:53:03.600Z</time>
</trkpt>
<trkpt lat="31.8289500" lon="35.0264100">
<ele>343.959991</ele>
<time>2021-05-07T13:53:03.600Z</time>
</trkpt>
<trkpt lat="31.8289400" lon="35.0263600">
<ele>344.000000</ele>
<time>2021-05-07T13:53:03.600Z</time>
</trkpt>
<trkpt lat="31.8286300" lon="35.0260200">
<ele>348.760010</ele>
<time>2021-05-07T13:53:03.600Z</time>
</trkpt>
<trkpt lat="31.8283300" lon="35.0256500">
<ele>346.619995</ele>
<time>2021-05-07T13:53:03.600Z</time>
</trkpt>
<trkpt lat="31.8281500" lon="35.0253700">
<ele>339.899994</ele>
<time>2021-05-07T13:53:03.600Z</time>
</trkpt>
<trkpt lat="31.8279900" lon="35.0250800">
<ele>333.809998</ele>
<time>2021-05-07T13:53:03.600Z</time>
</trkpt>
<trkpt lat="31.8279500" lon="35.0250200">
<ele>333.149994</ele>
<time>2021-05-07T13:53:03.600Z</time>
</trkpt>
<trkpt lat="31.8278600" lon="35.0248900">
<ele>332.369995</ele>
<time>2021-05-07T13:53:03.600Z</time>
</trkpt>
<trkpt lat="31.8277100" lon="35.0247000">
<ele>331.740021</ele>
<time>2021-05-07T13:53:03.601Z</time>
</trkpt>
<trkpt lat="31.8271200" lon="35.0239700">
<ele>333.190002</ele>
<time>2021-05-07T13:53:03.601Z</time>
</trkpt>
<trkpt lat="31.8270900" lon="35.0239000">
<ele>332.609985</ele>
<time>2021-05-07T13:53:03.601Z</time>
</trkpt>
<trkpt lat="31.8270700" lon="35.0237600">
<ele>330.500000</ele>
<time>2021-05-07T13:53:03.601Z</time>
</trkpt>
<trkpt lat="31.8270600" lon="35.0236500">
<ele>328.809998</ele>
<time>2021-05-07T13:53:03.601Z</time>
</trkpt>
<trkpt lat="31.8270600" lon="35.0234600">
<ele>325.710022</ele>
<time>2021-05-07T13:53:03.601Z</time>
</trkpt>
<trkpt lat="31.8270900" lon="35.0232300">
<ele>323.089996</ele>
<time>2021-05-07T13:53:03.601Z</time>
</trkpt>
<trkpt lat="31.8271400" lon="35.0231200">
<ele>322.209991</ele>
<time>2021-05-07T13:53:03.601Z</time>
</trkpt>
<trkpt lat="31.8271700" lon="35.0230700">
<ele>321.649994</ele>
<time>2021-05-07T13:53:03.601Z</time>
</trkpt>
<trkpt lat="31.8272300" lon="35.0229700">
<ele>321.260010</ele>
<time>2021-05-07T13:53:03.601Z</time>
</trkpt>
<trkpt lat="31.8276200" lon="35.0225200">
<ele>316.369995</ele>
<time>2021-05-07T13:53:03.601Z</time>
</trkpt>
<trkpt lat="31.8277500" lon="35.0223100">
<ele>310.140015</ele>
<time>2021-05-07T13:53:03.601Z</time>
</trkpt>
<trkpt lat="31.8277900" lon="35.0222400">
<ele>309.149994</ele>
<time>2021-05-07T13:53:03.601Z</time>
</trkpt>
<trkpt lat="31.8278400" lon="35.0221400">
<ele>309.769989</ele>
<time>2021-05-07T13:53:03.601Z</time>
</trkpt>
<trkpt lat="31.8278900" lon="35.0219600">
<ele>310.169983</ele>
<time>2021-05-07T13:53:03.601Z</time>
</trkpt>
<trkpt lat="31.8279700" lon="35.0216100">
<ele>308.779999</ele>
<time>2021-05-07T13:53:03.601Z</time>
</trkpt>
<trkpt lat="31.8279900" lon="35.0214000">
<ele>307.970001</ele>
<time>2021-05-07T13:53:03.601Z</time>
</trkpt>
<trkpt lat="31.8280700" lon="35.0203600">
<ele>301.360016</ele>
<time>2021-05-07T13:53:03.601Z</time>
</trkpt>
<trkpt lat="31.8281300" lon="35.0198300">
<ele>297.309998</ele>
<time>2021-05-07T13:53:03.601Z</time>
</trkpt>
<trkpt lat="31.8281800" lon="35.0196900">
<ele>296.730011</ele>
<time>2021-05-07T13:53:03.601Z</time>
</trkpt>
<trkpt lat="31.8282800" lon="35.0195200">
<ele>296.299988</ele>
<time>2021-05-07T13:53:03.601Z</time>
</trkpt>
<trkpt lat="31.8283400" lon="35.0194800">
<ele>296.359985</ele>
<time>2021-05-07T13:53:03.601Z</time>
</trkpt>
<trkpt lat="31.8284300" lon="35.0194300">
<ele>297.290009</ele>
<time>2021-05-07T13:53:03.601Z</time>
</trkpt>
<trkpt lat="31.8285000" lon="35.0194200">
<ele>298.220001</ele>
<time>2021-05-07T13:53:03.602Z</time>
</trkpt>
<trkpt lat="31.8285100" lon="35.0193800">
<ele>298.079987</ele>
<time>2021-05-07T13:53:03.602Z</time>
</trkpt>
<trkpt lat="31.8285300" lon="35.0193600">
<ele>298.220001</ele>
<time>2021-05-07T13:53:03.602Z</time>
</trkpt>
<trkpt lat="31.8285600" lon="35.0193500">
<ele>298.580017</ele>
<time>2021-05-07T13:53:03.602Z</time>
</trkpt>
<trkpt lat="31.8286000" lon="35.0193400">
<ele>299.089996</ele>
<time>2021-05-07T13:53:03.602Z</time>
</trkpt>
<trkpt lat="31.8286300" lon="35.0193400">
<ele>299.660004</ele>
<time>2021-05-07T13:53:03.602Z</time>
</trkpt>
<trkpt lat="31.8286600" lon="35.0193400">
<ele>300.299988</ele>
<time>2021-05-07T13:53:03.602Z</time>
</trkpt>
<trkpt lat="31.8286900" lon="35.0193400">
<ele>300.950012</ele>
<time>2021-05-07T13:53:03.602Z</time>
</trkpt>
<trkpt lat="31.8287200" lon="35.0193500">
<ele>301.669983</ele>
<time>2021-05-07T13:53:03.602Z</time>
</trkpt>
<trkpt lat="31.8288700" lon="35.0193600">
<ele>304.980011</ele>
<time>2021-05-07T13:53:03.602Z</time>
</trkpt>
<trkpt lat="31.8290300" lon="35.0193800">
<ele>306.279999</ele>
<time>2021-05-07T13:53:03.602Z</time>
</trkpt>
<trkpt lat="31.8291800" lon="35.0194000">
<ele>307.059998</ele>
<time>2021-05-07T13:53:03.602Z</time>
</trkpt>
<trkpt lat="31.8292900" lon="35.0194100">
<ele>307.550018</ele>
<time>2021-05-07T13:53:03.602Z</time>
</trkpt>
<trkpt lat="31.8294000" lon="35.0194200">
<ele>307.989990</ele>
<time>2021-05-07T13:53:03.602Z</time>
</trkpt>
<trkpt lat="31.8295100" lon="35.0194200">
<ele>309.549988</ele>
<time>2021-05-07T13:53:03.602Z</time>
</trkpt>
<trkpt lat="31.8296100" lon="35.0194200">
<ele>311.649994</ele>
<time>2021-05-07T13:53:03.602Z</time>
</trkpt>
<trkpt lat="31.8297200" lon="35.0194200">
<ele>313.949982</ele>
<time>2021-05-07T13:53:03.602Z</time>
</trkpt>
<trkpt lat="31.8298700" lon="35.0194100">
<ele>316.660004</ele>
<time>2021-05-07T13:53:03.602Z</time>
</trkpt>
<trkpt lat="31.8300200" lon="35.0193900">
<ele>319.399994</ele>
<time>2021-05-07T13:53:03.602Z</time>
</trkpt>
<trkpt lat="31.8301600" lon="35.0193700">
<ele>322.150024</ele>
<time>2021-05-07T13:53:03.602Z</time>
</trkpt>
<trkpt lat="31.8303200" lon="35.0193700">
<ele>325.639984</ele>
<time>2021-05-07T13:53:03.602Z</time>
</trkpt>
<trkpt lat="31.8303800" lon="35.0193600">
<ele>327.220001</ele>
<time>2021-05-07T13:53:03.602Z</time>
</trkpt>
<trkpt lat="31.8304400" lon="35.0193700">
<ele>328.979980</ele>
<time>2021-05-07T13:53:03.602Z</time>
</trkpt>
<trkpt lat="31.8305100" lon="35.0193700">
<ele>330.930023</ele>
<time>2021-05-07T13:53:03.602Z</time>
</trkpt>
<trkpt lat="31.8305700" lon="35.0193800">
<ele>332.730011</ele>
<time>2021-05-07T13:53:03.602Z</time>
</trkpt>
<trkpt lat="31.8306300" lon="35.0194000">
<ele>334.709991</ele>
<time>2021-05-07T13:53:03.602Z</time>
</trkpt>
<trkpt lat="31.8307000" lon="35.0194200">
<ele>336.940002</ele>
<time>2021-05-07T13:53:03.603Z</time>
</trkpt>
<trkpt lat="31.8307600" lon="35.0194500">
<ele>338.880005</ele>
<time>2021-05-07T13:53:03.603Z</time>
</trkpt>
<trkpt lat="31.8308200" lon="35.0194800">
<ele>340.510010</ele>
<time>2021-05-07T13:53:03.603Z</time>
</trkpt>
<trkpt lat="31.8308800" lon="35.0195100">
<ele>340.799988</ele>
<time>2021-05-07T13:53:03.603Z</time>
</trkpt>
<trkpt lat="31.8309400" lon="35.0195500">
<ele>340.770020</ele>
<time>2021-05-07T13:53:03.603Z</time>
</trkpt>
<trkpt lat="31.8310000" lon="35.0195700">
<ele>340.820007</ele>
<time>2021-05-07T13:53:03.603Z</time>
</trkpt>
<trkpt lat="31.8310700" lon="35.0196000">
<ele>340.919983</ele>
<time>2021-05-07T13:53:03.603Z</time>
</trkpt>
<trkpt lat="31.8311300" lon="35.0196300">
<ele>341.179993</ele>
<time>2021-05-07T13:53:03.603Z</time>
</trkpt>
<trkpt lat="31.8312000" lon="35.0196700">
<ele>341.899994</ele>
<time>2021-05-07T13:53:03.603Z</time>
</trkpt>
<trkpt lat="31.8312600" lon="35.0197000">
<ele>342.570007</ele>
<time>2021-05-07T13:53:03.603Z</time>
</trkpt>
<trkpt lat="31.8313200" lon="35.0197500">
<ele>343.560028</ele>
<time>2021-05-07T13:53:03.603Z</time>
</trkpt>
<trkpt lat="31.8313800" lon="35.0197900">
<ele>344.639984</ele>
<time>2021-05-07T13:53:03.603Z</time>
</trkpt>
<trkpt lat="31.8314400" lon="35.0198400">
<ele>345.270020</ele>
<time>2021-05-07T13:53:03.603Z</time>
</trkpt>
<trkpt lat="31.8314900" lon="35.0198900">
<ele>345.809998</ele>
<time>2021-05-07T13:53:03.603Z</time>
</trkpt>
<trkpt lat="31.8315400" lon="35.0199500">
<ele>346.459991</ele>
<time>2021-05-07T13:53:03.603Z</time>
</trkpt>
<trkpt lat="31.8315900" lon="35.0200000">
<ele>347.000000</ele>
<time>2021-05-07T13:53:03.603Z</time>
</trkpt>
<trkpt lat="31.8316900" lon="35.0200800">
<ele>348.059998</ele>
<time>2021-05-07T13:53:03.603Z</time>
</trkpt>
<trkpt lat="31.8317900" lon="35.0201700">
<ele>350.620026</ele>
<time>2021-05-07T13:53:03.603Z</time>
</trkpt>
<trkpt lat="31.8318900" lon="35.0202600">
<ele>352.939972</ele>
<time>2021-05-07T13:53:03.603Z</time>
</trkpt>
<trkpt lat="31.8319400" lon="35.0203100">
<ele>353.929993</ele>
<time>2021-05-07T13:53:03.603Z</time>
</trkpt>
<trkpt lat="31.8319800" lon="35.0203500">
<ele>355.149994</ele>
<time>2021-05-07T13:53:03.604Z</time>
</trkpt>
<trkpt lat="31.8320700" lon="35.0204400">
<ele>357.459991</ele>
<time>2021-05-07T13:53:03.604Z</time>
</trkpt>
<trkpt lat="31.8321600" lon="35.0205400">
<ele>358.830017</ele>
<time>2021-05-07T13:53:03.604Z</time>
</trkpt>
<trkpt lat="31.8322500" lon="35.0206400">
<ele>360.130005</ele>
<time>2021-05-07T13:53:03.604Z</time>
</trkpt>
<trkpt lat="31.8323400" lon="35.0207400">
<ele>361.500031</ele>
<time>2021-05-07T13:53:03.604Z</time>
</trkpt>
<trkpt lat="31.8324300" lon="35.0208300">
<ele>362.529968</ele>
<time>2021-05-07T13:53:03.604Z</time>
</trkpt>
<trkpt lat="31.8325100" lon="35.0209300">
<ele>362.690002</ele>
<time>2021-05-07T13:53:03.604Z</time>
</trkpt>
<trkpt lat="31.8326000" lon="35.0210400">
<ele>362.010010</ele>
<time>2021-05-07T13:53:03.604Z</time>
</trkpt>
<trkpt lat="31.8326800" lon="35.0211400">
<ele>361.769989</ele>
<time>2021-05-07T13:53:03.604Z</time>
</trkpt>
<trkpt lat="31.8327600" lon="35.0212500">
<ele>361.840027</ele>
<time>2021-05-07T13:53:03.604Z</time>
</trkpt>
<trkpt lat="31.8327900" lon="35.0213200">
<ele>361.720001</ele>
<time>2021-05-07T13:53:03.604Z</time>
</trkpt>
<trkpt lat="31.8328200" lon="35.0213900">
<ele>361.750000</ele>
<time>2021-05-07T13:53:03.604Z</time>
</trkpt>
<trkpt lat="31.8328500" lon="35.0214600">
<ele>361.720001</ele>
<time>2021-05-07T13:53:03.604Z</time>
</trkpt>
<trkpt lat="31.8328700" lon="35.0215400">
<ele>361.389984</ele>
<time>2021-05-07T13:53:03.604Z</time>
</trkpt>
<trkpt lat="31.8328900" lon="35.0216200">
<ele>361.020020</ele>
<time>2021-05-07T13:53:03.604Z</time>
</trkpt>
<trkpt lat="31.8329100" lon="35.0216900">
<ele>361.119995</ele>
<time>2021-05-07T13:53:03.604Z</time>
</trkpt>
<trkpt lat="31.8329200" lon="35.0217700">
<ele>361.970032</ele>
<time>2021-05-07T13:53:03.604Z</time>
</trkpt>
<trkpt lat="31.8329300" lon="35.0218500">
<ele>362.809998</ele>
<time>2021-05-07T13:53:03.604Z</time>
</trkpt>
<trkpt lat="31.8329400" lon="35.0219300">
<ele>363.630005</ele>
<time>2021-05-07T13:53:03.604Z</time>
</trkpt>
<trkpt lat="31.8329400" lon="35.0220100">
<ele>364.600006</ele>
<time>2021-05-07T13:53:03.604Z</time>
</trkpt>
<trkpt lat="31.8329500" lon="35.0220500">
<ele>365.239990</ele>
<time>2021-05-07T13:53:03.604Z</time>
</trkpt>
<trkpt lat="31.8329600" lon="35.0220900">
<ele>365.880005</ele>
<time>2021-05-07T13:53:03.604Z</time>
</trkpt>
<trkpt lat="31.8329600" lon="35.0221300">
<ele>366.410004</ele>
<time>2021-05-07T13:53:03.604Z</time>
</trkpt>
<trkpt lat="31.8329700" lon="35.0221700">
<ele>367.069977</ele>
<time>2021-05-07T13:53:03.604Z</time>
</trkpt>
<trkpt lat="31.8329700" lon="35.0222100">
<ele>367.610016</ele>
<time>2021-05-07T13:53:03.604Z</time>
</trkpt>
<trkpt lat="31.8329600" lon="35.0222500">
<ele>367.790009</ele>
<time>2021-05-07T13:53:03.604Z</time>
</trkpt>
<trkpt lat="31.8329600" lon="35.0222900">
<ele>368.040009</ele>
<time>2021-05-07T13:53:03.604Z</time>
</trkpt>
<trkpt lat="31.8329500" lon="35.0223300">
<ele>368.160004</ele>
<time>2021-05-07T13:53:03.604Z</time>
</trkpt>
<trkpt lat="31.8329500" lon="35.0224000">
<ele>368.609985</ele>
<time>2021-05-07T13:53:03.604Z</time>
</trkpt>
<trkpt lat="31.8329400" lon="35.0224700">
<ele>368.970001</ele>
<time>2021-05-07T13:53:03.604Z</time>
</trkpt>
<trkpt lat="31.8329400" lon="35.0225400">
<ele>369.580017</ele>
<time>2021-05-07T13:53:03.604Z</time>
</trkpt>
<trkpt lat="31.8329500" lon="35.0226200">
<ele>370.429993</ele>
<time>2021-05-07T13:53:03.606Z</time>
</trkpt>
<trkpt lat="31.8329500" lon="35.0226900">
<ele>371.130005</ele>
<time>2021-05-07T13:53:03.606Z</time>
</trkpt>
<trkpt lat="31.8329600" lon="35.0227600">
<ele>371.829987</ele>
<time>2021-05-07T13:53:03.606Z</time>
</trkpt>
<trkpt lat="31.8329700" lon="35.0228400">
<ele>372.519989</ele>
<time>2021-05-07T13:53:03.606Z</time>
</trkpt>
<trkpt lat="31.8329800" lon="35.0229100">
<ele>373.079987</ele>
<time>2021-05-07T13:53:03.606Z</time>
</trkpt>
<trkpt lat="31.8330000" lon="35.0229800">
<ele>373.600006</ele>
<time>2021-05-07T13:53:03.606Z</time>
</trkpt>
<trkpt lat="31.8330100" lon="35.0230200">
<ele>373.889984</ele>
<time>2021-05-07T13:53:03.606Z</time>
</trkpt>
<trkpt lat="31.8330200" lon="35.0230700">
<ele>374.250000</ele>
<time>2021-05-07T13:53:03.606Z</time>
</trkpt>
<trkpt lat="31.8330300" lon="35.0231100">
<ele>374.519989</ele>
<time>2021-05-07T13:53:03.606Z</time>
</trkpt>
<trkpt lat="31.8330500" lon="35.0231600">
<ele>374.790009</ele>
<time>2021-05-07T13:53:03.606Z</time>
</trkpt>
<trkpt lat="31.8330700" lon="35.0232000">
<ele>375.119995</ele>
<time>2021-05-07T13:53:03.606Z</time>
</trkpt>
<trkpt lat="31.8330900" lon="35.0232400">
<ele>375.490021</ele>
<time>2021-05-07T13:53:03.606Z</time>
</trkpt>
<trkpt lat="31.8331200" lon="35.0232800">
<ele>375.889984</ele>
<time>2021-05-07T13:53:03.606Z</time>
</trkpt>
<trkpt lat="31.8331500" lon="35.0233100">
<ele>376.199982</ele>
<time>2021-05-07T13:53:03.606Z</time>
</trkpt>
<trkpt lat="31.8331800" lon="35.0233400">
<ele>376.510010</ele>
<time>2021-05-07T13:53:03.606Z</time>
</trkpt>
<trkpt lat="31.8332100" lon="35.0233700">
<ele>376.890015</ele>
<time>2021-05-07T13:53:03.606Z</time>
</trkpt>
<trkpt lat="31.8332500" lon="35.0233900">
<ele>377.250000</ele>
<time>2021-05-07T13:53:03.606Z</time>
</trkpt>
<trkpt lat="31.8332700" lon="35.0234100">
<ele>377.540009</ele>
<time>2021-05-07T13:53:03.606Z</time>
</trkpt>
<trkpt lat="31.8333000" lon="35.0234200">
<ele>377.779999</ele>
<time>2021-05-07T13:53:03.606Z</time>
</trkpt>
<trkpt lat="31.8333300" lon="35.0234300">
<ele>378.029999</ele>
<time>2021-05-07T13:53:03.606Z</time>
</trkpt>
<trkpt lat="31.8333600" lon="35.0234300">
<ele>378.679993</ele>
<time>2021-05-07T13:53:03.606Z</time>
</trkpt>
<trkpt lat="31.8333900" lon="35.0234300">
<ele>379.399994</ele>
<time>2021-05-07T13:53:03.606Z</time>
</trkpt>
<trkpt lat="31.8334300" lon="35.0234300">
<ele>380.360016</ele>
<time>2021-05-07T13:53:03.606Z</time>
</trkpt>
<trkpt lat="31.8334600" lon="35.0234300">
<ele>381.079987</ele>
<time>2021-05-07T13:53:03.606Z</time>
</trkpt>
<trkpt lat="31.8334900" lon="35.0234200">
<ele>381.709991</ele>
<time>2021-05-07T13:53:03.606Z</time>
</trkpt>
<trkpt lat="31.8335400" lon="35.0233900">
<ele>382.670013</ele>
<time>2021-05-07T13:53:03.606Z</time>
</trkpt>
<trkpt lat="31.8335700" lon="35.0233700">
<ele>383.249969</ele>
<time>2021-05-07T13:53:03.606Z</time>
</trkpt>
<trkpt lat="31.8335900" lon="35.0233400">
<ele>383.519989</ele>
<time>2021-05-07T13:53:03.607Z</time>
</trkpt>
<trkpt lat="31.8336100" lon="35.0233100">
<ele>383.889984</ele>
<time>2021-05-07T13:53:03.607Z</time>
</trkpt>
<trkpt lat="31.8336300" lon="35.0232800">
<ele>383.880005</ele>
<time>2021-05-07T13:53:03.607Z</time>
</trkpt>
<trkpt lat="31.8336400" lon="35.0232500">
<ele>383.800018</ele>
<time>2021-05-07T13:53:03.607Z</time>
</trkpt>
<trkpt lat="31.8336500" lon="35.0232200">
<ele>383.729980</ele>
<time>2021-05-07T13:53:03.607Z</time>
</trkpt>
<trkpt lat="31.8336600" lon="35.0231900">
<ele>383.660004</ele>
<time>2021-05-07T13:53:03.607Z</time>
</trkpt>
<trkpt lat="31.8336900" lon="35.0229400">
<ele>382.990021</ele>
<time>2021-05-07T13:53:03.607Z</time>
</trkpt>
<trkpt lat="31.8337200" lon="35.0227200">
<ele>382.990021</ele>
<time>2021-05-07T13:53:03.607Z</time>
</trkpt>
<trkpt lat="31.8337500" lon="35.0225100">
<ele>383.959991</ele>
<time>2021-05-07T13:53:03.607Z</time>
</trkpt>
<trkpt lat="31.8337700" lon="35.0222800">
<ele>384.600006</ele>
<time>2021-05-07T13:53:03.607Z</time>
</trkpt>
<trkpt lat="31.8337900" lon="35.0221500">
<ele>384.839996</ele>
<time>2021-05-07T13:53:03.607Z</time>
</trkpt>
<trkpt lat="31.8338000" lon="35.0220000">
<ele>384.779999</ele>
<time>2021-05-07T13:53:03.607Z</time>
</trkpt>
<trkpt lat="31.8338200" lon="35.0218600">
<ele>384.700012</ele>
<time>2021-05-07T13:53:03.607Z</time>
</trkpt>
<trkpt lat="31.8338500" lon="35.0217100">
<ele>384.600006</ele>
<time>2021-05-07T13:53:03.607Z</time>
</trkpt>
<trkpt lat="31.8338700" lon="35.0215700">
<ele>384.060028</ele>
<time>2021-05-07T13:53:03.607Z</time>
</trkpt>
<trkpt lat="31.8339000" lon="35.0214300">
<ele>383.410004</ele>
<time>2021-05-07T13:53:03.607Z</time>
</trkpt>
<trkpt lat="31.8339300" lon="35.0212500">
<ele>382.519989</ele>
<time>2021-05-07T13:53:03.607Z</time>
</trkpt>
<trkpt lat="31.8339900" lon="35.0210200">
<ele>381.559998</ele>
<time>2021-05-07T13:53:03.607Z</time>
</trkpt>
<trkpt lat="31.8340100" lon="35.0209400">
<ele>380.970001</ele>
<time>2021-05-07T13:53:03.607Z</time>
</trkpt>
<trkpt lat="31.8340400" lon="35.0208800">
<ele>380.609985</ele>
<time>2021-05-07T13:53:03.607Z</time>
</trkpt>
<trkpt lat="31.8340700" lon="35.0208100">
<ele>380.139984</ele>
<time>2021-05-07T13:53:03.607Z</time>
</trkpt>
<trkpt lat="31.8341100" lon="35.0207400">
<ele>379.919983</ele>
<time>2021-05-07T13:53:03.607Z</time>
</trkpt>
<trkpt lat="31.8341500" lon="35.0206700">
<ele>379.699982</ele>
<time>2021-05-07T13:53:03.608Z</time>
</trkpt>
<trkpt lat="31.8341900" lon="35.0206100">
<ele>379.459991</ele>
<time>2021-05-07T13:53:03.608Z</time>
</trkpt>
<trkpt lat="31.8342300" lon="35.0205400">
<ele>379.050018</ele>
<time>2021-05-07T13:53:03.608Z</time>
</trkpt>
<trkpt lat="31.8342800" lon="35.0204800">
<ele>378.480011</ele>
<time>2021-05-07T13:53:03.608Z</time>
</trkpt>
<trkpt lat="31.8343300" lon="35.0204200">
<ele>377.839996</ele>
<time>2021-05-07T13:53:03.608Z</time>
</trkpt>
<trkpt lat="31.8343800" lon="35.0203700">
<ele>377.250000</ele>
<time>2021-05-07T13:53:03.608Z</time>
</trkpt>
<trkpt lat="31.8344300" lon="35.0203200">
<ele>376.600006</ele>
<time>2021-05-07T13:53:03.608Z</time>
</trkpt>
<trkpt lat="31.8344800" lon="35.0202700">
<ele>376.199982</ele>
<time>2021-05-07T13:53:03.608Z</time>
</trkpt>
<trkpt lat="31.8345300" lon="35.0202200">
<ele>376.199982</ele>
<time>2021-05-07T13:53:03.608Z</time>
</trkpt>
<trkpt lat="31.8347400" lon="35.0200800">
<ele>376.300018</ele>
<time>2021-05-07T13:53:03.608Z</time>
</trkpt>
<trkpt lat="31.8348600" lon="35.0200000">
<ele>374.019989</ele>
<time>2021-05-07T13:53:03.608Z</time>
</trkpt>
<trkpt lat="31.8349500" lon="35.0199400">
<ele>372.330017</ele>
<time>2021-05-07T13:53:03.608Z</time>
</trkpt>
<trkpt lat="31.8350900" lon="35.0198500">
<ele>369.619995</ele>
<time>2021-05-07T13:53:03.608Z</time>
</trkpt>
<trkpt lat="31.8351500" lon="35.0198100">
<ele>368.470001</ele>
<time>2021-05-07T13:53:03.608Z</time>
</trkpt>
<trkpt lat="31.8353700" lon="35.0196700">
<ele>366.519989</ele>
<time>2021-05-07T13:53:03.608Z</time>
</trkpt>
<trkpt lat="31.8354100" lon="35.0196400">
<ele>366.899994</ele>
<time>2021-05-07T13:53:03.608Z</time>
</trkpt>
<trkpt lat="31.8354500" lon="35.0196000">
<ele>367.440002</ele>
<time>2021-05-07T13:53:03.608Z</time>
</trkpt>
<trkpt lat="31.8355000" lon="35.0195600">
<ele>368.200012</ele>
<time>2021-05-07T13:53:03.608Z</time>
</trkpt>
<trkpt lat="31.8355400" lon="35.0195200">
<ele>369.010010</ele>
<time>2021-05-07T13:53:03.608Z</time>
</trkpt>
<trkpt lat="31.8355800" lon="35.0194700">
<ele>369.519989</ele>
<time>2021-05-07T13:53:03.608Z</time>
</trkpt>
<trkpt lat="31.8356100" lon="35.0194200">
<ele>369.570007</ele>
<time>2021-05-07T13:53:03.608Z</time>
</trkpt>
<trkpt lat="31.8356500" lon="35.0193700">
<ele>369.330017</ele>
<time>2021-05-07T13:53:03.608Z</time>
</trkpt>
<trkpt lat="31.8356800" lon="35.0193200">
<ele>369.259979</ele>
<time>2021-05-07T13:53:03.608Z</time>
</trkpt>
<trkpt lat="31.8357100" lon="35.0192600">
<ele>369.330017</ele>
<time>2021-05-07T13:53:03.608Z</time>
</trkpt>
<trkpt lat="31.8357300" lon="35.0192000">
<ele>369.519989</ele>
<time>2021-05-07T13:53:03.608Z</time>
</trkpt>
<trkpt lat="31.8357500" lon="35.0191400">
<ele>369.679993</ele>
<time>2021-05-07T13:53:03.609Z</time>
</trkpt>
<trkpt lat="31.8357700" lon="35.0190800">
<ele>369.800018</ele>
<time>2021-05-07T13:53:03.609Z</time>
</trkpt>
<trkpt lat="31.8357900" lon="35.0190200">
<ele>370.040009</ele>
<time>2021-05-07T13:53:03.609Z</time>
</trkpt>
<trkpt lat="31.8358100" lon="35.0189600">
<ele>370.409973</ele>
<time>2021-05-07T13:53:03.609Z</time>
</trkpt>
<trkpt lat="31.8358400" lon="35.0187500">
<ele>370.820007</ele>
<time>2021-05-07T13:53:03.609Z</time>
</trkpt>
<trkpt lat="31.8358900" lon="35.0185300">
<ele>370.279999</ele>
<time>2021-05-07T13:53:03.609Z</time>
</trkpt>
<trkpt lat="31.8359400" lon="35.0183100">
<ele>370.839996</ele>
<time>2021-05-07T13:53:03.609Z</time>
</trkpt>
<trkpt lat="31.8360000" lon="35.0181000">
<ele>369.989990</ele>
<time>2021-05-07T13:53:03.609Z</time>
</trkpt>
<trkpt lat="31.8360200" lon="35.0180300">
<ele>369.710022</ele>
<time>2021-05-07T13:53:03.609Z</time>
</trkpt>
<trkpt lat="31.8360500" lon="35.0179700">
<ele>369.350006</ele>
<time>2021-05-07T13:53:03.609Z</time>
</trkpt>
<trkpt lat="31.8360900" lon="35.0179100">
<ele>369.160004</ele>
<time>2021-05-07T13:53:03.609Z</time>
</trkpt>
<trkpt lat="31.8361200" lon="35.0178500">
<ele>368.750000</ele>
<time>2021-05-07T13:53:03.609Z</time>
</trkpt>
<trkpt lat="31.8361600" lon="35.0177900">
<ele>368.099976</ele>
<time>2021-05-07T13:53:03.609Z</time>
</trkpt>
<trkpt lat="31.8362000" lon="35.0177300">
<ele>367.350006</ele>
<time>2021-05-07T13:53:03.609Z</time>
</trkpt>
<trkpt lat="31.8362500" lon="35.0176800">
<ele>367.119995</ele>
<time>2021-05-07T13:53:03.609Z</time>
</trkpt>
<trkpt lat="31.8363000" lon="35.0176300">
<ele>367.339996</ele>
<time>2021-05-07T13:53:03.609Z</time>
</trkpt>
<trkpt lat="31.8363500" lon="35.0175800">
<ele>368.009979</ele>
<time>2021-05-07T13:53:03.609Z</time>
</trkpt>
<trkpt lat="31.8364000" lon="35.0175300">
<ele>368.809998</ele>
<time>2021-05-07T13:53:03.609Z</time>
</trkpt>
<trkpt lat="31.8364500" lon="35.0174900">
<ele>368.309998</ele>
<time>2021-05-07T13:53:03.609Z</time>
</trkpt>
<trkpt lat="31.8365000" lon="35.0174600">
<ele>367.339996</ele>
<time>2021-05-07T13:53:03.609Z</time>
</trkpt>
<trkpt lat="31.8366700" lon="35.0173000">
<ele>364.869995</ele>
<time>2021-05-07T13:53:03.609Z</time>
</trkpt>
<trkpt lat="31.8368600" lon="35.0171300">
<ele>366.250031</ele>
<time>2021-05-07T13:53:03.609Z</time>
</trkpt>
<trkpt lat="31.8370500" lon="35.0169600">
<ele>365.869995</ele>
<time>2021-05-07T13:53:03.609Z</time>
</trkpt>
<trkpt lat="31.8371200" lon="35.0168900">
<ele>365.059998</ele>
<time>2021-05-07T13:53:03.609Z</time>
</trkpt>
<trkpt lat="31.8371700" lon="35.0168100">
<ele>364.989990</ele>
<time>2021-05-07T13:53:03.609Z</time>
</trkpt>
<trkpt lat="31.8372300" lon="35.0167300">
<ele>365.480011</ele>
<time>2021-05-07T13:53:03.609Z</time>
</trkpt>
<trkpt lat="31.8372900" lon="35.0166400">
<ele>365.540009</ele>
<time>2021-05-07T13:53:03.609Z</time>
</trkpt>
<trkpt lat="31.8373500" lon="35.0165500">
<ele>365.269989</ele>
<time>2021-05-07T13:53:03.610Z</time>
</trkpt>
<trkpt lat="31.8374000" lon="35.0164600">
<ele>365.200012</ele>
<time>2021-05-07T13:53:03.610Z</time>
</trkpt>
<trkpt lat="31.8374500" lon="35.0163700">
<ele>365.090027</ele>
<time>2021-05-07T13:53:03.610Z</time>
</trkpt>
<trkpt lat="31.8375000" lon="35.0162700">
<ele>364.570007</ele>
<time>2021-05-07T13:53:03.610Z</time>
</trkpt>
<trkpt lat="31.8375400" lon="35.0161800">
<ele>364.679993</ele>
<time>2021-05-07T13:53:03.610Z</time>
</trkpt>
<trkpt lat="31.8375800" lon="35.0160800">
<ele>364.700012</ele>
<time>2021-05-07T13:53:03.610Z</time>
</trkpt>
<trkpt lat="31.8376000" lon="35.0160500">
<ele>364.799988</ele>
<time>2021-05-07T13:53:03.610Z</time>
</trkpt>
<trkpt lat="31.8376200" lon="35.0160000">
<ele>364.839996</ele>
<time>2021-05-07T13:53:03.610Z</time>
</trkpt>
<trkpt lat="31.8376500" lon="35.0158300">
<ele>364.700012</ele>
<time>2021-05-07T13:53:03.610Z</time>
</trkpt>
<trkpt lat="31.8376800" lon="35.0150800">
<ele>361.960022</ele>
<time>2021-05-07T13:53:03.610Z</time>
</trkpt>
<trkpt lat="31.8376400" lon="35.0140400">
<ele>355.370026</ele>
<time>2021-05-07T13:53:03.610Z</time>
</trkpt>
<trkpt lat="31.8375900" lon="35.0130200">
<ele>348.209991</ele>
<time>2021-05-07T13:53:03.610Z</time>
</trkpt>
<trkpt lat="31.8374900" lon="35.0120000">
<ele>342.000000</ele>
<time>2021-05-07T13:53:03.610Z</time>
</trkpt>
<trkpt lat="31.8374600" lon="35.0116500">
<ele>342.279968</ele>
<time>2021-05-07T13:53:03.610Z</time>
</trkpt>
<trkpt lat="31.8374400" lon="35.0111600">
<ele>338.469971</ele>
<time>2021-05-07T13:53:03.610Z</time>
</trkpt>
<trkpt lat="31.8374200" lon="35.0107500">
<ele>338.369995</ele>
<time>2021-05-07T13:53:03.610Z</time>
</trkpt>
<trkpt lat="31.8374300" lon="35.0102900">
<ele>338.279999</ele>
<time>2021-05-07T13:53:03.610Z</time>
</trkpt>
<trkpt lat="31.8374500" lon="35.0100300">
<ele>337.579987</ele>
<time>2021-05-07T13:53:03.610Z</time>
</trkpt>
<trkpt lat="31.8377000" lon="35.0090900">
<ele>327.080017</ele>
<time>2021-05-07T13:53:03.610Z</time>
</trkpt>
<trkpt lat="31.8381600" lon="35.0077500">
<ele>309.529999</ele>
<time>2021-05-07T13:53:03.610Z</time>
</trkpt>
<trkpt lat="31.8382100" lon="35.0072600">
<ele>307.500000</ele>
<time>2021-05-07T13:53:03.610Z</time>
</trkpt>
<trkpt lat="31.8382200" lon="35.0068200">
<ele>305.690002</ele>
<time>2021-05-07T13:53:03.610Z</time>
</trkpt>
<trkpt lat="31.8382000" lon="35.0065300">
<ele>304.510010</ele>
<time>2021-05-07T13:53:03.610Z</time>
</trkpt>
<trkpt lat="31.8380600" lon="35.0060800">
<ele>306.980011</ele>
<time>2021-05-07T13:53:03.610Z</time>
</trkpt>
<trkpt lat="31.8378900" lon="35.0058100">
<ele>306.220001</ele>
<time>2021-05-07T13:53:03.611Z</time>
</trkpt>
<trkpt lat="31.8378000" lon="35.0057100">
<ele>306.580017</ele>
<time>2021-05-07T13:53:03.611Z</time>
</trkpt>
<trkpt lat="31.8373400" lon="35.0051300">
<ele>301.820007</ele>
<time>2021-05-07T13:53:03.611Z</time>
</trkpt>
<trkpt lat="31.8372600" lon="35.0049600">
<ele>299.380005</ele>
<time>2021-05-07T13:53:03.611Z</time>
</trkpt>
<trkpt lat="31.8372400" lon="35.0048900">
<ele>298.369995</ele>
<time>2021-05-07T13:53:03.611Z</time>
</trkpt>
<trkpt lat="31.8372400" lon="35.0048000">
<ele>297.029999</ele>
<time>2021-05-07T13:53:03.611Z</time>
</trkpt>
<trkpt lat="31.8372400" lon="35.0045700">
<ele>298.369995</ele>
<time>2021-05-07T13:53:03.611Z</time>
</trkpt>
<trkpt lat="31.8372500" lon="35.0044700">
<ele>299.699982</ele>
<time>2021-05-07T13:53:03.611Z</time>
</trkpt>
<trkpt lat="31.8373200" lon="35.0042600">
<ele>300.959991</ele>
<time>2021-05-07T13:53:03.611Z</time>
</trkpt>
<trkpt lat="31.8375500" lon="35.0038400">
<ele>300.059998</ele>
<time>2021-05-07T13:53:03.611Z</time>
</trkpt>
<trkpt lat="31.8375900" lon="35.0037100">
<ele>299.489990</ele>
<time>2021-05-07T13:53:03.611Z</time>
</trkpt>
<trkpt lat="31.8375900" lon="35.0035800">
<ele>299.839996</ele>
<time>2021-05-07T13:53:03.611Z</time>
</trkpt>
<trkpt lat="31.8375900" lon="35.0033200">
<ele>300.720001</ele>
<time>2021-05-07T13:53:03.611Z</time>
</trkpt>
<trkpt lat="31.8375900" lon="35.0031300">
<ele>300.489990</ele>
<time>2021-05-07T13:53:03.611Z</time>
</trkpt>
<trkpt lat="31.8374600" lon="35.0025500">
<ele>305.430023</ele>
<time>2021-05-07T13:53:03.611Z</time>
</trkpt>
<trkpt lat="31.8374300" lon="35.0021300">
<ele>304.760010</ele>
<time>2021-05-07T13:53:03.611Z</time>
</trkpt>
<trkpt lat="31.8374300" lon="35.0017800">
<ele>307.619995</ele>
<time>2021-05-07T13:53:03.611Z</time>
</trkpt>
<trkpt lat="31.8374300" lon="35.0016600">
<ele>309.279999</ele>
<time>2021-05-07T13:53:03.611Z</time>
</trkpt>
<trkpt lat="31.8374900" lon="35.0014400">
<ele>309.850006</ele>
<time>2021-05-07T13:53:03.611Z</time>
</trkpt>
<trkpt lat="31.8375800" lon="35.0012900">
<ele>307.610016</ele>
<time>2021-05-07T13:53:03.611Z</time>
</trkpt>
<trkpt lat="31.8383100" lon="35.0004800">
<ele>292.070007</ele>
<time>2021-05-07T13:53:03.611Z</time>
</trkpt>
<trkpt lat="31.8384200" lon="35.0003000">
<ele>289.450012</ele>
<time>2021-05-07T13:53:03.611Z</time>
</trkpt>
<trkpt lat="31.8384900" lon="35.0001700">
<ele>288.209991</ele>
<time>2021-05-07T13:53:03.611Z</time>
</trkpt>
<trkpt lat="31.8387600" lon="34.9993700">
<ele>281.730011</ele>
<time>2021-05-07T13:53:03.611Z</time>
</trkpt>
<trkpt lat="31.8388900" lon="34.9989800">
<ele>279.660004</ele>
<time>2021-05-07T13:53:03.611Z</time>
</trkpt>
<trkpt lat="31.8389300" lon="34.9989000">
<ele>279.230011</ele>
<time>2021-05-07T13:53:03.611Z</time>
</trkpt>
<trkpt lat="31.8393300" lon="34.9976500">
<ele>272.470001</ele>
<time>2021-05-07T13:53:03.611Z</time>
</trkpt>
<trkpt lat="31.8394000" lon="34.9974500">
<ele>272.420013</ele>
<time>2021-05-07T13:53:03.612Z</time>
</trkpt>
<trkpt lat="31.8395700" lon="34.9971800">
<ele>269.830017</ele>
<time>2021-05-07T13:53:03.612Z</time>
</trkpt>
<trkpt lat="31.8398900" lon="34.9967800">
<ele>261.209991</ele>
<time>2021-05-07T13:53:03.612Z</time>
</trkpt>
<trkpt lat="31.8399700" lon="34.9966400">
<ele>259.850006</ele>
<time>2021-05-07T13:53:03.612Z</time>
</trkpt>
<trkpt lat="31.8402200" lon="34.9961500">
<ele>257.220001</ele>
<time>2021-05-07T13:53:03.612Z</time>
</trkpt>
<trkpt lat="31.8404200" lon="34.9958000">
<ele>256.559998</ele>
<time>2021-05-07T13:53:03.612Z</time>
</trkpt>
<trkpt lat="31.8408100" lon="34.9948700">
<ele>243.149994</ele>
<time>2021-05-07T13:53:03.612Z</time>
</trkpt>
<trkpt lat="31.8406800" lon="34.9948100">
<ele>246.899994</ele>
<time>2021-05-07T13:53:03.612Z</time>
</trkpt>
<trkpt lat="31.8406400" lon="34.9947500">
<ele>247.910004</ele>
<time>2021-05-07T13:53:03.612Z</time>
</trkpt>
<trkpt lat="31.8405600" lon="34.9946300">
<ele>249.900009</ele>
<time>2021-05-07T13:53:03.612Z</time>
</trkpt>
<trkpt lat="31.8404200" lon="34.9943700">
<ele>252.169998</ele>
<time>2021-05-07T13:53:03.612Z</time>
</trkpt>
<trkpt lat="31.8399800" lon="34.9938700">
<ele>256.290009</ele>
<time>2021-05-07T13:53:03.612Z</time>
</trkpt>
<trkpt lat="31.8398500" lon="34.9937300">
<ele>258.160004</ele>
<time>2021-05-07T13:53:03.612Z</time>
</trkpt>
<trkpt lat="31.8397900" lon="34.9936800">
<ele>259.019989</ele>
<time>2021-05-07T13:53:03.612Z</time>
</trkpt>
<trkpt lat="31.8397500" lon="34.9936500">
<ele>259.600006</ele>
<time>2021-05-07T13:53:03.612Z</time>
</trkpt>
<trkpt lat="31.8395200" lon="34.9935200">
<ele>259.399994</ele>
<time>2021-05-07T13:53:03.612Z</time>
</trkpt>
<trkpt lat="31.8391600" lon="34.9934100">
<ele>265.040009</ele>
<time>2021-05-07T13:53:03.612Z</time>
</trkpt>
<trkpt lat="31.8391000" lon="34.9933600">
<ele>265.140015</ele>
<time>2021-05-07T13:53:03.612Z</time>
</trkpt>
<trkpt lat="31.8388300" lon="34.9931200">
<ele>262.679993</ele>
<time>2021-05-07T13:53:03.612Z</time>
</trkpt>
<trkpt lat="31.8387300" lon="34.9930900">
<ele>263.640015</ele>
<time>2021-05-07T13:53:03.612Z</time>
</trkpt>
<trkpt lat="31.8386600" lon="34.9930900">
<ele>264.589996</ele>
<time>2021-05-07T13:53:03.612Z</time>
</trkpt>
<trkpt lat="31.8385400" lon="34.9930900">
<ele>264.029999</ele>
<time>2021-05-07T13:53:03.612Z</time>
</trkpt>
<trkpt lat="31.8383200" lon="34.9931300">
<ele>261.100006</ele>
<time>2021-05-07T13:53:03.612Z</time>
</trkpt>
<trkpt lat="31.8380900" lon="34.9932100">
<ele>261.540009</ele>
<time>2021-05-07T13:53:03.612Z</time>
</trkpt>
<trkpt lat="31.8379500" lon="34.9932200">
<ele>261.550018</ele>
<time>2021-05-07T13:53:03.612Z</time>
</trkpt>
<trkpt lat="31.8378600" lon="34.9932200">
<ele>261.670013</ele>
<time>2021-05-07T13:53:03.612Z</time>
</trkpt>
<trkpt lat="31.8376800" lon="34.9932000">
<ele>261.739990</ele>
<time>2021-05-07T13:53:03.613Z</time>
</trkpt>
<trkpt lat="31.8375700" lon="34.9931200">
<ele>260.869995</ele>
<time>2021-05-07T13:53:03.613Z</time>
</trkpt>
<trkpt lat="31.8374600" lon="34.9930000">
<ele>259.630005</ele>
<time>2021-05-07T13:53:03.613Z</time>
</trkpt>
<trkpt lat="31.8373800" lon="34.9929500">
<ele>259.779999</ele>
<time>2021-05-07T13:53:03.613Z</time>
</trkpt>
<trkpt lat="31.8373200" lon="34.9929500">
<ele>260.250000</ele>
<time>2021-05-07T13:53:03.613Z</time>
</trkpt>
<trkpt lat="31.8370200" lon="34.9930300">
<ele>260.339996</ele>
<time>2021-05-07T13:53:03.613Z</time>
</trkpt>
<trkpt lat="31.8369000" lon="34.9930400">
<ele>259.580017</ele>
<time>2021-05-07T13:53:03.613Z</time>
</trkpt>
<trkpt lat="31.8367900" lon="34.9930300">
<ele>258.480011</ele>
<time>2021-05-07T13:53:03.613Z</time>
</trkpt>
<trkpt lat="31.8367500" lon="34.9930100">
<ele>258.179993</ele>
<time>2021-05-07T13:53:03.613Z</time>
</trkpt>
<trkpt lat="31.8367400" lon="34.9929300">
<ele>258.579987</ele>
<time>2021-05-07T13:53:03.613Z</time>
</trkpt>
<trkpt lat="31.8367400" lon="34.9928100">
<ele>259.329987</ele>
<time>2021-05-07T13:53:03.613Z</time>
</trkpt>
<trkpt lat="31.8367400" lon="34.9927300">
<ele>259.269989</ele>
<time>2021-05-07T13:53:03.613Z</time>
</trkpt>
<trkpt lat="31.8367800" lon="34.9924300">
<ele>257.140015</ele>
<time>2021-05-07T13:53:03.613Z</time>
</trkpt>
<trkpt lat="31.8369000" lon="34.9919400">
<ele>250.650009</ele>
<time>2021-05-07T13:53:03.613Z</time>
</trkpt>
<trkpt lat="31.8370100" lon="34.9915200">
<ele>251.490005</ele>
<time>2021-05-07T13:53:03.613Z</time>
</trkpt>
<trkpt lat="31.8371300" lon="34.9911500">
<ele>254.380005</ele>
<time>2021-05-07T13:53:03.613Z</time>
</trkpt>
<trkpt lat="31.8371300" lon="34.9911000">
<ele>255.229996</ele>
<time>2021-05-07T13:53:03.613Z</time>
</trkpt>
<trkpt lat="31.8371000" lon="34.9909900">
<ele>258.579987</ele>
<time>2021-05-07T13:53:03.613Z</time>
</trkpt>
<trkpt lat="31.8368800" lon="34.9907400">
<ele>267.910004</ele>
<time>2021-05-07T13:53:03.613Z</time>
</trkpt>
<trkpt lat="31.8365500" lon="34.9903800">
<ele>271.639984</ele>
<time>2021-05-07T13:53:03.613Z</time>
</trkpt>
<trkpt lat="31.8363600" lon="34.9900200">
<ele>265.019989</ele>
<time>2021-05-07T13:53:03.613Z</time>
</trkpt>
<trkpt lat="31.8363200" lon="34.9899700">
<ele>263.089996</ele>
<time>2021-05-07T13:53:03.613Z</time>
</trkpt>
<trkpt lat="31.8362200" lon="34.9899500">
<ele>261.420013</ele>
<time>2021-05-07T13:53:03.613Z</time>
</trkpt>
<trkpt lat="31.8360800" lon="34.9899400">
<ele>260.250000</ele>
<time>2021-05-07T13:53:03.613Z</time>
</trkpt>
<trkpt lat="31.8359300" lon="34.9899400">
<ele>260.790009</ele>
<time>2021-05-07T13:53:03.613Z</time>
</trkpt>
<trkpt lat="31.8358500" lon="34.9899700">
<ele>261.509979</ele>
<time>2021-05-07T13:53:03.613Z</time>
</trkpt>
<trkpt lat="31.8356200" lon="34.9901800">
<ele>261.660004</ele>
<time>2021-05-07T13:53:03.613Z</time>
</trkpt>
<trkpt lat="31.8355200" lon="34.9903000">
<ele>265.230011</ele>
<time>2021-05-07T13:53:03.613Z</time>
</trkpt>
<trkpt lat="31.8353200" lon="34.9908800">
<ele>274.000000</ele>
<time>2021-05-07T13:53:03.613Z</time>
</trkpt>
<trkpt lat="31.8353100" lon="34.9909800">
<ele>275.410004</ele>
<time>2021-05-07T13:53:03.614Z</time>
</trkpt>
<trkpt lat="31.8353000" lon="34.9910200">
<ele>275.899994</ele>
<time>2021-05-07T13:53:03.614Z</time>
</trkpt>
<trkpt lat="31.8353000" lon="34.9914900">
<ele>280.859985</ele>
<time>2021-05-07T13:53:03.614Z</time>
</trkpt>
<trkpt lat="31.8353000" lon="34.9916200">
<ele>282.730011</ele>
<time>2021-05-07T13:53:03.614Z</time>
</trkpt>
<trkpt lat="31.8353000" lon="34.9919200">
<ele>287.739990</ele>
<time>2021-05-07T13:53:03.614Z</time>
</trkpt>
<trkpt lat="31.8353100" lon="34.9920500">
<ele>289.279999</ele>
<time>2021-05-07T13:53:03.614Z</time>
</trkpt>
<trkpt lat="31.8353500" lon="34.9921500">
<ele>290.360016</ele>
<time>2021-05-07T13:53:03.614Z</time>
</trkpt>
<trkpt lat="31.8353700" lon="34.9921800">
<ele>290.640015</ele>
<time>2021-05-07T13:53:03.614Z</time>
</trkpt>
<trkpt lat="31.8354300" lon="34.9922400">
<ele>290.960022</ele>
<time>2021-05-07T13:53:03.614Z</time>
</trkpt>
<trkpt lat="31.8355800" lon="34.9923100">
<ele>290.070007</ele>
<time>2021-05-07T13:53:03.614Z</time>
</trkpt>
<trkpt lat="31.8356200" lon="34.9924300">
<ele>288.630005</ele>
<time>2021-05-07T13:53:03.614Z</time>
</trkpt>
<trkpt lat="31.8356200" lon="34.9925500">
<ele>288.329987</ele>
<time>2021-05-07T13:53:03.614Z</time>
</trkpt>
<trkpt lat="31.8355700" lon="34.9926300">
<ele>289.610016</ele>
<time>2021-05-07T13:53:03.614Z</time>
</trkpt>
<trkpt lat="31.8355300" lon="34.9926900">
<ele>290.339996</ele>
<time>2021-05-07T13:53:03.614Z</time>
</trkpt>
<trkpt lat="31.8353400" lon="34.9932300">
<ele>295.929993</ele>
<time>2021-05-07T13:53:03.614Z</time>
</trkpt>
<trkpt lat="31.8352700" lon="34.9934100">
<ele>298.119995</ele>
<time>2021-05-07T13:53:03.614Z</time>
</trkpt>
<trkpt lat="31.8352200" lon="34.9936500">
<ele>298.790009</ele>
<time>2021-05-07T13:53:03.614Z</time>
</trkpt>
<trkpt lat="31.8352200" lon="34.9937600">
<ele>298.079987</ele>
<time>2021-05-07T13:53:03.614Z</time>
</trkpt>
<trkpt lat="31.8350500" lon="34.9942300">
<ele>300.140015</ele>
<time>2021-05-07T13:53:03.614Z</time>
</trkpt>
<trkpt lat="31.8349900" lon="34.9943900">
<ele>301.540009</ele>
<time>2021-05-07T13:53:03.614Z</time>
</trkpt>
<trkpt lat="31.8350700" lon="34.9949700">
<ele>301.529999</ele>
<time>2021-05-07T13:53:03.614Z</time>
</trkpt>
<trkpt lat="31.8351500" lon="34.9953300">
<ele>299.450012</ele>
<time>2021-05-07T13:53:03.614Z</time>
</trkpt>
<trkpt lat="31.8352200" lon="34.9955600">
<ele>297.559998</ele>
<time>2021-05-07T13:53:03.614Z</time>
</trkpt>
<trkpt lat="31.8352300" lon="34.9957500">
<ele>296.839996</ele>
<time>2021-05-07T13:53:03.614Z</time>
</trkpt>
<trkpt lat="31.8352400" lon="34.9961700">
<ele>293.089996</ele>
<time>2021-05-07T13:53:03.614Z</time>
</trkpt>
<trkpt lat="31.8352600" lon="34.9963200">
<ele>291.619995</ele>
<time>2021-05-07T13:53:03.615Z</time>
</trkpt>
<trkpt lat="31.8353700" lon="34.9964200">
<ele>291.260010</ele>
<time>2021-05-07T13:53:03.615Z</time>
</trkpt>
<trkpt lat="31.8354700" lon="34.9964600">
<ele>291.889984</ele>
<time>2021-05-07T13:53:03.615Z</time>
</trkpt>
<trkpt lat="31.8356800" lon="34.9966300">
<ele>294.690002</ele>
<time>2021-05-07T13:53:03.615Z</time>
</trkpt>
<trkpt lat="31.8357500" lon="34.9967100">
<ele>295.869995</ele>
<time>2021-05-07T13:53:03.615Z</time>
</trkpt>
<trkpt lat="31.8360300" lon="34.9971500">
<ele>301.429993</ele>
<time>2021-05-07T13:53:03.615Z</time>
</trkpt>
<trkpt lat="31.8360700" lon="34.9973100">
<ele>301.000000</ele>
<time>2021-05-07T13:53:03.615Z</time>
</trkpt>
<trkpt lat="31.8360600" lon="34.9974000">
<ele>299.520020</ele>
<time>2021-05-07T13:53:03.615Z</time>
</trkpt>
<trkpt lat="31.8357900" lon="34.9981700">
<ele>293.950012</ele>
<time>2021-05-07T13:53:03.615Z</time>
</trkpt>
<trkpt lat="31.8357300" lon="34.9982500">
<ele>294.920013</ele>
<time>2021-05-07T13:53:03.615Z</time>
</trkpt>
<trkpt lat="31.8356100" lon="34.9982800">
<ele>295.920013</ele>
<time>2021-05-07T13:53:03.615Z</time>
</trkpt>
<trkpt lat="31.8355300" lon="34.9982700">
<ele>296.270020</ele>
<time>2021-05-07T13:53:03.615Z</time>
</trkpt>
<trkpt lat="31.8353700" lon="34.9982300">
<ele>296.850006</ele>
<time>2021-05-07T13:53:03.615Z</time>
</trkpt>
<trkpt lat="31.8352300" lon="34.9981400">
<ele>297.319977</ele>
<time>2021-05-07T13:53:03.615Z</time>
</trkpt>
<trkpt lat="31.8349600" lon="34.9978400">
<ele>297.899994</ele>
<time>2021-05-07T13:53:03.615Z</time>
</trkpt>
<trkpt lat="31.8348800" lon="34.9977700">
<ele>298.020020</ele>
<time>2021-05-07T13:53:03.615Z</time>
</trkpt>
<trkpt lat="31.8348300" lon="34.9977500">
<ele>298.539978</ele>
<time>2021-05-07T13:53:03.615Z</time>
</trkpt>
<trkpt lat="31.8343500" lon="34.9977400">
<ele>289.820007</ele>
<time>2021-05-07T13:53:03.615Z</time>
</trkpt>
<trkpt lat="31.8342900" lon="34.9977300">
<ele>288.489990</ele>
<time>2021-05-07T13:53:03.615Z</time>
</trkpt>
<trkpt lat="31.8336100" lon="34.9977300">
<ele>282.670013</ele>
<time>2021-05-07T13:53:03.615Z</time>
</trkpt>
<trkpt lat="31.8333600" lon="34.9977200">
<ele>286.579987</ele>
<time>2021-05-07T13:53:03.615Z</time>
</trkpt>
<trkpt lat="31.8332800" lon="34.9976800">
<ele>286.799988</ele>
<time>2021-05-07T13:53:03.615Z</time>
</trkpt>
<trkpt lat="31.8331800" lon="34.9974500">
<ele>285.639984</ele>
<time>2021-05-07T13:53:03.615Z</time>
</trkpt>
<trkpt lat="31.8331100" lon="34.9973600">
<ele>285.800018</ele>
<time>2021-05-07T13:53:03.615Z</time>
</trkpt>
<trkpt lat="31.8328900" lon="34.9972300">
<ele>285.769989</ele>
<time>2021-05-07T13:53:03.615Z</time>
</trkpt>
<trkpt lat="31.8327800" lon="34.9971700">
<ele>285.010010</ele>
<time>2021-05-07T13:53:03.615Z</time>
</trkpt>
<trkpt lat="31.8325200" lon="34.9969400">
<ele>283.010010</ele>
<time>2021-05-07T13:53:03.615Z</time>
</trkpt>
<trkpt lat="31.8324700" lon="34.9969100">
<ele>281.829987</ele>
<time>2021-05-07T13:53:03.616Z</time>
</trkpt>
<trkpt lat="31.8323700" lon="34.9969000">
<ele>281.009979</ele>
<time>2021-05-07T13:53:03.616Z</time>
</trkpt>
<trkpt lat="31.8319400" lon="34.9968500">
<ele>277.970001</ele>
<time>2021-05-07T13:53:03.616Z</time>
</trkpt>
<trkpt lat="31.8314400" lon="34.9966800">
<ele>279.519989</ele>
<time>2021-05-07T13:53:03.616Z</time>
</trkpt>
<trkpt lat="31.8310700" lon="34.9965100">
<ele>274.339996</ele>
<time>2021-05-07T13:53:03.616Z</time>
</trkpt>
<trkpt lat="31.8306800" lon="34.9964400">
<ele>263.769989</ele>
<time>2021-05-07T13:53:03.616Z</time>
</trkpt>
<trkpt lat="31.8304100" lon="34.9964500">
<ele>256.880005</ele>
<time>2021-05-07T13:53:03.616Z</time>
</trkpt>
<trkpt lat="31.8302700" lon="34.9964800">
<ele>253.669998</ele>
<time>2021-05-07T13:53:03.616Z</time>
</trkpt>
<trkpt lat="31.8299500" lon="34.9965200">
<ele>254.919998</ele>
<time>2021-05-07T13:53:03.616Z</time>
</trkpt>
<trkpt lat="31.8297400" lon="34.9966100">
<ele>257.410004</ele>
<time>2021-05-07T13:53:03.616Z</time>
</trkpt>
<trkpt lat="31.8294400" lon="34.9968000">
<ele>263.419983</ele>
<time>2021-05-07T13:53:03.616Z</time>
</trkpt>
<trkpt lat="31.8292800" lon="34.9968700">
<ele>263.170013</ele>
<time>2021-05-07T13:53:03.616Z</time>
</trkpt>
<trkpt lat="31.8292200" lon="34.9968900">
<ele>262.949982</ele>
<time>2021-05-07T13:53:03.616Z</time>
</trkpt>
<trkpt lat="31.8290000" lon="34.9968900">
<ele>263.570007</ele>
<time>2021-05-07T13:53:03.616Z</time>
</trkpt>
<trkpt lat="31.8288600" lon="34.9969200">
<ele>264.839996</ele>
<time>2021-05-07T13:53:03.616Z</time>
</trkpt>
<trkpt lat="31.8287100" lon="34.9970800">
<ele>268.730011</ele>
<time>2021-05-07T13:53:03.616Z</time>
</trkpt>
<trkpt lat="31.8283800" lon="34.9974800">
<ele>272.290009</ele>
<time>2021-05-07T13:53:03.616Z</time>
</trkpt>
<trkpt lat="31.8282800" lon="34.9976900">
<ele>273.839996</ele>
<time>2021-05-07T13:53:03.616Z</time>
</trkpt>
<trkpt lat="31.8282300" lon="34.9978900">
<ele>276.010010</ele>
<time>2021-05-07T13:53:03.616Z</time>
</trkpt>
<trkpt lat="31.8282300" lon="34.9980100">
<ele>278.010010</ele>
<time>2021-05-07T13:53:03.616Z</time>
</trkpt>
<trkpt lat="31.8282300" lon="34.9981300">
<ele>279.839996</ele>
<time>2021-05-07T13:53:03.616Z</time>
</trkpt>
<trkpt lat="31.8282400" lon="34.9982500">
<ele>281.779999</ele>
<time>2021-05-07T13:53:03.616Z</time>
</trkpt>
<trkpt lat="31.8282900" lon="34.9984000">
<ele>284.779999</ele>
<time>2021-05-07T13:53:03.616Z</time>
</trkpt>
<trkpt lat="31.8283800" lon="34.9986000">
<ele>288.880005</ele>
<time>2021-05-07T13:53:03.616Z</time>
</trkpt>
<trkpt lat="31.8285500" lon="34.9988800">
<ele>293.859985</ele>
<time>2021-05-07T13:53:03.616Z</time>
</trkpt>
<trkpt lat="31.8286200" lon="34.9989600">
<ele>294.820007</ele>
<time>2021-05-07T13:53:03.616Z</time>
</trkpt>
<trkpt lat="31.8286700" lon="34.9990100">
<ele>295.019989</ele>
<time>2021-05-07T13:53:03.616Z</time>
</trkpt>
<trkpt lat="31.8289800" lon="34.9991400">
<ele>294.929993</ele>
<time>2021-05-07T13:53:03.616Z</time>
</trkpt>
<trkpt lat="31.8291200" lon="34.9992400">
<ele>293.459991</ele>
<time>2021-05-07T13:53:03.617Z</time>
</trkpt>
<trkpt lat="31.8296100" lon="34.9999300">
<ele>291.329987</ele>
<time>2021-05-07T13:53:03.617Z</time>
</trkpt>
<trkpt lat="31.8298400" lon="35.0002200">
<ele>292.500000</ele>
<time>2021-05-07T13:53:03.617Z</time>
</trkpt>
<trkpt lat="31.8299200" lon="35.0003800">
<ele>292.429993</ele>
<time>2021-05-07T13:53:03.617Z</time>
</trkpt>
<trkpt lat="31.8299900" lon="35.0005100">
<ele>293.080017</ele>
<time>2021-05-07T13:53:03.617Z</time>
</trkpt>
<trkpt lat="31.8300800" lon="35.0006200">
<ele>293.919983</ele>
<time>2021-05-07T13:53:03.617Z</time>
</trkpt>
<trkpt lat="31.8304400" lon="35.0009300">
<ele>297.389984</ele>
<time>2021-05-07T13:53:03.617Z</time>
</trkpt>
<trkpt lat="31.8308600" lon="35.0012300">
<ele>300.200012</ele>
<time>2021-05-07T13:53:03.617Z</time>
</trkpt>
<trkpt lat="31.8312100" lon="35.0015200">
<ele>297.799988</ele>
<time>2021-05-07T13:53:03.617Z</time>
</trkpt>
<trkpt lat="31.8312600" lon="35.0015500">
<ele>296.679993</ele>
<time>2021-05-07T13:53:03.617Z</time>
</trkpt>
<trkpt lat="31.8315400" lon="35.0016500">
<ele>295.809998</ele>
<time>2021-05-07T13:53:03.617Z</time>
</trkpt>
<trkpt lat="31.8318200" lon="35.0018500">
<ele>292.040009</ele>
<time>2021-05-07T13:53:03.617Z</time>
</trkpt>
<trkpt lat="31.8320000" lon="35.0019900">
<ele>291.049988</ele>
<time>2021-05-07T13:53:03.617Z</time>
</trkpt>
<trkpt lat="31.8321000" lon="35.0021600">
<ele>290.230011</ele>
<time>2021-05-07T13:53:03.617Z</time>
</trkpt>
<trkpt lat="31.8321000" lon="35.0022300">
<ele>289.290009</ele>
<time>2021-05-07T13:53:03.617Z</time>
</trkpt>
<trkpt lat="31.8321000" lon="35.0023100">
<ele>288.589996</ele>
<time>2021-05-07T13:53:03.617Z</time>
</trkpt>
<trkpt lat="31.8321000" lon="35.0023400">
<ele>288.329987</ele>
<time>2021-05-07T13:53:03.617Z</time>
</trkpt>
<trkpt lat="31.8318100" lon="35.0025200">
<ele>280.360016</ele>
<time>2021-05-07T13:53:03.617Z</time>
</trkpt>
<trkpt lat="31.8317900" lon="35.0025900">
<ele>279.279999</ele>
<time>2021-05-07T13:53:03.617Z</time>
</trkpt>
<trkpt lat="31.8317800" lon="35.0026700">
<ele>278.320007</ele>
<time>2021-05-07T13:53:03.617Z</time>
</trkpt>
<trkpt lat="31.8317800" lon="35.0028000">
<ele>276.850006</ele>
<time>2021-05-07T13:53:03.617Z</time>
</trkpt>
<trkpt lat="31.8318200" lon="35.0029000">
<ele>275.359985</ele>
<time>2021-05-07T13:53:03.617Z</time>
</trkpt>
<trkpt lat="31.8318700" lon="35.0029400">
<ele>274.730011</ele>
<time>2021-05-07T13:53:03.617Z</time>
</trkpt>
<trkpt lat="31.8320600" lon="35.0029600">
<ele>276.089996</ele>
<time>2021-05-07T13:53:03.617Z</time>
</trkpt>
<trkpt lat="31.8321200" lon="35.0030000">
<ele>275.679993</ele>
<time>2021-05-07T13:53:03.617Z</time>
</trkpt>
<trkpt lat="31.8321800" lon="35.0030400">
<ele>275.079987</ele>
<time>2021-05-07T13:53:03.617Z</time>
</trkpt>
<trkpt lat="31.8322100" lon="35.0031200">
<ele>273.250000</ele>
<time>2021-05-07T13:53:03.617Z</time>
</trkpt>
<trkpt lat="31.8323100" lon="35.0034500">
<ele>268.799988</ele>
<time>2021-05-07T13:53:03.617Z</time>
</trkpt>
<trkpt lat="31.8323300" lon="35.0036100">
<ele>267.500000</ele>
<time>2021-05-07T13:53:03.617Z</time>
</trkpt>
<trkpt lat="31.8323300" lon="35.0036900">
<ele>267.559998</ele>
<time>2021-05-07T13:53:03.617Z</time>
</trkpt>
<trkpt lat="31.8323300" lon="35.0037600">
<ele>267.609985</ele>
<time>2021-05-07T13:53:03.617Z</time>
</trkpt>
<trkpt lat="31.8321500" lon="35.0041300">
<ele>264.190002</ele>
<time>2021-05-07T13:53:03.617Z</time>
</trkpt>
<trkpt lat="31.8321200" lon="35.0042800">
<ele>264.299988</ele>
<time>2021-05-07T13:53:03.618Z</time>
</trkpt>
<trkpt lat="31.8321100" lon="35.0044000">
<ele>264.630005</ele>
<time>2021-05-07T13:53:03.618Z</time>
</trkpt>
<trkpt lat="31.8321200" lon="35.0047100">
<ele>263.940002</ele>
<time>2021-05-07T13:53:03.618Z</time>
</trkpt>
<trkpt lat="31.8321100" lon="35.0049200">
<ele>264.919983</ele>
<time>2021-05-07T13:53:03.618Z</time>
</trkpt>
<trkpt lat="31.8320800" lon="35.0050200">
<ele>265.239990</ele>
<time>2021-05-07T13:53:03.618Z</time>
</trkpt>
<trkpt lat="31.8319500" lon="35.0050600">
<ele>263.940002</ele>
<time>2021-05-07T13:53:03.618Z</time>
</trkpt>
<trkpt lat="31.8318600" lon="35.0049500">
<ele>264.529999</ele>
<time>2021-05-07T13:53:03.618Z</time>
</trkpt>
<trkpt lat="31.8316900" lon="35.0044700">
<ele>264.079987</ele>
<time>2021-05-07T13:53:03.618Z</time>
</trkpt>
<trkpt lat="31.8316000" lon="35.0042900">
<ele>264.959991</ele>
<time>2021-05-07T13:53:03.618Z</time>
</trkpt>
<trkpt lat="31.8314200" lon="35.0040800">
<ele>266.959991</ele>
<time>2021-05-07T13:53:03.618Z</time>
</trkpt>
<trkpt lat="31.8313400" lon="35.0040600">
<ele>267.059998</ele>
<time>2021-05-07T13:53:03.618Z</time>
</trkpt>
<trkpt lat="31.8313100" lon="35.0040600">
<ele>266.949982</ele>
<time>2021-05-07T13:53:03.618Z</time>
</trkpt>
<trkpt lat="31.8313000" lon="35.0041800">
<ele>267.709991</ele>
<time>2021-05-07T13:53:03.618Z</time>
</trkpt>
<trkpt lat="31.8314700" lon="35.0045500">
<ele>267.589996</ele>
<time>2021-05-07T13:53:03.618Z</time>
</trkpt>
<trkpt lat="31.8314900" lon="35.0046600">
<ele>268.100006</ele>
<time>2021-05-07T13:53:03.618Z</time>
</trkpt>
<trkpt lat="31.8314800" lon="35.0050100">
<ele>272.420013</ele>
<time>2021-05-07T13:53:03.618Z</time>
</trkpt>
<trkpt lat="31.8314800" lon="35.0052300">
<ele>273.739990</ele>
<time>2021-05-07T13:53:03.618Z</time>
</trkpt>
<trkpt lat="31.8314600" lon="35.0053900">
<ele>274.369995</ele>
<time>2021-05-07T13:53:03.618Z</time>
</trkpt>
<trkpt lat="31.8314100" lon="35.0054200">
<ele>275.149994</ele>
<time>2021-05-07T13:53:03.618Z</time>
</trkpt>
<trkpt lat="31.8313400" lon="35.0054300">
<ele>276.779999</ele>
<time>2021-05-07T13:53:03.618Z</time>
</trkpt>
<trkpt lat="31.8312800" lon="35.0054300">
<ele>278.410004</ele>
<time>2021-05-07T13:53:03.618Z</time>
</trkpt>
<trkpt lat="31.8311900" lon="35.0053800">
<ele>280.910004</ele>
<time>2021-05-07T13:53:03.618Z</time>
</trkpt>
<trkpt lat="31.8309600" lon="35.0052400">
<ele>284.970001</ele>
<time>2021-05-07T13:53:03.618Z</time>
</trkpt>
<trkpt lat="31.8309100" lon="35.0052400">
<ele>285.660004</ele>
<time>2021-05-07T13:53:03.618Z</time>
</trkpt>
<trkpt lat="31.8308800" lon="35.0052600">
<ele>286.210022</ele>
<time>2021-05-07T13:53:03.618Z</time>
</trkpt>
<trkpt lat="31.8308800" lon="35.0055600">
<ele>288.029999</ele>
<time>2021-05-07T13:53:03.618Z</time>
</trkpt>
<trkpt lat="31.8308700" lon="35.0056300">
<ele>288.779999</ele>
<time>2021-05-07T13:53:03.618Z</time>
</trkpt>
<trkpt lat="31.8307700" lon="35.0056500">
<ele>289.679993</ele>
<time>2021-05-07T13:53:03.618Z</time>
</trkpt>
<trkpt lat="31.8306100" lon="35.0056600">
<ele>289.750000</ele>
<time>2021-05-07T13:53:03.618Z</time>
</trkpt>
<trkpt lat="31.8304200" lon="35.0056700">
<ele>289.050018</ele>
<time>2021-05-07T13:53:03.618Z</time>
</trkpt>
<trkpt lat="31.8302900" lon="35.0057000">
<ele>288.630005</ele>
<time>2021-05-07T13:53:03.618Z</time>
</trkpt>
<trkpt lat="31.8302400" lon="35.0057400">
<ele>288.580017</ele>
<time>2021-05-07T13:53:03.619Z</time>
</trkpt>
<trkpt lat="31.8301600" lon="35.0058300">
<ele>289.100006</ele>
<time>2021-05-07T13:53:03.619Z</time>
</trkpt>
<trkpt lat="31.8301200" lon="35.0058800">
<ele>289.610016</ele>
<time>2021-05-07T13:53:03.619Z</time>
</trkpt>
<trkpt lat="31.8299100" lon="35.0066100">
<ele>296.619995</ele>
<time>2021-05-07T13:53:03.619Z</time>
</trkpt>
<trkpt lat="31.8298400" lon="35.0067500">
<ele>297.169983</ele>
<time>2021-05-07T13:53:03.619Z</time>
</trkpt>
<trkpt lat="31.8297500" lon="35.0069700">
<ele>298.710022</ele>
<time>2021-05-07T13:53:03.619Z</time>
</trkpt>
<trkpt lat="31.8295800" lon="35.0072500">
<ele>299.019989</ele>
<time>2021-05-07T13:53:03.619Z</time>
</trkpt>
<trkpt lat="31.8294700" lon="35.0073600">
<ele>298.619995</ele>
<time>2021-05-07T13:53:03.619Z</time>
</trkpt>
<trkpt lat="31.8293100" lon="35.0074700">
<ele>298.949982</ele>
<time>2021-05-07T13:53:03.619Z</time>
</trkpt>
<trkpt lat="31.8292700" lon="35.0075700">
<ele>300.059998</ele>
<time>2021-05-07T13:53:03.619Z</time>
</trkpt>
<trkpt lat="31.8292700" lon="35.0076400">
<ele>301.000000</ele>
<time>2021-05-07T13:53:03.619Z</time>
</trkpt>
<trkpt lat="31.8292700" lon="35.0077100">
<ele>301.950012</ele>
<time>2021-05-07T13:53:03.619Z</time>
</trkpt>
<trkpt lat="31.8293200" lon="35.0080600">
<ele>307.820007</ele>
<time>2021-05-07T13:53:03.619Z</time>
</trkpt>
<trkpt lat="31.8293300" lon="35.0083100">
<ele>311.600006</ele>
<time>2021-05-07T13:53:03.619Z</time>
</trkpt>
<trkpt lat="31.8293300" lon="35.0085100">
<ele>313.850006</ele>
<time>2021-05-07T13:53:03.619Z</time>
</trkpt>
<trkpt lat="31.8293200" lon="35.0088400">
<ele>316.410004</ele>
<time>2021-05-07T13:53:03.619Z</time>
</trkpt>
<trkpt lat="31.8293100" lon="35.0095800">
<ele>318.789978</ele>
<time>2021-05-07T13:53:03.619Z</time>
</trkpt>
<trkpt lat="31.8293100" lon="35.0099100">
<ele>319.880005</ele>
<time>2021-05-07T13:53:03.619Z</time>
</trkpt>
<trkpt lat="31.8293300" lon="35.0102900">
<ele>320.799988</ele>
<time>2021-05-07T13:53:03.619Z</time>
</trkpt>
<trkpt lat="31.8294700" lon="35.0108800">
<ele>322.629974</ele>
<time>2021-05-07T13:53:03.619Z</time>
</trkpt>
<trkpt lat="31.8294700" lon="35.0109900">
<ele>322.589996</ele>
<time>2021-05-07T13:53:03.619Z</time>
</trkpt>
<trkpt lat="31.8294700" lon="35.0111500">
<ele>322.549988</ele>
<time>2021-05-07T13:53:03.619Z</time>
</trkpt>
<trkpt lat="31.8294400" lon="35.0112900">
<ele>321.940002</ele>
<time>2021-05-07T13:53:03.619Z</time>
</trkpt>
<trkpt lat="31.8292400" lon="35.0115400">
<ele>318.510010</ele>
<time>2021-05-07T13:53:03.619Z</time>
</trkpt>
<trkpt lat="31.8290700" lon="35.0119300">
<ele>313.320007</ele>
<time>2021-05-07T13:53:03.619Z</time>
</trkpt>
<trkpt lat="31.8289600" lon="35.0121400">
<ele>308.820007</ele>
<time>2021-05-07T13:53:03.619Z</time>
</trkpt>
<trkpt lat="31.8287000" lon="35.0125100">
<ele>301.679993</ele>
<time>2021-05-07T13:53:03.619Z</time>
</trkpt>
<trkpt lat="31.8285000" lon="35.0127700">
<ele>298.989990</ele>
<time>2021-05-07T13:53:03.619Z</time>
</trkpt>
<trkpt lat="31.8283500" lon="35.0130600">
<ele>296.209991</ele>
<time>2021-05-07T13:53:03.619Z</time>
</trkpt>
<trkpt lat="31.8283200" lon="35.0131600">
<ele>295.119995</ele>
<time>2021-05-07T13:53:03.619Z</time>
</trkpt>
<trkpt lat="31.8283000" lon="35.0132700">
<ele>294.190002</ele>
<time>2021-05-07T13:53:03.619Z</time>
</trkpt>
<trkpt lat="31.8283000" lon="35.0135500">
<ele>293.169983</ele>
<time>2021-05-07T13:53:03.620Z</time>
</trkpt>
<trkpt lat="31.8283600" lon="35.0138900">
<ele>290.179993</ele>
<time>2021-05-07T13:53:03.620Z</time>
</trkpt>
<trkpt lat="31.8284100" lon="35.0141400">
<ele>288.839996</ele>
<time>2021-05-07T13:53:03.620Z</time>
</trkpt>
<trkpt lat="31.8284100" lon="35.0144000">
<ele>289.350006</ele>
<time>2021-05-07T13:53:03.620Z</time>
</trkpt>
<trkpt lat="31.8283200" lon="35.0145300">
<ele>286.750000</ele>
<time>2021-05-07T13:53:03.620Z</time>
</trkpt>
<trkpt lat="31.8282500" lon="35.0146100">
<ele>285.320007</ele>
<time>2021-05-07T13:53:03.620Z</time>
</trkpt>
<trkpt lat="31.8281600" lon="35.0146900">
<ele>283.329987</ele>
<time>2021-05-07T13:53:03.620Z</time>
</trkpt>
<trkpt lat="31.8278500" lon="35.0147700">
<ele>275.859985</ele>
<time>2021-05-07T13:53:03.620Z</time>
</trkpt>
<trkpt lat="31.8278100" lon="35.0149000">
<ele>274.889984</ele>
<time>2021-05-07T13:53:03.620Z</time>
</trkpt>
<trkpt lat="31.8276800" lon="35.0152900">
<ele>274.980011</ele>
<time>2021-05-07T13:53:03.620Z</time>
</trkpt>
<trkpt lat="31.8275800" lon="35.0154800">
<ele>274.180023</ele>
<time>2021-05-07T13:53:03.620Z</time>
</trkpt>
<trkpt lat="31.8274800" lon="35.0156000">
<ele>273.059998</ele>
<time>2021-05-07T13:53:03.620Z</time>
</trkpt>
<trkpt lat="31.8273700" lon="35.0156700">
<ele>272.339996</ele>
<time>2021-05-07T13:53:03.620Z</time>
</trkpt>
<trkpt lat="31.8272000" lon="35.0157400">
<ele>271.660004</ele>
<time>2021-05-07T13:53:03.620Z</time>
</trkpt>
<trkpt lat="31.8270600" lon="35.0155600">
<ele>269.059998</ele>
<time>2021-05-07T13:53:03.620Z</time>
</trkpt>
<trkpt lat="31.8269600" lon="35.0154500">
<ele>268.619995</ele>
<time>2021-05-07T13:53:03.620Z</time>
</trkpt>
<trkpt lat="31.8268600" lon="35.0154100">
<ele>268.330017</ele>
<time>2021-05-07T13:53:03.620Z</time>
</trkpt>
<trkpt lat="31.8264800" lon="35.0153800">
<ele>264.639984</ele>
<time>2021-05-07T13:53:03.620Z</time>
</trkpt>
<trkpt lat="31.8263400" lon="35.0153800">
<ele>262.360016</ele>
<time>2021-05-07T13:53:03.620Z</time>
</trkpt>
<trkpt lat="31.8262100" lon="35.0153800">
<ele>260.660004</ele>
<time>2021-05-07T13:53:03.620Z</time>
</trkpt>
<trkpt lat="31.8258400" lon="35.0155100">
<ele>259.019989</ele>
<time>2021-05-07T13:53:03.620Z</time>
</trkpt>
<trkpt lat="31.8253700" lon="35.0157800">
<ele>260.000000</ele>
<time>2021-05-07T13:53:03.620Z</time>
</trkpt>
<trkpt lat="31.8252900" lon="35.0157800">
<ele>260.000000</ele>
<time>2021-05-07T13:53:03.620Z</time>
</trkpt>
<trkpt lat="31.8247500" lon="35.0151900">
<ele>260.130005</ele>
<time>2021-05-07T13:53:03.620Z</time>
</trkpt>
<trkpt lat="31.8243700" lon="35.0147100">
<ele>259.959991</ele>
<time>2021-05-07T13:53:03.620Z</time>
</trkpt>
<trkpt lat="31.8242500" lon="35.0146300">
<ele>259.669983</ele>
<time>2021-05-07T13:53:03.620Z</time>
</trkpt>
<trkpt lat="31.8238400" lon="35.0144400">
<ele>255.620010</ele>
<time>2021-05-07T13:53:03.620Z</time>
</trkpt>
<trkpt lat="31.8237400" lon="35.0144400">
<ele>254.899994</ele>
<time>2021-05-07T13:53:03.620Z</time>
</trkpt>
<trkpt lat="31.8237100" lon="35.0144400">
<ele>254.690002</ele>
<time>2021-05-07T13:53:03.621Z</time>
</trkpt>
<trkpt lat="31.8236700" lon="35.0145200">
<ele>254.479996</ele>
<time>2021-05-07T13:53:03.621Z</time>
</trkpt>
<trkpt lat="31.8236200" lon="35.0148700">
<ele>254.100006</ele>
<time>2021-05-07T13:53:03.621Z</time>
</trkpt>
<trkpt lat="31.8235900" lon="35.0149400">
<ele>253.919998</ele>
<time>2021-05-07T13:53:03.621Z</time>
</trkpt>
<trkpt lat="31.8233500" lon="35.0153400">
<ele>253.549988</ele>
<time>2021-05-07T13:53:03.621Z</time>
</trkpt>
<trkpt lat="31.8232200" lon="35.0156000">
<ele>254.369995</ele>
<time>2021-05-07T13:53:03.621Z</time>
</trkpt>
<trkpt lat="31.8230700" lon="35.0160000">
<ele>253.780014</ele>
<time>2021-05-07T13:53:03.621Z</time>
</trkpt>
<trkpt lat="31.8230400" lon="35.0161500">
<ele>254.060013</ele>
<time>2021-05-07T13:53:03.621Z</time>
</trkpt>
<trkpt lat="31.8228400" lon="35.0163500">
<ele>254.779999</ele>
<time>2021-05-07T13:53:03.621Z</time>
</trkpt>
<trkpt lat="31.8226500" lon="35.0165600">
<ele>255.000000</ele>
<time>2021-05-07T13:53:03.621Z</time>
</trkpt>
<trkpt lat="31.8225500" lon="35.0167100">
<ele>254.870010</ele>
<time>2021-05-07T13:53:03.621Z</time>
</trkpt>
<trkpt lat="31.8223700" lon="35.0171000">
<ele>254.939987</ele>
<time>2021-05-07T13:53:03.621Z</time>
</trkpt>
<trkpt lat="31.8222400" lon="35.0176400">
<ele>256.940002</ele>
<time>2021-05-07T13:53:03.621Z</time>
</trkpt>
<trkpt lat="31.8221000" lon="35.0183300">
<ele>259.739990</ele>
<time>2021-05-07T13:53:03.621Z</time>
</trkpt>
<trkpt lat="31.8220200" lon="35.0186500">
<ele>262.559998</ele>
<time>2021-05-07T13:53:03.621Z</time>
</trkpt>
<trkpt lat="31.8219900" lon="35.0187400">
<ele>263.059998</ele>
<time>2021-05-07T13:53:03.621Z</time>
</trkpt>
<trkpt lat="31.8217100" lon="35.0196800">
<ele>263.559998</ele>
<time>2021-05-07T13:53:03.621Z</time>
</trkpt>
<trkpt lat="31.8215800" lon="35.0197200">
<ele>263.990021</ele>
<time>2021-05-07T13:53:03.621Z</time>
</trkpt>
<trkpt lat="31.8213300" lon="35.0196700">
<ele>263.479980</ele>
<time>2021-05-07T13:53:03.621Z</time>
</trkpt>
<trkpt lat="31.8210000" lon="35.0194100">
<ele>260.930023</ele>
<time>2021-05-07T13:53:03.621Z</time>
</trkpt>
<trkpt lat="31.8208800" lon="35.0192600">
<ele>259.450012</ele>
<time>2021-05-07T13:53:03.621Z</time>
</trkpt>
<trkpt lat="31.8206700" lon="35.0190800">
<ele>260.250000</ele>
<time>2021-05-07T13:53:03.621Z</time>
</trkpt>
<trkpt lat="31.8204900" lon="35.0188300">
<ele>259.730011</ele>
<time>2021-05-07T13:53:03.621Z</time>
</trkpt>
<trkpt lat="31.8204200" lon="35.0187200">
<ele>259.669983</ele>
<time>2021-05-07T13:53:03.621Z</time>
</trkpt>
<trkpt lat="31.8204000" lon="35.0184100">
<ele>259.040009</ele>
<time>2021-05-07T13:53:03.622Z</time>
</trkpt>
<trkpt lat="31.8203800" lon="35.0181800">
<ele>258.610016</ele>
<time>2021-05-07T13:53:03.622Z</time>
</trkpt>
<trkpt lat="31.8203500" lon="35.0180800">
<ele>258.790009</ele>
<time>2021-05-07T13:53:03.622Z</time>
</trkpt>
<trkpt lat="31.8202900" lon="35.0180200">
<ele>260.170013</ele>
<time>2021-05-07T13:53:03.622Z</time>
</trkpt>
<trkpt lat="31.8196600" lon="35.0176400">
<ele>274.660004</ele>
<time>2021-05-07T13:53:03.622Z</time>
</trkpt>
<trkpt lat="31.8196300" lon="35.0176100">
<ele>274.540009</ele>
<time>2021-05-07T13:53:03.622Z</time>
</trkpt>
<trkpt lat="31.8196300" lon="35.0175600">
<ele>274.600006</ele>
<time>2021-05-07T13:53:03.622Z</time>
</trkpt>
<trkpt lat="31.8196500" lon="35.0174700">
<ele>274.820007</ele>
<time>2021-05-07T13:53:03.622Z</time>
</trkpt>
<trkpt lat="31.8200000" lon="35.0170400">
<ele>273.660004</ele>
<time>2021-05-07T13:53:03.622Z</time>
</trkpt>
<trkpt lat="31.8201800" lon="35.0168900">
<ele>269.199982</ele>
<time>2021-05-07T13:53:03.622Z</time>
</trkpt>
<trkpt lat="31.8204500" lon="35.0167100">
<ele>265.339996</ele>
<time>2021-05-07T13:53:03.622Z</time>
</trkpt>
<trkpt lat="31.8206700" lon="35.0165300">
<ele>263.799988</ele>
<time>2021-05-07T13:53:03.622Z</time>
</trkpt>
<trkpt lat="31.8207900" lon="35.0163800">
<ele>263.860016</ele>
<time>2021-05-07T13:53:03.622Z</time>
</trkpt>
<trkpt lat="31.8208100" lon="35.0162300">
<ele>264.339996</ele>
<time>2021-05-07T13:53:03.622Z</time>
</trkpt>
<trkpt lat="31.8208100" lon="35.0161200">
<ele>264.639984</ele>
<time>2021-05-07T13:53:03.622Z</time>
</trkpt>
<trkpt lat="31.8207900" lon="35.0160000">
<ele>263.700012</ele>
<time>2021-05-07T13:53:03.622Z</time>
</trkpt>
<trkpt lat="31.8207400" lon="35.0159200">
<ele>262.739990</ele>
<time>2021-05-07T13:53:03.622Z</time>
</trkpt>
<trkpt lat="31.8205500" lon="35.0158000">
<ele>261.149994</ele>
<time>2021-05-07T13:53:03.622Z</time>
</trkpt>
<trkpt lat="31.8204600" lon="35.0156700">
<ele>261.670013</ele>
<time>2021-05-07T13:53:03.622Z</time>
</trkpt>
<trkpt lat="31.8204400" lon="35.0156000">
<ele>261.619995</ele>
<time>2021-05-07T13:53:03.622Z</time>
</trkpt>
<trkpt lat="31.8204300" lon="35.0155100">
<ele>261.019989</ele>
<time>2021-05-07T13:53:03.622Z</time>
</trkpt>
<trkpt lat="31.8204300" lon="35.0153700">
<ele>259.419983</ele>
<time>2021-05-07T13:53:03.622Z</time>
</trkpt>
<trkpt lat="31.8204400" lon="35.0152900">
<ele>258.389984</ele>
<time>2021-05-07T13:53:03.622Z</time>
</trkpt>
<trkpt lat="31.8204900" lon="35.0151700">
<ele>258.100006</ele>
<time>2021-05-07T13:53:03.622Z</time>
</trkpt>
<trkpt lat="31.8205600" lon="35.0150800">
<ele>257.720001</ele>
<time>2021-05-07T13:53:03.622Z</time>
</trkpt>
<trkpt lat="31.8206600" lon="35.0150000">
<ele>258.000000</ele>
<time>2021-05-07T13:53:03.622Z</time>
</trkpt>
<trkpt lat="31.8206900" lon="35.0149700">
<ele>258.440002</ele>
<time>2021-05-07T13:53:03.622Z</time>
</trkpt>
<trkpt lat="31.8210100" lon="35.0147900">
<ele>259.929993</ele>
<time>2021-05-07T13:53:03.623Z</time>
</trkpt>
<trkpt lat="31.8211500" lon="35.0146900">
<ele>258.850006</ele>
<time>2021-05-07T13:53:03.623Z</time>
</trkpt>
<trkpt lat="31.8214000" lon="35.0144600">
<ele>253.379990</ele>
<time>2021-05-07T13:53:03.623Z</time>
</trkpt>
<trkpt lat="31.8214900" lon="35.0143300">
<ele>254.530014</ele>
<time>2021-05-07T13:53:03.623Z</time>
</trkpt>
<trkpt lat="31.8216000" lon="35.0140300">
<ele>255.220001</ele>
<time>2021-05-07T13:53:03.623Z</time>
</trkpt>
<trkpt lat="31.8219600" lon="35.0125000">
<ele>254.000000</ele>
<time>2021-05-07T13:53:03.623Z</time>
</trkpt>
<trkpt lat="31.8219700" lon="35.0122400">
<ele>254.850006</ele>
<time>2021-05-07T13:53:03.623Z</time>
</trkpt>
<trkpt lat="31.8219700" lon="35.0121100">
<ele>254.870010</ele>
<time>2021-05-07T13:53:03.623Z</time>
</trkpt>
<trkpt lat="31.8219600" lon="35.0120300">
<ele>254.910004</ele>
<time>2021-05-07T13:53:03.623Z</time>
</trkpt>
<trkpt lat="31.8218500" lon="35.0115700">
<ele>256.359985</ele>
<time>2021-05-07T13:53:03.623Z</time>
</trkpt>
<trkpt lat="31.8216900" lon="35.0108800">
<ele>255.100006</ele>
<time>2021-05-07T13:53:03.623Z</time>
</trkpt>
<trkpt lat="31.8215700" lon="35.0106200">
<ele>256.050018</ele>
<time>2021-05-07T13:53:03.623Z</time>
</trkpt>
<trkpt lat="31.8215200" lon="35.0103900">
<ele>255.730011</ele>
<time>2021-05-07T13:53:03.623Z</time>
</trkpt>
<trkpt lat="31.8215100" lon="35.0102900">
<ele>255.320007</ele>
<time>2021-05-07T13:53:03.623Z</time>
</trkpt>
<trkpt lat="31.8215100" lon="35.0101100">
<ele>254.649994</ele>
<time>2021-05-07T13:53:03.623Z</time>
</trkpt>
<trkpt lat="31.8215200" lon="35.0099200">
<ele>254.570007</ele>
<time>2021-05-07T13:53:03.623Z</time>
</trkpt>
<trkpt lat="31.8215600" lon="35.0098300">
<ele>254.239990</ele>
<time>2021-05-07T13:53:03.623Z</time>
</trkpt>
<trkpt lat="31.8216500" lon="35.0096900">
<ele>252.669998</ele>
<time>2021-05-07T13:53:03.623Z</time>
</trkpt>
<trkpt lat="31.8217400" lon="35.0096100">
<ele>252.070007</ele>
<time>2021-05-07T13:53:03.623Z</time>
</trkpt>
<trkpt lat="31.8223400" lon="35.0091700">
<ele>246.729996</ele>
<time>2021-05-07T13:53:03.623Z</time>
</trkpt>
<trkpt lat="31.8224200" lon="35.0090800">
<ele>246.269989</ele>
<time>2021-05-07T13:53:03.623Z</time>
</trkpt>
<trkpt lat="31.8225600" lon="35.0088800">
<ele>245.799988</ele>
<time>2021-05-07T13:53:03.623Z</time>
</trkpt>
<trkpt lat="31.8228100" lon="35.0081500">
<ele>244.389999</ele>
<time>2021-05-07T13:53:03.623Z</time>
</trkpt>
<trkpt lat="31.8229300" lon="35.0078800">
<ele>245.169998</ele>
<time>2021-05-07T13:53:03.623Z</time>
</trkpt>
<trkpt lat="31.8230200" lon="35.0077100">
<ele>245.260010</ele>
<time>2021-05-07T13:53:03.623Z</time>
</trkpt>
<trkpt lat="31.8239900" lon="35.0061400">
<ele>241.179993</ele>
<time>2021-05-07T13:53:03.623Z</time>
</trkpt>
<trkpt lat="31.8244100" lon="35.0055800">
<ele>234.680008</ele>
<time>2021-05-07T13:53:03.623Z</time>
</trkpt>
<trkpt lat="31.8246000" lon="35.0053500">
<ele>232.669998</ele>
<time>2021-05-07T13:53:03.623Z</time>
</trkpt>
<trkpt lat="31.8248200" lon="35.0049600">
<ele>232.010010</ele>
<time>2021-05-07T13:53:03.623Z</time>
</trkpt>
<trkpt lat="31.8248800" lon="35.0048400">
<ele>232.379990</ele>
<time>2021-05-07T13:53:03.623Z</time>
</trkpt>
<trkpt lat="31.8249300" lon="35.0046600">
<ele>232.330002</ele>
<time>2021-05-07T13:53:03.623Z</time>
</trkpt>
<trkpt lat="31.8249600" lon="35.0045100">
<ele>232.059998</ele>
<time>2021-05-07T13:53:03.624Z</time>
</trkpt>
<trkpt lat="31.8250900" lon="35.0030600">
<ele>228.310013</ele>
<time>2021-05-07T13:53:03.624Z</time>
</trkpt>
<trkpt lat="31.8251000" lon="35.0026100">
<ele>230.490005</ele>
<time>2021-05-07T13:53:03.624Z</time>
</trkpt>
<trkpt lat="31.8250600" lon="35.0022100">
<ele>230.699997</ele>
<time>2021-05-07T13:53:03.624Z</time>
</trkpt>
<trkpt lat="31.8249200" lon="35.0017700">
<ele>229.210007</ele>
<time>2021-05-07T13:53:03.624Z</time>
</trkpt>
<trkpt lat="31.8247000" lon="35.0012300">
<ele>227.049988</ele>
<time>2021-05-07T13:53:03.624Z</time>
</trkpt>
<trkpt lat="31.8247000" lon="35.0012300">
<ele>227.049988</ele>
<time>2021-05-07T13:53:03.624Z</time>
</trkpt>
<trkpt lat="31.8247000" lon="35.0012300">
<ele>227.049988</ele>
<time>2021-05-07T13:53:03.624Z</time>
</trkpt>
<trkpt lat="31.8246800" lon="35.0011700">
<ele>226.759995</ele>
<time>2021-05-07T13:53:03.624Z</time>
</trkpt>
<trkpt lat="31.8244800" lon="35.0007300">
<ele>225.050003</ele>
<time>2021-05-07T13:53:03.624Z</time>
</trkpt>
<trkpt lat="31.8244200" lon="35.0006200">
<ele>224.820007</ele>
<time>2021-05-07T13:53:03.624Z</time>
</trkpt>
<trkpt lat="31.8243800" lon="35.0004900">
<ele>224.509995</ele>
<time>2021-05-07T13:53:03.624Z</time>
</trkpt>
<trkpt lat="31.8241400" lon="34.9998200">
<ele>224.540009</ele>
<time>2021-05-07T13:53:03.624Z</time>
</trkpt>
<trkpt lat="31.8239700" lon="34.9994600">
<ele>226.199997</ele>
<time>2021-05-07T13:53:03.624Z</time>
</trkpt>
<trkpt lat="31.8238700" lon="34.9993000">
<ele>229.100006</ele>
<time>2021-05-07T13:53:03.624Z</time>
</trkpt>
<trkpt lat="31.8235800" lon="34.9989800">
<ele>237.429993</ele>
<time>2021-05-07T13:53:03.624Z</time>
</trkpt>
<trkpt lat="31.8235300" lon="34.9988800">
<ele>237.029999</ele>
<time>2021-05-07T13:53:03.624Z</time>
</trkpt>
<trkpt lat="31.8235200" lon="34.9987900">
<ele>235.770004</ele>
<time>2021-05-07T13:53:03.624Z</time>
</trkpt>
<trkpt lat="31.8235200" lon="34.9987000">
<ele>234.360001</ele>
<time>2021-05-07T13:53:03.624Z</time>
</trkpt>
<trkpt lat="31.8235800" lon="34.9982700">
<ele>227.779999</ele>
<time>2021-05-07T13:53:03.624Z</time>
</trkpt>
<trkpt lat="31.8235600" lon="34.9981400">
<ele>228.289993</ele>
<time>2021-05-07T13:53:03.624Z</time>
</trkpt>
<trkpt lat="31.8234500" lon="34.9978900">
<ele>230.709991</ele>
<time>2021-05-07T13:53:03.624Z</time>
</trkpt>
<trkpt lat="31.8233200" lon="34.9975200">
<ele>232.130005</ele>
<time>2021-05-07T13:53:03.624Z</time>
</trkpt>
<trkpt lat="31.8232000" lon="34.9969500">
<ele>228.480011</ele>
<time>2021-05-07T13:53:03.624Z</time>
</trkpt>
<trkpt lat="31.8232500" lon="34.9965300">
<ele>226.470016</ele>
<time>2021-05-07T13:53:03.624Z</time>
</trkpt>
<trkpt lat="31.8235100" lon="34.9958400">
<ele>220.300003</ele>
<time>2021-05-07T13:53:03.624Z</time>
</trkpt>
<trkpt lat="31.8228300" lon="34.9956900">
<ele>218.460007</ele>
<time>2021-05-07T13:53:03.624Z</time>
</trkpt>
<trkpt lat="31.8225900" lon="34.9955400">
<ele>214.880005</ele>
<time>2021-05-07T13:53:03.624Z</time>
</trkpt>
<trkpt lat="31.8225900" lon="34.9955400">
<ele>214.880005</ele>
<time>2021-05-07T13:53:03.625Z</time>
</trkpt>
<trkpt lat="31.8224800" lon="34.9954700">
<ele>213.499985</ele>
<time>2021-05-07T13:53:03.625Z</time>
</trkpt>
<trkpt lat="31.8221500" lon="34.9955200">
<ele>211.550003</ele>
<time>2021-05-07T13:53:03.625Z</time>
</trkpt>
<trkpt lat="31.8216000" lon="34.9961400">
<ele>209.210007</ele>
<time>2021-05-07T13:53:03.625Z</time>
</trkpt>
<trkpt lat="31.8212900" lon="34.9964000">
<ele>210.010010</ele>
<time>2021-05-07T13:53:03.625Z</time>
</trkpt>
<trkpt lat="31.8211400" lon="34.9964500">
<ele>208.750000</ele>
<time>2021-05-07T13:53:03.625Z</time>
</trkpt>
<trkpt lat="31.8208500" lon="34.9964700">
<ele>215.709991</ele>
<time>2021-05-07T13:53:03.625Z</time>
</trkpt>
<trkpt lat="31.8204600" lon="34.9964000">
<ele>223.589996</ele>
<time>2021-05-07T13:53:03.625Z</time>
</trkpt>
<trkpt lat="31.8199700" lon="34.9962900">
<ele>216.119995</ele>
<time>2021-05-07T13:53:03.625Z</time>
</trkpt>
<trkpt lat="31.8195200" lon="34.9962700">
<ele>217.030014</ele>
<time>2021-05-07T13:53:03.625Z</time>
</trkpt>
<trkpt lat="31.8191700" lon="34.9965700">
<ele>223.259995</ele>
<time>2021-05-07T13:53:03.625Z</time>
</trkpt>
<trkpt lat="31.8191500" lon="34.9964500">
<ele>221.300003</ele>
<time>2021-05-07T13:53:03.625Z</time>
</trkpt>
<trkpt lat="31.8188900" lon="34.9960000">
<ele>222.580002</ele>
<time>2021-05-07T13:53:03.625Z</time>
</trkpt>
<trkpt lat="31.8188400" lon="34.9958300">
<ele>222.550003</ele>
<time>2021-05-07T13:53:03.625Z</time>
</trkpt>
<trkpt lat="31.8188100" lon="34.9957000">
<ele>223.539993</ele>
<time>2021-05-07T13:53:03.625Z</time>
</trkpt>
<trkpt lat="31.8187200" lon="34.9955400">
<ele>224.690002</ele>
<time>2021-05-07T13:53:03.625Z</time>
</trkpt>
<trkpt lat="31.8187200" lon="34.9953700">
<ele>225.539993</ele>
<time>2021-05-07T13:53:03.625Z</time>
</trkpt>
<trkpt lat="31.8187500" lon="34.9952500">
<ele>226.100006</ele>
<time>2021-05-07T13:53:03.625Z</time>
</trkpt>
<trkpt lat="31.8188200" lon="34.9950600">
<ele>228.760010</ele>
<time>2021-05-07T13:53:03.625Z</time>
</trkpt>
<trkpt lat="31.8188100" lon="34.9950500">
<ele>228.589996</ele>
<time>2021-05-07T13:53:03.625Z</time>
</trkpt>
<trkpt lat="31.8188100" lon="34.9950500">
<ele>228.589996</ele>
<time>2021-05-07T13:53:03.625Z</time>
</trkpt>
<trkpt lat="31.8188200" lon="34.9949700">
<ele>230.330002</ele>
<time>2021-05-07T13:53:03.625Z</time>
</trkpt>
<trkpt lat="31.8188200" lon="34.9948400">
<ele>233.839996</ele>
<time>2021-05-07T13:53:03.625Z</time>
</trkpt>
<trkpt lat="31.8188100" lon="34.9947700">
<ele>235.310013</ele>
<time>2021-05-07T13:53:03.625Z</time>
</trkpt>
<trkpt lat="31.8187900" lon="34.9947000">
<ele>236.460007</ele>
<time>2021-05-07T13:53:03.625Z</time>
</trkpt>
<trkpt lat="31.8186800" lon="34.9946000">
<ele>236.039993</ele>
<time>2021-05-07T13:53:03.625Z</time>
</trkpt>
<trkpt lat="31.8185300" lon="34.9945600">
<ele>234.739990</ele>
<time>2021-05-07T13:53:03.625Z</time>
</trkpt>
<trkpt lat="31.8183400" lon="34.9945500">
<ele>233.029999</ele>
<time>2021-05-07T13:53:03.625Z</time>
</trkpt>
<trkpt lat="31.8182800" lon="34.9945200">
<ele>233.649994</ele>
<time>2021-05-07T13:53:03.625Z</time>
</trkpt>
<trkpt lat="31.8181400" lon="34.9945000">
<ele>233.559998</ele>
<time>2021-05-07T13:53:03.625Z</time>
</trkpt>
<trkpt lat="31.8180800" lon="34.9944700">
<ele>233.779999</ele>
<time>2021-05-07T13:53:03.625Z</time>
</trkpt>
<trkpt lat="31.8177900" lon="34.9944200">
<ele>239.410004</ele>
<time>2021-05-07T13:53:03.625Z</time>
</trkpt>
<trkpt lat="31.8176200" lon="34.9943500">
<ele>242.710007</ele>
<time>2021-05-07T13:53:03.626Z</time>
</trkpt>
<trkpt lat="31.8174800" lon="34.9943300">
<ele>244.579987</ele>
<time>2021-05-07T13:53:03.626Z</time>
</trkpt>
<trkpt lat="31.8172800" lon="34.9942300">
<ele>250.339996</ele>
<time>2021-05-07T13:53:03.626Z</time>
</trkpt>
<trkpt lat="31.8172000" lon="34.9941600">
<ele>253.360001</ele>
<time>2021-05-07T13:53:03.626Z</time>
</trkpt>
<trkpt lat="31.8171000" lon="34.9938700">
<ele>258.640015</ele>
<time>2021-05-07T13:53:03.626Z</time>
</trkpt>
<trkpt lat="31.8170500" lon="34.9937100">
<ele>260.549988</ele>
<time>2021-05-07T13:53:03.626Z</time>
</trkpt>
<trkpt lat="31.8170100" lon="34.9936000">
<ele>261.890015</ele>
<time>2021-05-07T13:53:03.626Z</time>
</trkpt>
<trkpt lat="31.8169200" lon="34.9931100">
<ele>265.470001</ele>
<time>2021-05-07T13:53:03.626Z</time>
</trkpt>
<trkpt lat="31.8168300" lon="34.9929400">
<ele>263.100006</ele>
<time>2021-05-07T13:53:03.626Z</time>
</trkpt>
<trkpt lat="31.8167400" lon="34.9929000">
<ele>261.380005</ele>
<time>2021-05-07T13:53:03.626Z</time>
</trkpt>
<trkpt lat="31.8166300" lon="34.9929000">
<ele>259.679993</ele>
<time>2021-05-07T13:53:03.626Z</time>
</trkpt>
<trkpt lat="31.8165600" lon="34.9929100">
<ele>258.529999</ele>
<time>2021-05-07T13:53:03.626Z</time>
</trkpt>
<trkpt lat="31.8164500" lon="34.9929200">
<ele>256.619995</ele>
<time>2021-05-07T13:53:03.626Z</time>
</trkpt>
<trkpt lat="31.8164300" lon="34.9930200">
<ele>256.720001</ele>
<time>2021-05-07T13:53:03.626Z</time>
</trkpt>
<trkpt lat="31.8163200" lon="34.9931800">
<ele>254.939987</ele>
<time>2021-05-07T13:53:03.626Z</time>
</trkpt>
<trkpt lat="31.8162100" lon="34.9933600">
<ele>252.779999</ele>
<time>2021-05-07T13:53:03.626Z</time>
</trkpt>
<trkpt lat="31.8160900" lon="34.9933900">
<ele>250.930008</ele>
<time>2021-05-07T13:53:03.626Z</time>
</trkpt>
<trkpt lat="31.8160200" lon="34.9933900">
<ele>249.419998</ele>
<time>2021-05-07T13:53:03.626Z</time>
</trkpt>
<trkpt lat="31.8159400" lon="34.9933700">
<ele>247.910004</ele>
<time>2021-05-07T13:53:03.626Z</time>
</trkpt>
<trkpt lat="31.8158500" lon="34.9932500">
<ele>247.520004</ele>
<time>2021-05-07T13:53:03.626Z</time>
</trkpt>
<trkpt lat="31.8157600" lon="34.9931600">
<ele>249.679993</ele>
<time>2021-05-07T13:53:03.626Z</time>
</trkpt>
<trkpt lat="31.8153700" lon="34.9930500">
<ele>258.160004</ele>
<time>2021-05-07T13:53:03.626Z</time>
</trkpt>
<trkpt lat="31.8148900" lon="34.9928600">
<ele>262.750000</ele>
<time>2021-05-07T13:53:03.626Z</time>
</trkpt>
<trkpt lat="31.8148600" lon="34.9928700">
<ele>262.329987</ele>
<time>2021-05-07T13:53:03.626Z</time>
</trkpt>
<trkpt lat="31.8148200" lon="34.9928700">
<ele>261.940002</ele>
<time>2021-05-07T13:53:03.626Z</time>
</trkpt>
<trkpt lat="31.8147500" lon="34.9929100">
<ele>260.820007</ele>
<time>2021-05-07T13:53:03.626Z</time>
</trkpt>
<trkpt lat="31.8146400" lon="34.9932800">
<ele>254.990005</ele>
<time>2021-05-07T13:53:03.626Z</time>
</trkpt>
<trkpt lat="31.8145700" lon="34.9934500">
<ele>251.870010</ele>
<time>2021-05-07T13:53:03.626Z</time>
</trkpt>
<trkpt lat="31.8144900" lon="34.9936200">
<ele>248.610001</ele>
<time>2021-05-07T13:53:03.626Z</time>
</trkpt>
<trkpt lat="31.8138100" lon="34.9938300">
<ele>251.539993</ele>
<time>2021-05-07T13:53:03.626Z</time>
</trkpt>
<trkpt lat="31.8133800" lon="34.9940700">
<ele>258.459991</ele>
<time>2021-05-07T13:53:03.626Z</time>
</trkpt>
<trkpt lat="31.8129900" lon="34.9942100">
<ele>251.139999</ele>
<time>2021-05-07T13:53:03.627Z</time>
</trkpt>
<trkpt lat="31.8127300" lon="34.9943000">
<ele>254.610001</ele>
<time>2021-05-07T13:53:03.627Z</time>
</trkpt>
<trkpt lat="31.8125800" lon="34.9943900">
<ele>254.339996</ele>
<time>2021-05-07T13:53:03.627Z</time>
</trkpt>
<trkpt lat="31.8117900" lon="34.9945000">
<ele>258.600006</ele>
<time>2021-05-07T13:53:03.627Z</time>
</trkpt>
<trkpt lat="31.8117900" lon="34.9945000">
<ele>258.600006</ele>
<time>2021-05-07T13:53:03.627Z</time>
</trkpt>
<trkpt lat="31.8117900" lon="34.9945000">
<ele>258.600006</ele>
<time>2021-05-07T13:53:03.627Z</time>
</trkpt>
<trkpt lat="31.8115800" lon="34.9945400">
<ele>259.089996</ele>
<time>2021-05-07T13:53:03.627Z</time>
</trkpt>
<trkpt lat="31.8110100" lon="34.9945500">
<ele>257.059998</ele>
<time>2021-05-07T13:53:03.627Z</time>
</trkpt>
<trkpt lat="31.8105600" lon="34.9948000">
<ele>258.259979</ele>
<time>2021-05-07T13:53:03.627Z</time>
</trkpt>
<trkpt lat="31.8105900" lon="34.9949700">
<ele>258.769989</ele>
<time>2021-05-07T13:53:03.627Z</time>
</trkpt>
<trkpt lat="31.8106600" lon="34.9950500">
<ele>259.279999</ele>
<time>2021-05-07T13:53:03.627Z</time>
</trkpt>
<trkpt lat="31.8107400" lon="34.9950900">
<ele>259.419983</ele>
<time>2021-05-07T13:53:03.627Z</time>
</trkpt>
<trkpt lat="31.8109600" lon="34.9951600">
<ele>260.779999</ele>
<time>2021-05-07T13:53:03.627Z</time>
</trkpt>
<trkpt lat="31.8112100" lon="34.9951900">
<ele>262.300018</ele>
<time>2021-05-07T13:53:03.627Z</time>
</trkpt>
<trkpt lat="31.8114000" lon="34.9952500">
<ele>262.279999</ele>
<time>2021-05-07T13:53:03.627Z</time>
</trkpt>
<trkpt lat="31.8116100" lon="34.9952800">
<ele>258.360016</ele>
<time>2021-05-07T13:53:03.627Z</time>
</trkpt>
<trkpt lat="31.8118000" lon="34.9953500">
<ele>260.209991</ele>
<time>2021-05-07T13:53:03.627Z</time>
</trkpt>
<trkpt lat="31.8120900" lon="34.9955200">
<ele>266.640015</ele>
<time>2021-05-07T13:53:03.627Z</time>
</trkpt>
<trkpt lat="31.8124600" lon="34.9958200">
<ele>276.059998</ele>
<time>2021-05-07T13:53:03.627Z</time>
</trkpt>
<trkpt lat="31.8130000" lon="34.9963400">
<ele>281.980011</ele>
<time>2021-05-07T13:53:03.627Z</time>
</trkpt>
<trkpt lat="31.8131200" lon="34.9964900">
<ele>283.350006</ele>
<time>2021-05-07T13:53:03.627Z</time>
</trkpt>
<trkpt lat="31.8131700" lon="34.9966100">
<ele>284.100006</ele>
<time>2021-05-07T13:53:03.627Z</time>
</trkpt>
<trkpt lat="31.8131800" lon="34.9967800">
<ele>284.369995</ele>
<time>2021-05-07T13:53:03.627Z</time>
</trkpt>
<trkpt lat="31.8131700" lon="34.9968800">
<ele>284.269989</ele>
<time>2021-05-07T13:53:03.627Z</time>
</trkpt>
<trkpt lat="31.8131100" lon="34.9970300">
<ele>285.339996</ele>
<time>2021-05-07T13:53:03.627Z</time>
</trkpt>
<trkpt lat="31.8131100" lon="34.9970300">
<ele>285.339996</ele>
<time>2021-05-07T13:53:03.627Z</time>
</trkpt>
<trkpt lat="31.8130700" lon="34.9971300">
<ele>286.299988</ele>
<time>2021-05-07T13:53:03.627Z</time>
</trkpt>
<trkpt lat="31.8128900" lon="34.9973700">
<ele>284.079987</ele>
<time>2021-05-07T13:53:03.627Z</time>
</trkpt>
<trkpt lat="31.8127600" lon="34.9975000">
<ele>282.000000</ele>
<time>2021-05-07T13:53:03.627Z</time>
</trkpt>
<trkpt lat="31.8126200" lon="34.9976000">
<ele>281.479980</ele>
<time>2021-05-07T13:53:03.627Z</time>
</trkpt>
<trkpt lat="31.8123700" lon="34.9977500">
<ele>282.600006</ele>
<time>2021-05-07T13:53:03.627Z</time>
</trkpt>
<trkpt lat="31.8122300" lon="34.9978000">
<ele>284.000000</ele>
<time>2021-05-07T13:53:03.628Z</time>
</trkpt>
<trkpt lat="31.8120800" lon="34.9978800">
<ele>287.199982</ele>
<time>2021-05-07T13:53:03.628Z</time>
</trkpt>
<trkpt lat="31.8119800" lon="34.9979600">
<ele>288.470001</ele>
<time>2021-05-07T13:53:03.628Z</time>
</trkpt>
<trkpt lat="31.8116000" lon="34.9981500">
<ele>291.049988</ele>
<time>2021-05-07T13:53:03.628Z</time>
</trkpt>
<trkpt lat="31.8115400" lon="34.9981600">
<ele>291.410004</ele>
<time>2021-05-07T13:53:03.628Z</time>
</trkpt>
<trkpt lat="31.8113100" lon="34.9982800">
<ele>294.609985</ele>
<time>2021-05-07T13:53:03.628Z</time>
</trkpt>
<trkpt lat="31.8111800" lon="34.9983300">
<ele>295.019989</ele>
<time>2021-05-07T13:53:03.628Z</time>
</trkpt>
<trkpt lat="31.8103700" lon="34.9985000">
<ele>301.529999</ele>
<time>2021-05-07T13:53:03.628Z</time>
</trkpt>
<trkpt lat="31.8101100" lon="34.9985800">
<ele>303.660004</ele>
<time>2021-05-07T13:53:03.628Z</time>
</trkpt>
<trkpt lat="31.8099300" lon="34.9986400">
<ele>306.180023</ele>
<time>2021-05-07T13:53:03.628Z</time>
</trkpt>
<trkpt lat="31.8096800" lon="34.9987600">
<ele>308.660004</ele>
<time>2021-05-07T13:53:03.628Z</time>
</trkpt>
<trkpt lat="31.8095500" lon="34.9987600">
<ele>310.250000</ele>
<time>2021-05-07T13:53:03.628Z</time>
</trkpt>
<trkpt lat="31.8093800" lon="34.9987100">
<ele>312.750000</ele>
<time>2021-05-07T13:53:03.628Z</time>
</trkpt>
<trkpt lat="31.8093800" lon="34.9986900">
<ele>312.679993</ele>
<time>2021-05-07T13:53:03.628Z</time>
</trkpt>
<trkpt lat="31.8093800" lon="34.9986900">
<ele>312.679993</ele>
<time>2021-05-07T13:53:03.628Z</time>
</trkpt>
<trkpt lat="31.8090600" lon="34.9986300">
<ele>318.660004</ele>
<time>2021-05-07T13:53:03.628Z</time>
</trkpt>
<trkpt lat="31.8090000" lon="34.9985700">
<ele>319.549988</ele>
<time>2021-05-07T13:53:03.628Z</time>
</trkpt>
<trkpt lat="31.8089600" lon="34.9985200">
<ele>320.299988</ele>
<time>2021-05-07T13:53:03.628Z</time>
</trkpt>
<trkpt lat="31.8089400" lon="34.9984200">
<ele>320.950012</ele>
<time>2021-05-07T13:53:03.628Z</time>
</trkpt>
<trkpt lat="31.8089400" lon="34.9981600">
<ele>320.019989</ele>
<time>2021-05-07T13:53:03.628Z</time>
</trkpt>
<trkpt lat="31.8089500" lon="34.9981100">
<ele>319.509979</ele>
<time>2021-05-07T13:53:03.628Z</time>
</trkpt>
<trkpt lat="31.8089500" lon="34.9978300">
<ele>318.579987</ele>
<time>2021-05-07T13:53:03.628Z</time>
</trkpt>
<trkpt lat="31.8089900" lon="34.9972400">
<ele>316.000000</ele>
<time>2021-05-07T13:53:03.628Z</time>
</trkpt>
<trkpt lat="31.8089800" lon="34.9969600">
<ele>314.159973</ele>
<time>2021-05-07T13:53:03.628Z</time>
</trkpt>
<trkpt lat="31.8089300" lon="34.9968100">
<ele>314.480011</ele>
<time>2021-05-07T13:53:03.628Z</time>
</trkpt>
<trkpt lat="31.8088000" lon="34.9967300">
<ele>314.809998</ele>
<time>2021-05-07T13:53:03.628Z</time>
</trkpt>
<trkpt lat="31.8087200" lon="34.9967300">
<ele>314.429993</ele>
<time>2021-05-07T13:53:03.628Z</time>
</trkpt>
<trkpt lat="31.8084400" lon="34.9967300">
<ele>314.440002</ele>
<time>2021-05-07T13:53:03.628Z</time>
</trkpt>
<trkpt lat="31.8083300" lon="34.9967400">
<ele>314.759979</ele>
<time>2021-05-07T13:53:03.628Z</time>
</trkpt>
<trkpt lat="31.8078900" lon="34.9969600">
<ele>319.830017</ele>
<time>2021-05-07T13:53:03.628Z</time>
</trkpt>
<trkpt lat="31.8076400" lon="34.9972100">
<ele>323.829987</ele>
<time>2021-05-07T13:53:03.628Z</time>
</trkpt>
<trkpt lat="31.8074800" lon="34.9974600">
<ele>326.059998</ele>
<time>2021-05-07T13:53:03.628Z</time>
</trkpt>
<trkpt lat="31.8073400" lon="34.9978400">
<ele>329.630005</ele>
<time>2021-05-07T13:53:03.629Z</time>
</trkpt>
<trkpt lat="31.8073200" lon="34.9989000">
<ele>337.399994</ele>
<time>2021-05-07T13:53:03.629Z</time>
</trkpt>
<trkpt lat="31.8072900" lon="34.9989800">
<ele>336.809998</ele>
<time>2021-05-07T13:53:03.629Z</time>
</trkpt>
<trkpt lat="31.8072200" lon="34.9990900">
<ele>335.250000</ele>
<time>2021-05-07T13:53:03.629Z</time>
</trkpt>
<trkpt lat="31.8071700" lon="34.9991300">
<ele>334.539978</ele>
<time>2021-05-07T13:53:03.629Z</time>
</trkpt>
<trkpt lat="31.8069900" lon="34.9992100">
<ele>332.959991</ele>
<time>2021-05-07T13:53:03.629Z</time>
</trkpt>
<trkpt lat="31.8066800" lon="34.9992200">
<ele>333.889984</ele>
<time>2021-05-07T13:53:03.629Z</time>
</trkpt>
<trkpt lat="31.8062500" lon="34.9991100">
<ele>338.179993</ele>
<time>2021-05-07T13:53:03.629Z</time>
</trkpt>
<trkpt lat="31.8060000" lon="34.9990300">
<ele>339.629974</ele>
<time>2021-05-07T13:53:03.629Z</time>
</trkpt>
<trkpt lat="31.8059100" lon="34.9989800">
<ele>340.209991</ele>
<time>2021-05-07T13:53:03.629Z</time>
</trkpt>
<trkpt lat="31.8058400" lon="34.9989100">
<ele>340.209991</ele>
<time>2021-05-07T13:53:03.629Z</time>
</trkpt>
<trkpt lat="31.8057900" lon="34.9988600">
<ele>340.229980</ele>
<time>2021-05-07T13:53:03.629Z</time>
</trkpt>
<trkpt lat="31.8056700" lon="34.9985300">
<ele>335.059998</ele>
<time>2021-05-07T13:53:03.629Z</time>
</trkpt>
<trkpt lat="31.8055800" lon="34.9983200">
<ele>332.359985</ele>
<time>2021-05-07T13:53:03.629Z</time>
</trkpt>
<trkpt lat="31.8054700" lon="34.9981500">
<ele>332.210022</ele>
<time>2021-05-07T13:53:03.629Z</time>
</trkpt>
<trkpt lat="31.8053900" lon="34.9980500">
<ele>332.489990</ele>
<time>2021-05-07T13:53:03.629Z</time>
</trkpt>
<trkpt lat="31.8051500" lon="34.9979400">
<ele>334.290009</ele>
<time>2021-05-07T13:53:03.629Z</time>
</trkpt>
<trkpt lat="31.8049600" lon="34.9979100">
<ele>334.239990</ele>
<time>2021-05-07T13:53:03.629Z</time>
</trkpt>
<trkpt lat="31.8047800" lon="34.9979100">
<ele>333.630005</ele>
<time>2021-05-07T13:53:03.629Z</time>
</trkpt>
<trkpt lat="31.8045900" lon="34.9979300">
<ele>331.520020</ele>
<time>2021-05-07T13:53:03.629Z</time>
</trkpt>
<trkpt lat="31.8043700" lon="34.9980300">
<ele>329.900024</ele>
<time>2021-05-07T13:53:03.629Z</time>
</trkpt>
<trkpt lat="31.8042000" lon="34.9981800">
<ele>330.149994</ele>
<time>2021-05-07T13:53:03.629Z</time>
</trkpt>
<trkpt lat="31.8040100" lon="34.9983900">
<ele>330.489990</ele>
<time>2021-05-07T13:53:03.629Z</time>
</trkpt>
<trkpt lat="31.8038100" lon="34.9985700">
<ele>330.529999</ele>
<time>2021-05-07T13:53:03.629Z</time>
</trkpt>
<trkpt lat="31.8034100" lon="34.9988700">
<ele>331.140015</ele>
<time>2021-05-07T13:53:03.629Z</time>
</trkpt>
<trkpt lat="31.8028600" lon="34.9993900">
<ele>335.839996</ele>
<time>2021-05-07T13:53:03.629Z</time>
</trkpt>
<trkpt lat="31.8028100" lon="34.9994100">
<ele>335.049988</ele>
<time>2021-05-07T13:53:03.629Z</time>
</trkpt>
<trkpt lat="31.8027400" lon="34.9994300">
<ele>335.229980</ele>
<time>2021-05-07T13:53:03.629Z</time>
</trkpt>
<trkpt lat="31.8026400" lon="34.9994300">
<ele>336.670013</ele>
<time>2021-05-07T13:53:03.629Z</time>
</trkpt>
<trkpt lat="31.8026000" lon="34.9994200">
<ele>337.029999</ele>
<time>2021-05-07T13:53:03.629Z</time>
</trkpt>
<trkpt lat="31.8022700" lon="34.9991800">
<ele>337.350006</ele>
<time>2021-05-07T13:53:03.629Z</time>
</trkpt>
<trkpt lat="31.8022400" lon="34.9991400">
<ele>337.390015</ele>
<time>2021-05-07T13:53:03.630Z</time>
</trkpt>
<trkpt lat="31.8021800" lon="34.9990000">
<ele>337.050018</ele>
<time>2021-05-07T13:53:03.630Z</time>
</trkpt>
<trkpt lat="31.8020900" lon="34.9988900">
<ele>337.869995</ele>
<time>2021-05-07T13:53:03.630Z</time>
</trkpt>
<trkpt lat="31.8018600" lon="34.9988000">
<ele>342.279968</ele>
<time>2021-05-07T13:53:03.630Z</time>
</trkpt>
<trkpt lat="31.8017000" lon="34.9987000">
<ele>345.520020</ele>
<time>2021-05-07T13:53:03.630Z</time>
</trkpt>
<trkpt lat="31.8016200" lon="34.9986900">
<ele>346.569977</ele>
<time>2021-05-07T13:53:03.630Z</time>
</trkpt>
<trkpt lat="31.8015400" lon="34.9986900">
<ele>347.070007</ele>
<time>2021-05-07T13:53:03.630Z</time>
</trkpt>
<trkpt lat="31.8014700" lon="34.9986900">
<ele>347.500031</ele>
<time>2021-05-07T13:53:03.630Z</time>
</trkpt>
<trkpt lat="31.8011100" lon="34.9990100">
<ele>349.880005</ele>
<time>2021-05-07T13:53:03.630Z</time>
</trkpt>
<trkpt lat="31.8011100" lon="34.9990100">
<ele>349.880005</ele>
<time>2021-05-07T13:53:03.630Z</time>
</trkpt>
<trkpt lat="31.8011100" lon="34.9990200">
<ele>349.949982</ele>
<time>2021-05-07T13:53:03.630Z</time>
</trkpt>
<trkpt lat="31.8010700" lon="34.9990500">
<ele>350.419983</ele>
<time>2021-05-07T13:53:03.630Z</time>
</trkpt>
<trkpt lat="31.8009700" lon="34.9991700">
<ele>352.550018</ele>
<time>2021-05-07T13:53:03.630Z</time>
</trkpt>
<trkpt lat="31.8008800" lon="34.9993000">
<ele>355.169983</ele>
<time>2021-05-07T13:53:03.630Z</time>
</trkpt>
<trkpt lat="31.8008600" lon="34.9994000">
<ele>356.830017</ele>
<time>2021-05-07T13:53:03.630Z</time>
</trkpt>
<trkpt lat="31.8008600" lon="34.9995900">
<ele>358.820007</ele>
<time>2021-05-07T13:53:03.630Z</time>
</trkpt>
<trkpt lat="31.8008500" lon="34.9997000">
<ele>359.870026</ele>
<time>2021-05-07T13:53:03.630Z</time>
</trkpt>
<trkpt lat="31.8007900" lon="34.9997700">
<ele>361.059998</ele>
<time>2021-05-07T13:53:03.630Z</time>
</trkpt>
<trkpt lat="31.8007300" lon="34.9998100">
<ele>362.079987</ele>
<time>2021-05-07T13:53:03.630Z</time>
</trkpt>
<trkpt lat="31.8005500" lon="34.9998300">
<ele>364.069977</ele>
<time>2021-05-07T13:53:03.630Z</time>
</trkpt>
<trkpt lat="31.8001900" lon="34.9998300">
<ele>367.119995</ele>
<time>2021-05-07T13:53:03.630Z</time>
</trkpt>
<trkpt lat="31.8000000" lon="34.9997900">
<ele>365.980011</ele>
<time>2021-05-07T13:53:03.630Z</time>
</trkpt>
<trkpt lat="31.7998200" lon="34.9997900">
<ele>364.029999</ele>
<time>2021-05-07T13:53:03.630Z</time>
</trkpt>
<trkpt lat="31.7997100" lon="34.9998700">
<ele>364.000000</ele>
<time>2021-05-07T13:53:03.630Z</time>
</trkpt>
<trkpt lat="31.7996900" lon="34.9999000">
<ele>364.240021</ele>
<time>2021-05-07T13:53:03.630Z</time>
</trkpt>
<trkpt lat="31.7997000" lon="34.9999400">
<ele>364.940002</ele>
<time>2021-05-07T13:53:03.630Z</time>
</trkpt>
<trkpt lat="31.7998700" lon="35.0002100">
<ele>368.349976</ele>
<time>2021-05-07T13:53:03.630Z</time>
</trkpt>
<trkpt lat="31.7999000" lon="35.0002900">
<ele>368.660004</ele>
<time>2021-05-07T13:53:03.630Z</time>
</trkpt>
<trkpt lat="31.7999300" lon="35.0004500">
<ele>365.369995</ele>
<time>2021-05-07T13:53:03.630Z</time>
</trkpt>
<trkpt lat="31.7998400" lon="35.0006000">
<ele>361.950012</ele>
<time>2021-05-07T13:53:03.630Z</time>
</trkpt>
<trkpt lat="31.7996500" lon="35.0008100">
<ele>356.779999</ele>
<time>2021-05-07T13:53:03.630Z</time>
</trkpt>
<trkpt lat="31.7995700" lon="35.0008800">
<ele>355.779999</ele>
<time>2021-05-07T13:53:03.630Z</time>
</trkpt>
<trkpt lat="31.7995700" lon="35.0008800">
<ele>355.779999</ele>
<time>2021-05-07T13:53:03.631Z</time>
</trkpt>
<trkpt lat="31.7994800" lon="35.0009600">
<ele>354.650024</ele>
<time>2021-05-07T13:53:03.631Z</time>
</trkpt>
<trkpt lat="31.7993600" lon="35.0010300">
<ele>356.630005</ele>
<time>2021-05-07T13:53:03.631Z</time>
</trkpt>
<trkpt lat="31.7990800" lon="35.0010800">
<ele>365.829987</ele>
<time>2021-05-07T13:53:03.631Z</time>
</trkpt>
<trkpt lat="31.7989600" lon="35.0011200">
<ele>368.789978</ele>
<time>2021-05-07T13:53:03.631Z</time>
</trkpt>
<trkpt lat="31.7988500" lon="35.0011200">
<ele>370.649994</ele>
<time>2021-05-07T13:53:03.631Z</time>
</trkpt>
<trkpt lat="31.7987400" lon="35.0011000">
<ele>370.539978</ele>
<time>2021-05-07T13:53:03.631Z</time>
</trkpt>
<trkpt lat="31.7985400" lon="35.0009900">
<ele>368.789978</ele>
<time>2021-05-07T13:53:03.631Z</time>
</trkpt>
<trkpt lat="31.7982500" lon="35.0007800">
<ele>361.459991</ele>
<time>2021-05-07T13:53:03.631Z</time>
</trkpt>
<trkpt lat="31.7981600" lon="35.0007500">
<ele>358.840027</ele>
<time>2021-05-07T13:53:03.631Z</time>
</trkpt>
<trkpt lat="31.7981100" lon="35.0007300">
<ele>357.330017</ele>
<time>2021-05-07T13:53:03.631Z</time>
</trkpt>
<trkpt lat="31.7977500" lon="35.0007300">
<ele>346.269989</ele>
<time>2021-05-07T13:53:03.631Z</time>
</trkpt>
<trkpt lat="31.7976700" lon="35.0007600">
<ele>345.290009</ele>
<time>2021-05-07T13:53:03.631Z</time>
</trkpt>
<trkpt lat="31.7976700" lon="35.0007500">
<ele>345.260010</ele>
<time>2021-05-07T13:53:03.631Z</time>
</trkpt>
<trkpt lat="31.7976700" lon="35.0007500">
<ele>345.260010</ele>
<time>2021-05-07T13:53:03.631Z</time>
</trkpt>
<trkpt lat="31.7975100" lon="35.0007700">
<ele>343.139984</ele>
<time>2021-05-07T13:53:03.631Z</time>
</trkpt>
<trkpt lat="31.7971400" lon="35.0007900">
<ele>346.000031</ele>
<time>2021-05-07T13:53:03.631Z</time>
</trkpt>
<trkpt lat="31.7967500" lon="35.0007300">
<ele>353.059998</ele>
<time>2021-05-07T13:53:03.631Z</time>
</trkpt>
<trkpt lat="31.7966700" lon="35.0007100">
<ele>354.390015</ele>
<time>2021-05-07T13:53:03.631Z</time>
</trkpt>
<trkpt lat="31.7963600" lon="35.0005400">
<ele>360.070007</ele>
<time>2021-05-07T13:53:03.631Z</time>
</trkpt>
<trkpt lat="31.7960100" lon="35.0004400">
<ele>360.420013</ele>
<time>2021-05-07T13:53:03.631Z</time>
</trkpt>
<trkpt lat="31.7958500" lon="35.0004200">
<ele>360.110016</ele>
<time>2021-05-07T13:53:03.631Z</time>
</trkpt>
<trkpt lat="31.7955300" lon="35.0004500">
<ele>361.140015</ele>
<time>2021-05-07T13:53:03.631Z</time>
</trkpt>
<trkpt lat="31.7949500" lon="35.0004600">
<ele>350.960022</ele>
<time>2021-05-07T13:53:03.631Z</time>
</trkpt>
<trkpt lat="31.7944100" lon="35.0006100">
<ele>351.489990</ele>
<time>2021-05-07T13:53:03.632Z</time>
</trkpt>
<trkpt lat="31.7943900" lon="35.0006700">
<ele>352.149994</ele>
<time>2021-05-07T13:53:03.632Z</time>
</trkpt>
<trkpt lat="31.7944400" lon="35.0007500">
<ele>352.440002</ele>
<time>2021-05-07T13:53:03.632Z</time>
</trkpt>
<trkpt lat="31.7945100" lon="35.0007500">
<ele>352.819977</ele>
<time>2021-05-07T13:53:03.632Z</time>
</trkpt>
<trkpt lat="31.7949200" lon="35.0006800">
<ele>356.100006</ele>
<time>2021-05-07T13:53:03.632Z</time>
</trkpt>
<trkpt lat="31.7950500" lon="35.0006700">
<ele>358.519989</ele>
<time>2021-05-07T13:53:03.632Z</time>
</trkpt>
<trkpt lat="31.7953300" lon="35.0006700">
<ele>365.709991</ele>
<time>2021-05-07T13:53:03.632Z</time>
</trkpt>
<trkpt lat="31.7954100" lon="35.0006800">
<ele>367.250000</ele>
<time>2021-05-07T13:53:03.632Z</time>
</trkpt>
<trkpt lat="31.7956700" lon="35.0007900">
<ele>372.750000</ele>
<time>2021-05-07T13:53:03.632Z</time>
</trkpt>
<trkpt lat="31.7958300" lon="35.0009300">
<ele>374.699982</ele>
<time>2021-05-07T13:53:03.632Z</time>
</trkpt>
<trkpt lat="31.7958600" lon="35.0010100">
<ele>374.829987</ele>
<time>2021-05-07T13:53:03.632Z</time>
</trkpt>
<trkpt lat="31.7958800" lon="35.0011000">
<ele>375.089996</ele>
<time>2021-05-07T13:53:03.632Z</time>
</trkpt>
<trkpt lat="31.7958800" lon="35.0012400">
<ele>375.159973</ele>
<time>2021-05-07T13:53:03.632Z</time>
</trkpt>
<trkpt lat="31.7958200" lon="35.0015000">
<ele>377.120026</ele>
<time>2021-05-07T13:53:03.632Z</time>
</trkpt>
<trkpt lat="31.7956800" lon="35.0017000">
<ele>376.699982</ele>
<time>2021-05-07T13:53:03.632Z</time>
</trkpt>
<trkpt lat="31.7954700" lon="35.0019200">
<ele>374.989990</ele>
<time>2021-05-07T13:53:03.632Z</time>
</trkpt>
<trkpt lat="31.7948700" lon="35.0025300">
<ele>380.230011</ele>
<time>2021-05-07T13:53:03.632Z</time>
</trkpt>
<trkpt lat="31.7946000" lon="35.0027700">
<ele>383.299988</ele>
<time>2021-05-07T13:53:03.632Z</time>
</trkpt>
<trkpt lat="31.7944900" lon="35.0029100">
<ele>384.350006</ele>
<time>2021-05-07T13:53:03.632Z</time>
</trkpt>
<trkpt lat="31.7944300" lon="35.0030000">
<ele>385.009979</ele>
<time>2021-05-07T13:53:03.632Z</time>
</trkpt>
<trkpt lat="31.7940700" lon="35.0036600">
<ele>384.660004</ele>
<time>2021-05-07T13:53:03.632Z</time>
</trkpt>
<trkpt lat="31.7940000" lon="35.0038400">
<ele>382.000000</ele>
<time>2021-05-07T13:53:03.632Z</time>
</trkpt>
<trkpt lat="31.7939200" lon="35.0040200">
<ele>378.490021</ele>
<time>2021-05-07T13:53:03.632Z</time>
</trkpt>
<trkpt lat="31.7935700" lon="35.0044700">
<ele>373.290009</ele>
<time>2021-05-07T13:53:03.632Z</time>
</trkpt>
<trkpt lat="31.7935200" lon="35.0044900">
<ele>373.709991</ele>
<time>2021-05-07T13:53:03.632Z</time>
</trkpt>
<trkpt lat="31.7933800" lon="35.0045200">
<ele>375.010010</ele>
<time>2021-05-07T13:53:03.633Z</time>
</trkpt>
<trkpt lat="31.7932000" lon="35.0045500">
<ele>375.350006</ele>
<time>2021-05-07T13:53:03.633Z</time>
</trkpt>
<trkpt lat="31.7930900" lon="35.0045500">
<ele>374.899994</ele>
<time>2021-05-07T13:53:03.633Z</time>
</trkpt>
<trkpt lat="31.7929400" lon="35.0051900">
<ele>375.270020</ele>
<time>2021-05-07T13:53:03.633Z</time>
</trkpt>
<trkpt lat="31.7927600" lon="35.0053700">
<ele>374.959991</ele>
<time>2021-05-07T13:53:03.633Z</time>
</trkpt>
<trkpt lat="31.7914000" lon="35.0066600">
<ele>376.899994</ele>
<time>2021-05-07T13:53:03.633Z</time>
</trkpt>
<trkpt lat="31.7910700" lon="35.0069600">
<ele>370.380005</ele>
<time>2021-05-07T13:53:03.633Z</time>
</trkpt>
<trkpt lat="31.7907200" lon="35.0072000">
<ele>368.940002</ele>
<time>2021-05-07T13:53:03.633Z</time>
</trkpt>
<trkpt lat="31.7905600" lon="35.0073400">
<ele>370.270020</ele>
<time>2021-05-07T13:53:03.633Z</time>
</trkpt>
<trkpt lat="31.7902200" lon="35.0079100">
<ele>372.410004</ele>
<time>2021-05-07T13:53:03.633Z</time>
</trkpt>
<trkpt lat="31.7900600" lon="35.0081600">
<ele>372.570007</ele>
<time>2021-05-07T13:53:03.633Z</time>
</trkpt>
<trkpt lat="31.7900400" lon="35.0081900">
<ele>372.509979</ele>
<time>2021-05-07T13:53:03.633Z</time>
</trkpt>
<trkpt lat="31.7899000" lon="35.0083700">
<ele>372.079987</ele>
<time>2021-05-07T13:53:03.633Z</time>
</trkpt>
<trkpt lat="31.7897900" lon="35.0084600">
<ele>372.110016</ele>
<time>2021-05-07T13:53:03.633Z</time>
</trkpt>
<trkpt lat="31.7896000" lon="35.0085500">
<ele>371.709991</ele>
<time>2021-05-07T13:53:03.633Z</time>
</trkpt>
<trkpt lat="31.7895200" lon="35.0085800">
<ele>371.760010</ele>
<time>2021-05-07T13:53:03.633Z</time>
</trkpt>
<trkpt lat="31.7890900" lon="35.0087000">
<ele>363.330017</ele>
<time>2021-05-07T13:53:03.633Z</time>
</trkpt>
<trkpt lat="31.7886800" lon="35.0088600">
<ele>358.739990</ele>
<time>2021-05-07T13:53:03.633Z</time>
</trkpt>
<trkpt lat="31.7885300" lon="35.0089100">
<ele>356.830017</ele>
<time>2021-05-07T13:53:03.633Z</time>
</trkpt>
<trkpt lat="31.7880800" lon="35.0089900">
<ele>353.620026</ele>
<time>2021-05-07T13:53:03.633Z</time>
</trkpt>
<trkpt lat="31.7877300" lon="35.0091100">
<ele>354.669983</ele>
<time>2021-05-07T13:53:03.633Z</time>
</trkpt>
<trkpt lat="31.7876200" lon="35.0091200">
<ele>355.200012</ele>
<time>2021-05-07T13:53:03.633Z</time>
</trkpt>
<trkpt lat="31.7875000" lon="35.0091300">
<ele>355.809998</ele>
<time>2021-05-07T13:53:03.633Z</time>
</trkpt>
<trkpt lat="31.7873000" lon="35.0091200">
<ele>355.370026</ele>
<time>2021-05-07T13:53:03.633Z</time>
</trkpt>
<trkpt lat="31.7869100" lon="35.0090300">
<ele>355.290009</ele>
<time>2021-05-07T13:53:03.633Z</time>
</trkpt>
<trkpt lat="31.7863500" lon="35.0089600">
<ele>344.760010</ele>
<time>2021-05-07T13:53:03.633Z</time>
</trkpt>
<trkpt lat="31.7859400" lon="35.0089400">
<ele>344.079987</ele>
<time>2021-05-07T13:53:03.633Z</time>
</trkpt>
<trkpt lat="31.7856600" lon="35.0089600">
<ele>343.099976</ele>
<time>2021-05-07T13:53:03.634Z</time>
</trkpt>
<trkpt lat="31.7854900" lon="35.0090100">
<ele>343.420013</ele>
<time>2021-05-07T13:53:03.634Z</time>
</trkpt>
<trkpt lat="31.7853300" lon="35.0091100">
<ele>346.550018</ele>
<time>2021-05-07T13:53:03.634Z</time>
</trkpt>
<trkpt lat="31.7852100" lon="35.0092100">
<ele>347.630005</ele>
<time>2021-05-07T13:53:03.634Z</time>
</trkpt>
<trkpt lat="31.7851500" lon="35.0092900">
<ele>348.350006</ele>
<time>2021-05-07T13:53:03.634Z</time>
</trkpt>
<trkpt lat="31.7850200" lon="35.0095600">
<ele>351.390015</ele>
<time>2021-05-07T13:53:03.634Z</time>
</trkpt>
<trkpt lat="31.7849900" lon="35.0096600">
<ele>352.649994</ele>
<time>2021-05-07T13:53:03.634Z</time>
</trkpt>
<trkpt lat="31.7849500" lon="35.0100000">
<ele>356.100006</ele>
<time>2021-05-07T13:53:03.634Z</time>
</trkpt>
<trkpt lat="31.7849300" lon="35.0107200">
<ele>356.329987</ele>
<time>2021-05-07T13:53:03.634Z</time>
</trkpt>
<trkpt lat="31.7849300" lon="35.0108000">
<ele>356.620026</ele>
<time>2021-05-07T13:53:03.634Z</time>
</trkpt>
<trkpt lat="31.7849400" lon="35.0109400">
<ele>357.990021</ele>
<time>2021-05-07T13:53:03.634Z</time>
</trkpt>
<trkpt lat="31.7849600" lon="35.0110100">
<ele>359.100006</ele>
<time>2021-05-07T13:53:03.634Z</time>
</trkpt>
<trkpt lat="31.7850100" lon="35.0111300">
<ele>360.380005</ele>
<time>2021-05-07T13:53:03.634Z</time>
</trkpt>
<trkpt lat="31.7851100" lon="35.0112400">
<ele>356.170013</ele>
<time>2021-05-07T13:53:03.634Z</time>
</trkpt>
<trkpt lat="31.7852700" lon="35.0113100">
<ele>352.100006</ele>
<time>2021-05-07T13:53:03.634Z</time>
</trkpt>
<trkpt lat="31.7854600" lon="35.0113300">
<ele>351.209991</ele>
<time>2021-05-07T13:53:03.634Z</time>
</trkpt>
<trkpt lat="31.7855100" lon="35.0113300">
<ele>351.130005</ele>
<time>2021-05-07T13:53:03.634Z</time>
</trkpt>
<trkpt lat="31.7857400" lon="35.0112900">
<ele>351.350006</ele>
<time>2021-05-07T13:53:03.634Z</time>
</trkpt>
<trkpt lat="31.7859200" lon="35.0112000">
<ele>351.319977</ele>
<time>2021-05-07T13:53:03.634Z</time>
</trkpt>
<trkpt lat="31.7860800" lon="35.0110600">
<ele>351.640015</ele>
<time>2021-05-07T13:53:03.634Z</time>
</trkpt>
<trkpt lat="31.7863400" lon="35.0107800">
<ele>353.950012</ele>
<time>2021-05-07T13:53:03.634Z</time>
</trkpt>
<trkpt lat="31.7864500" lon="35.0106800">
<ele>353.490021</ele>
<time>2021-05-07T13:53:03.634Z</time>
</trkpt>
<trkpt lat="31.7865400" lon="35.0106200">
<ele>353.490021</ele>
<time>2021-05-07T13:53:03.634Z</time>
</trkpt>
<trkpt lat="31.7867500" lon="35.0105500">
<ele>354.029999</ele>
<time>2021-05-07T13:53:03.634Z</time>
</trkpt>
<trkpt lat="31.7870500" lon="35.0105200">
<ele>354.809998</ele>
<time>2021-05-07T13:53:03.634Z</time>
</trkpt>
<trkpt lat="31.7876400" lon="35.0105300">
<ele>353.209991</ele>
<time>2021-05-07T13:53:03.634Z</time>
</trkpt>
<trkpt lat="31.7886800" lon="35.0104900">
<ele>349.940002</ele>
<time>2021-05-07T13:53:03.635Z</time>
</trkpt>
<trkpt lat="31.7888000" lon="35.0104900">
<ele>349.910004</ele>
<time>2021-05-07T13:53:03.635Z</time>
</trkpt>
<trkpt lat="31.7889700" lon="35.0105100">
<ele>350.529999</ele>
<time>2021-05-07T13:53:03.635Z</time>
</trkpt>
<trkpt lat="31.7894600" lon="35.0105400">
<ele>351.999969</ele>
<time>2021-05-07T13:53:03.635Z</time>
</trkpt>
<trkpt lat="31.7897600" lon="35.0105000">
<ele>349.470032</ele>
<time>2021-05-07T13:53:03.635Z</time>
</trkpt>
<trkpt lat="31.7899500" lon="35.0104000">
<ele>350.159973</ele>
<time>2021-05-07T13:53:03.635Z</time>
</trkpt>
<trkpt lat="31.7901500" lon="35.0103100">
<ele>352.670013</ele>
<time>2021-05-07T13:53:03.635Z</time>
</trkpt>
<trkpt lat="31.7902300" lon="35.0103000">
<ele>353.199982</ele>
<time>2021-05-07T13:53:03.635Z</time>
</trkpt>
<trkpt lat="31.7904900" lon="35.0103100">
<ele>354.009979</ele>
<time>2021-05-07T13:53:03.635Z</time>
</trkpt>
<trkpt lat="31.7912200" lon="35.0104500">
<ele>353.549988</ele>
<time>2021-05-07T13:53:03.635Z</time>
</trkpt>
<trkpt lat="31.7919700" lon="35.0107100">
<ele>349.819977</ele>
<time>2021-05-07T13:53:03.635Z</time>
</trkpt>
<trkpt lat="31.7921800" lon="35.0107500">
<ele>350.580017</ele>
<time>2021-05-07T13:53:03.635Z</time>
</trkpt>
<trkpt lat="31.7924400" lon="35.0108700">
<ele>349.290009</ele>
<time>2021-05-07T13:53:03.635Z</time>
</trkpt>
<trkpt lat="31.7926200" lon="35.0110700">
<ele>349.660004</ele>
<time>2021-05-07T13:53:03.635Z</time>
</trkpt>
<trkpt lat="31.7927000" lon="35.0110900">
<ele>349.760010</ele>
<time>2021-05-07T13:53:03.635Z</time>
</trkpt>
<trkpt lat="31.7928400" lon="35.0110700">
<ele>348.929993</ele>
<time>2021-05-07T13:53:03.635Z</time>
</trkpt>
<trkpt lat="31.7929500" lon="35.0110800">
<ele>348.239990</ele>
<time>2021-05-07T13:53:03.635Z</time>
</trkpt>
<trkpt lat="31.7930400" lon="35.0110900">
<ele>347.739990</ele>
<time>2021-05-07T13:53:03.635Z</time>
</trkpt>
<trkpt lat="31.7931600" lon="35.0110900">
<ele>345.539978</ele>
<time>2021-05-07T13:53:03.635Z</time>
</trkpt>
<trkpt lat="31.7932600" lon="35.0111300">
<ele>343.820007</ele>
<time>2021-05-07T13:53:03.635Z</time>
</trkpt>
<trkpt lat="31.7935900" lon="35.0112600">
<ele>342.750031</ele>
<time>2021-05-07T13:53:03.635Z</time>
</trkpt>
<trkpt lat="31.7936900" lon="35.0112600">
<ele>343.210022</ele>
<time>2021-05-07T13:53:03.635Z</time>
</trkpt>
<trkpt lat="31.7937500" lon="35.0112000">
<ele>342.960022</ele>
<time>2021-05-07T13:53:03.635Z</time>
</trkpt>
<trkpt lat="31.7937900" lon="35.0110800">
<ele>342.700012</ele>
<time>2021-05-07T13:53:03.635Z</time>
</trkpt>
<trkpt lat="31.7939200" lon="35.0110300">
<ele>344.000000</ele>
<time>2021-05-07T13:53:03.635Z</time>
</trkpt>
<trkpt lat="31.7940300" lon="35.0110200">
<ele>344.000000</ele>
<time>2021-05-07T13:53:03.635Z</time>
</trkpt>
<trkpt lat="31.7941300" lon="35.0110200">
<ele>344.000000</ele>
<time>2021-05-07T13:53:03.635Z</time>
</trkpt>
<trkpt lat="31.7943900" lon="35.0110300">
<ele>340.449982</ele>
<time>2021-05-07T13:53:03.636Z</time>
</trkpt>
<trkpt lat="31.7944700" lon="35.0110300">
<ele>340.119995</ele>
<time>2021-05-07T13:53:03.636Z</time>
</trkpt>
<trkpt lat="31.7946000" lon="35.0110500">
<ele>342.870026</ele>
<time>2021-05-07T13:53:03.636Z</time>
</trkpt>
<trkpt lat="31.7947200" lon="35.0110500">
<ele>345.510010</ele>
<time>2021-05-07T13:53:03.636Z</time>
</trkpt>
<trkpt lat="31.7949300" lon="35.0110700">
<ele>341.440002</ele>
<time>2021-05-07T13:53:03.636Z</time>
</trkpt>
<trkpt lat="31.7950700" lon="35.0110800">
<ele>339.299988</ele>
<time>2021-05-07T13:53:03.636Z</time>
</trkpt>
<trkpt lat="31.7952100" lon="35.0111300">
<ele>337.709991</ele>
<time>2021-05-07T13:53:03.636Z</time>
</trkpt>
<trkpt lat="31.7956000" lon="35.0113300">
<ele>331.860016</ele>
<time>2021-05-07T13:53:03.636Z</time>
</trkpt>
<trkpt lat="31.7956900" lon="35.0113700">
<ele>329.019989</ele>
<time>2021-05-07T13:53:03.636Z</time>
</trkpt>
<trkpt lat="31.7959000" lon="35.0114000">
<ele>323.750000</ele>
<time>2021-05-07T13:53:03.636Z</time>
</trkpt>
<trkpt lat="31.7961100" lon="35.0114000">
<ele>319.940002</ele>
<time>2021-05-07T13:53:03.636Z</time>
</trkpt>
<trkpt lat="31.7962200" lon="35.0113900">
<ele>320.380005</ele>
<time>2021-05-07T13:53:03.636Z</time>
</trkpt>
<trkpt lat="31.7962800" lon="35.0113900">
<ele>320.600006</ele>
<time>2021-05-07T13:53:03.636Z</time>
</trkpt>
<trkpt lat="31.7964100" lon="35.0113800">
<ele>321.070007</ele>
<time>2021-05-07T13:53:03.636Z</time>
</trkpt>
<trkpt lat="31.7965200" lon="35.0113800">
<ele>320.260010</ele>
<time>2021-05-07T13:53:03.636Z</time>
</trkpt>
<trkpt lat="31.7966100" lon="35.0113700">
<ele>319.830017</ele>
<time>2021-05-07T13:53:03.636Z</time>
</trkpt>
<trkpt lat="31.7967200" lon="35.0113600">
<ele>318.940002</ele>
<time>2021-05-07T13:53:03.636Z</time>
</trkpt>
<trkpt lat="31.7968100" lon="35.0113600">
<ele>317.769989</ele>
<time>2021-05-07T13:53:03.636Z</time>
</trkpt>
<trkpt lat="31.7969600" lon="35.0113300">
<ele>317.160004</ele>
<time>2021-05-07T13:53:03.636Z</time>
</trkpt>
<trkpt lat="31.7971200" lon="35.0112900">
<ele>318.970001</ele>
<time>2021-05-07T13:53:03.636Z</time>
</trkpt>
<trkpt lat="31.7974000" lon="35.0111900">
<ele>317.679993</ele>
<time>2021-05-07T13:53:03.636Z</time>
</trkpt>
<trkpt lat="31.7974500" lon="35.0111800">
<ele>316.399994</ele>
<time>2021-05-07T13:53:03.636Z</time>
</trkpt>
<trkpt lat="31.7975100" lon="35.0111800">
<ele>314.989990</ele>
<time>2021-05-07T13:53:03.636Z</time>
</trkpt>
<trkpt lat="31.7976100" lon="35.0111800">
<ele>314.899994</ele>
<time>2021-05-07T13:53:03.636Z</time>
</trkpt>
<trkpt lat="31.7978400" lon="35.0112200">
<ele>314.559998</ele>
<time>2021-05-07T13:53:03.636Z</time>
</trkpt>
<trkpt lat="31.7979600" lon="35.0112900">
<ele>314.539978</ele>
<time>2021-05-07T13:53:03.636Z</time>
</trkpt>
<trkpt lat="31.7980800" lon="35.0113400">
<ele>314.539978</ele>
<time>2021-05-07T13:53:03.637Z</time>
</trkpt>
<trkpt lat="31.7982500" lon="35.0113700">
<ele>312.780029</ele>
<time>2021-05-07T13:53:03.637Z</time>
</trkpt>
<trkpt lat="31.7982900" lon="35.0114000">
<ele>312.310028</ele>
<time>2021-05-07T13:53:03.637Z</time>
</trkpt>
<trkpt lat="31.7983400" lon="35.0114200">
<ele>311.500000</ele>
<time>2021-05-07T13:53:03.637Z</time>
</trkpt>
<trkpt lat="31.7983800" lon="35.0114400">
<ele>310.950012</ele>
<time>2021-05-07T13:53:03.637Z</time>
</trkpt>
<trkpt lat="31.7986300" lon="35.0116500">
<ele>311.220001</ele>
<time>2021-05-07T13:53:03.637Z</time>
</trkpt>
<trkpt lat="31.7987400" lon="35.0117700">
<ele>313.399994</ele>
<time>2021-05-07T13:53:03.637Z</time>
</trkpt>
<trkpt lat="31.7987600" lon="35.0117900">
<ele>313.580017</ele>
<time>2021-05-07T13:53:03.637Z</time>
</trkpt>
<trkpt lat="31.7988200" lon="35.0118500">
<ele>313.760010</ele>
<time>2021-05-07T13:53:03.637Z</time>
</trkpt>
<trkpt lat="31.7992100" lon="35.0122100">
<ele>305.479980</ele>
<time>2021-05-07T13:53:03.637Z</time>
</trkpt>
<trkpt lat="31.7992400" lon="35.0122200">
<ele>304.729980</ele>
<time>2021-05-07T13:53:03.637Z</time>
</trkpt>
<trkpt lat="31.7992700" lon="35.0122300">
<ele>303.959991</ele>
<time>2021-05-07T13:53:03.637Z</time>
</trkpt>
<trkpt lat="31.7993000" lon="35.0122400">
<ele>303.190002</ele>
<time>2021-05-07T13:53:03.637Z</time>
</trkpt>
<trkpt lat="31.7993500" lon="35.0122600">
<ele>301.790009</ele>
<time>2021-05-07T13:53:03.637Z</time>
</trkpt>
<trkpt lat="31.7993800" lon="35.0122700">
<ele>301.000000</ele>
<time>2021-05-07T13:53:03.637Z</time>
</trkpt>
<trkpt lat="31.7994200" lon="35.0122800">
<ele>300.000000</ele>
<time>2021-05-07T13:53:03.637Z</time>
</trkpt>
<trkpt lat="31.7994500" lon="35.0122900">
<ele>299.200012</ele>
<time>2021-05-07T13:53:03.637Z</time>
</trkpt>
<trkpt lat="31.7995400" lon="35.0122700">
<ele>298.139984</ele>
<time>2021-05-07T13:53:03.637Z</time>
</trkpt>
<trkpt lat="31.8003400" lon="35.0122200">
<ele>294.480011</ele>
<time>2021-05-07T13:53:03.637Z</time>
</trkpt>
<trkpt lat="31.8008700" lon="35.0121800">
<ele>291.220001</ele>
<time>2021-05-07T13:53:03.638Z</time>
</trkpt>
<trkpt lat="31.8009500" lon="35.0121600">
<ele>289.720001</ele>
<time>2021-05-07T13:53:03.638Z</time>
</trkpt>
<trkpt lat="31.8010400" lon="35.0121400">
<ele>288.329987</ele>
<time>2021-05-07T13:53:03.638Z</time>
</trkpt>
<trkpt lat="31.8011300" lon="35.0121100">
<ele>287.750000</ele>
<time>2021-05-07T13:53:03.638Z</time>
</trkpt>
<trkpt lat="31.8012300" lon="35.0120800">
<ele>287.929993</ele>
<time>2021-05-07T13:53:03.638Z</time>
</trkpt>
<trkpt lat="31.8013100" lon="35.0120400">
<ele>288.179993</ele>
<time>2021-05-07T13:53:03.638Z</time>
</trkpt>
<trkpt lat="31.8014000" lon="35.0120000">
<ele>288.119995</ele>
<time>2021-05-07T13:53:03.638Z</time>
</trkpt>
<trkpt lat="31.8014700" lon="35.0119500">
<ele>288.339996</ele>
<time>2021-05-07T13:53:03.638Z</time>
</trkpt>
<trkpt lat="31.8015400" lon="35.0118900">
<ele>288.299988</ele>
<time>2021-05-07T13:53:03.638Z</time>
</trkpt>
<trkpt lat="31.8015700" lon="35.0118700">
<ele>288.230011</ele>
<time>2021-05-07T13:53:03.638Z</time>
</trkpt>
<trkpt lat="31.8016000" lon="35.0118300">
<ele>288.299988</ele>
<time>2021-05-07T13:53:03.638Z</time>
</trkpt>
<trkpt lat="31.8016500" lon="35.0117700">
<ele>288.380005</ele>
<time>2021-05-07T13:53:03.638Z</time>
</trkpt>
<trkpt lat="31.8016800" lon="35.0117300">
<ele>288.329987</ele>
<time>2021-05-07T13:53:03.638Z</time>
</trkpt>
<trkpt lat="31.8017100" lon="35.0117000">
<ele>288.100006</ele>
<time>2021-05-07T13:53:03.638Z</time>
</trkpt>
<trkpt lat="31.8017300" lon="35.0116800">
<ele>287.970001</ele>
<time>2021-05-07T13:53:03.638Z</time>
</trkpt>
<trkpt lat="31.8017600" lon="35.0116600">
<ele>287.669983</ele>
<time>2021-05-07T13:53:03.639Z</time>
</trkpt>
<trkpt lat="31.8018000" lon="35.0116400">
<ele>287.170013</ele>
<time>2021-05-07T13:53:03.639Z</time>
</trkpt>
<trkpt lat="31.8018300" lon="35.0116300">
<ele>286.799988</ele>
<time>2021-05-07T13:53:03.639Z</time>
</trkpt>
<trkpt lat="31.8018600" lon="35.0116100">
<ele>286.500000</ele>
<time>2021-05-07T13:53:03.639Z</time>
</trkpt>
<trkpt lat="31.8018800" lon="35.0115800">
<ele>286.410004</ele>
<time>2021-05-07T13:53:03.639Z</time>
</trkpt>
<trkpt lat="31.8019100" lon="35.0115500">
<ele>286.230011</ele>
<time>2021-05-07T13:53:03.639Z</time>
</trkpt>
<trkpt lat="31.8019400" lon="35.0115300">
<ele>286.029999</ele>
<time>2021-05-07T13:53:03.639Z</time>
</trkpt>
<trkpt lat="31.8019800" lon="35.0115100">
<ele>285.940002</ele>
<time>2021-05-07T13:53:03.639Z</time>
</trkpt>
<trkpt lat="31.8020300" lon="35.0114900">
<ele>285.850006</ele>
<time>2021-05-07T13:53:03.639Z</time>
</trkpt>
<trkpt lat="31.8020800" lon="35.0114700">
<ele>285.790009</ele>
<time>2021-05-07T13:53:03.639Z</time>
</trkpt>
<trkpt lat="31.8021300" lon="35.0114400">
<ele>285.839996</ele>
<time>2021-05-07T13:53:03.639Z</time>
</trkpt>
<trkpt lat="31.8021700" lon="35.0114100">
<ele>285.970001</ele>
<time>2021-05-07T13:53:03.639Z</time>
</trkpt>
<trkpt lat="31.8022100" lon="35.0113700">
<ele>286.109985</ele>
<time>2021-05-07T13:53:03.639Z</time>
</trkpt>
<trkpt lat="31.8022500" lon="35.0113400">
<ele>285.480011</ele>
<time>2021-05-07T13:53:03.639Z</time>
</trkpt>
<trkpt lat="31.8022900" lon="35.0113000">
<ele>284.609985</ele>
<time>2021-05-07T13:53:03.639Z</time>
</trkpt>
<trkpt lat="31.8023200" lon="35.0112600">
<ele>284.000000</ele>
<time>2021-05-07T13:53:03.639Z</time>
</trkpt>
<trkpt lat="31.8023500" lon="35.0112200">
<ele>283.389984</ele>
<time>2021-05-07T13:53:03.639Z</time>
</trkpt>
<trkpt lat="31.8023800" lon="35.0111900">
<ele>282.740021</ele>
<time>2021-05-07T13:53:03.639Z</time>
</trkpt>
<trkpt lat="31.8026900" lon="35.0106500">
<ele>279.290009</ele>
<time>2021-05-07T13:53:03.639Z</time>
</trkpt>
<trkpt lat="31.8027100" lon="35.0105400">
<ele>278.429993</ele>
<time>2021-05-07T13:53:03.639Z</time>
</trkpt>
<trkpt lat="31.8027100" lon="35.0104400">
<ele>278.339996</ele>
<time>2021-05-07T13:53:03.639Z</time>
</trkpt>
<trkpt lat="31.8027100" lon="35.0103700">
<ele>278.279999</ele>
<time>2021-05-07T13:53:03.639Z</time>
</trkpt>
<trkpt lat="31.8026800" lon="35.0100800">
<ele>278.209991</ele>
<time>2021-05-07T13:53:03.639Z</time>
</trkpt>
<trkpt lat="31.8026700" lon="35.0099800">
<ele>278.130005</ele>
<time>2021-05-07T13:53:03.639Z</time>
</trkpt>
<trkpt lat="31.8026600" lon="35.0098800">
<ele>278.579987</ele>
<time>2021-05-07T13:53:03.639Z</time>
</trkpt>
<trkpt lat="31.8026500" lon="35.0093300">
<ele>279.000000</ele>
<time>2021-05-07T13:53:03.639Z</time>
</trkpt>
<trkpt lat="31.8026500" lon="35.0092100">
<ele>278.369995</ele>
<time>2021-05-07T13:53:03.639Z</time>
</trkpt>
<trkpt lat="31.8026400" lon="35.0091100">
<ele>278.359985</ele>
<time>2021-05-07T13:53:03.639Z</time>
</trkpt>
<trkpt lat="31.8026300" lon="35.0090300">
<ele>278.559998</ele>
<time>2021-05-07T13:53:03.639Z</time>
</trkpt>
<trkpt lat="31.8026200" lon="35.0088800">
<ele>278.660004</ele>
<time>2021-05-07T13:53:03.639Z</time>
</trkpt>
<trkpt lat="31.8025500" lon="35.0083400">
<ele>279.119995</ele>
<time>2021-05-07T13:53:03.639Z</time>
</trkpt>
<trkpt lat="31.8025200" lon="35.0081300">
<ele>281.100006</ele>
<time>2021-05-07T13:53:03.639Z</time>
</trkpt>
<trkpt lat="31.8035900" lon="35.0076900">
<ele>267.520020</ele>
<time>2021-05-07T13:53:03.639Z</time>
</trkpt>
<trkpt lat="31.8036600" lon="35.0076600">
<ele>266.679993</ele>
<time>2021-05-07T13:53:03.639Z</time>
</trkpt>
<trkpt lat="31.8040600" lon="35.0073800">
<ele>264.179993</ele>
<time>2021-05-07T13:53:03.639Z</time>
</trkpt>
<trkpt lat="31.8041300" lon="35.0073300">
<ele>264.260010</ele>
<time>2021-05-07T13:53:03.639Z</time>
</trkpt>
<trkpt lat="31.8042000" lon="35.0072500">
<ele>263.980011</ele>
<time>2021-05-07T13:53:03.639Z</time>
</trkpt>
<trkpt lat="31.8042600" lon="35.0071800">
<ele>263.820007</ele>
<time>2021-05-07T13:53:03.639Z</time>
</trkpt>
<trkpt lat="31.8044500" lon="35.0069700">
<ele>263.820007</ele>
<time>2021-05-07T13:53:03.639Z</time>
</trkpt>
<trkpt lat="31.8045900" lon="35.0067800">
<ele>263.160004</ele>
<time>2021-05-07T13:53:03.639Z</time>
</trkpt>
<trkpt lat="31.8047900" lon="35.0064400">
<ele>264.670013</ele>
<time>2021-05-07T13:53:03.639Z</time>
</trkpt>
<trkpt lat="31.8048800" lon="35.0061300">
<ele>265.630005</ele>
<time>2021-05-07T13:53:03.639Z</time>
</trkpt>
<trkpt lat="31.8048900" lon="35.0059600">
<ele>265.579987</ele>
<time>2021-05-07T13:53:03.639Z</time>
</trkpt>
<trkpt lat="31.8049000" lon="35.0057000">
<ele>265.790009</ele>
<time>2021-05-07T13:53:03.641Z</time>
</trkpt>
<trkpt lat="31.8048900" lon="35.0054100">
<ele>266.580017</ele>
<time>2021-05-07T13:53:03.641Z</time>
</trkpt>
<trkpt lat="31.8048900" lon="35.0051900">
<ele>266.770020</ele>
<time>2021-05-07T13:53:03.641Z</time>
</trkpt>
<trkpt lat="31.8048800" lon="35.0049100">
<ele>267.390015</ele>
<time>2021-05-07T13:53:03.641Z</time>
</trkpt>
<trkpt lat="31.8048700" lon="35.0048000">
<ele>268.039978</ele>
<time>2021-05-07T13:53:03.641Z</time>
</trkpt>
<trkpt lat="31.8048800" lon="35.0046700">
<ele>269.230011</ele>
<time>2021-05-07T13:53:03.641Z</time>
</trkpt>
<trkpt lat="31.8048900" lon="35.0045700">
<ele>271.160004</ele>
<time>2021-05-07T13:53:03.641Z</time>
</trkpt>
<trkpt lat="31.8049600" lon="35.0044500">
<ele>273.160004</ele>
<time>2021-05-07T13:53:03.641Z</time>
</trkpt>
<trkpt lat="31.8051000" lon="35.0043600">
<ele>273.220001</ele>
<time>2021-05-07T13:53:03.641Z</time>
</trkpt>
<trkpt lat="31.8054800" lon="35.0042500">
<ele>270.500000</ele>
<time>2021-05-07T13:53:03.641Z</time>
</trkpt>
<trkpt lat="31.8056200" lon="35.0042400">
<ele>269.630005</ele>
<time>2021-05-07T13:53:03.641Z</time>
</trkpt>
<trkpt lat="31.8057200" lon="35.0042400">
<ele>268.809998</ele>
<time>2021-05-07T13:53:03.641Z</time>
</trkpt>
<trkpt lat="31.8057500" lon="35.0042400">
<ele>268.570007</ele>
<time>2021-05-07T13:53:03.641Z</time>
</trkpt>
<trkpt lat="31.8058400" lon="35.0042500">
<ele>267.440002</ele>
<time>2021-05-07T13:53:03.641Z</time>
</trkpt>
<trkpt lat="31.8064200" lon="35.0044300">
<ele>259.730011</ele>
<time>2021-05-07T13:53:03.641Z</time>
</trkpt>
<trkpt lat="31.8066800" lon="35.0045000">
<ele>255.720001</ele>
<time>2021-05-07T13:53:03.641Z</time>
</trkpt>
<trkpt lat="31.8067100" lon="35.0046500">
<ele>252.479996</ele>
<time>2021-05-07T13:53:03.641Z</time>
</trkpt>
<trkpt lat="31.8067600" lon="35.0047900">
<ele>250.889999</ele>
<time>2021-05-07T13:53:03.641Z</time>
</trkpt>
<trkpt lat="31.8068400" lon="35.0049000">
<ele>251.119995</ele>
<time>2021-05-07T13:53:03.641Z</time>
</trkpt>
<trkpt lat="31.8068900" lon="35.0049200">
<ele>250.979996</ele>
<time>2021-05-07T13:53:03.641Z</time>
</trkpt>
<trkpt lat="31.8074700" lon="35.0047300">
<ele>250.889999</ele>
<time>2021-05-07T13:53:03.641Z</time>
</trkpt>
<trkpt lat="31.8076800" lon="35.0047400">
<ele>255.830002</ele>
<time>2021-05-07T13:53:03.641Z</time>
</trkpt>
<trkpt lat="31.8078500" lon="35.0047700">
<ele>258.250000</ele>
<time>2021-05-07T13:53:03.641Z</time>
</trkpt>
<trkpt lat="31.8080000" lon="35.0048600">
<ele>258.089996</ele>
<time>2021-05-07T13:53:03.641Z</time>
</trkpt>
<trkpt lat="31.8081800" lon="35.0049500">
<ele>257.200012</ele>
<time>2021-05-07T13:53:03.641Z</time>
</trkpt>
<trkpt lat="31.8082500" lon="35.0049900">
<ele>256.820007</ele>
<time>2021-05-07T13:53:03.641Z</time>
</trkpt>
<trkpt lat="31.8086700" lon="35.0050000">
<ele>258.420013</ele>
<time>2021-05-07T13:53:03.641Z</time>
</trkpt>
<trkpt lat="31.8088300" lon="35.0050500">
<ele>259.829987</ele>
<time>2021-05-07T13:53:03.642Z</time>
</trkpt>
<trkpt lat="31.8090700" lon="35.0051200">
<ele>259.970001</ele>
<time>2021-05-07T13:53:03.642Z</time>
</trkpt>
<trkpt lat="31.8092500" lon="35.0051300">
<ele>259.130005</ele>
<time>2021-05-07T13:53:03.642Z</time>
</trkpt>
<trkpt lat="31.8093400" lon="35.0051000">
<ele>257.970001</ele>
<time>2021-05-07T13:53:03.642Z</time>
</trkpt>
<trkpt lat="31.8093900" lon="35.0050700">
<ele>257.200012</ele>
<time>2021-05-07T13:53:03.642Z</time>
</trkpt>
<trkpt lat="31.8094400" lon="35.0049600">
<ele>255.459991</ele>
<time>2021-05-07T13:53:03.642Z</time>
</trkpt>
<trkpt lat="31.8095300" lon="35.0047300">
<ele>252.699997</ele>
<time>2021-05-07T13:53:03.642Z</time>
</trkpt>
<trkpt lat="31.8096300" lon="35.0045700">
<ele>252.610001</ele>
<time>2021-05-07T13:53:03.642Z</time>
</trkpt>
<trkpt lat="31.8100800" lon="35.0040100">
<ele>245.309998</ele>
<time>2021-05-07T13:53:03.642Z</time>
</trkpt>
<trkpt lat="31.8101900" lon="35.0039300">
<ele>242.580002</ele>
<time>2021-05-07T13:53:03.642Z</time>
</trkpt>
<trkpt lat="31.8103800" lon="35.0038400">
<ele>243.750000</ele>
<time>2021-05-07T13:53:03.642Z</time>
</trkpt>
<trkpt lat="31.8107000" lon="35.0037900">
<ele>249.399994</ele>
<time>2021-05-07T13:53:03.642Z</time>
</trkpt>
<trkpt lat="31.8107700" lon="35.0037900">
<ele>249.789993</ele>
<time>2021-05-07T13:53:03.642Z</time>
</trkpt>
<trkpt lat="31.8109400" lon="35.0038100">
<ele>251.500000</ele>
<time>2021-05-07T13:53:03.642Z</time>
</trkpt>
<trkpt lat="31.8110400" lon="35.0038400">
<ele>253.079987</ele>
<time>2021-05-07T13:53:03.642Z</time>
</trkpt>
<trkpt lat="31.8112600" lon="35.0040100">
<ele>255.239990</ele>
<time>2021-05-07T13:53:03.642Z</time>
</trkpt>
<trkpt lat="31.8113900" lon="35.0041500">
<ele>255.680008</ele>
<time>2021-05-07T13:53:03.642Z</time>
</trkpt>
<trkpt lat="31.8114600" lon="35.0042400">
<ele>255.580002</ele>
<time>2021-05-07T13:53:03.642Z</time>
</trkpt>
<trkpt lat="31.8115200" lon="35.0043800">
<ele>256.309998</ele>
<time>2021-05-07T13:53:03.642Z</time>
</trkpt>
<trkpt lat="31.8115500" lon="35.0044500">
<ele>256.730011</ele>
<time>2021-05-07T13:53:03.642Z</time>
</trkpt>
<trkpt lat="31.8116000" lon="35.0049600">
<ele>259.710022</ele>
<time>2021-05-07T13:53:03.642Z</time>
</trkpt>
<trkpt lat="31.8116000" lon="35.0049600">
<ele>259.710022</ele>
<time>2021-05-07T13:53:03.642Z</time>
</trkpt>
<trkpt lat="31.8116000" lon="35.0049600">
<ele>259.710022</ele>
<time>2021-05-07T13:53:03.642Z</time>
</trkpt>
<trkpt lat="31.8116200" lon="35.0051000">
<ele>260.089996</ele>
<time>2021-05-07T13:53:03.642Z</time>
</trkpt>
<trkpt lat="31.8116900" lon="35.0052900">
<ele>259.619995</ele>
<time>2021-05-07T13:53:03.642Z</time>
</trkpt>
<trkpt lat="31.8117900" lon="35.0054100">
<ele>257.540009</ele>
<time>2021-05-07T13:53:03.643Z</time>
</trkpt>
<trkpt lat="31.8119300" lon="35.0054200">
<ele>255.210007</ele>
<time>2021-05-07T13:53:03.643Z</time>
</trkpt>
<trkpt lat="31.8120000" lon="35.0053800">
<ele>255.259995</ele>
<time>2021-05-07T13:53:03.643Z</time>
</trkpt>
<trkpt lat="31.8120700" lon="35.0053700">
<ele>255.340012</ele>
<time>2021-05-07T13:53:03.643Z</time>
</trkpt>
<trkpt lat="31.8121200" lon="35.0053400">
<ele>255.550003</ele>
<time>2021-05-07T13:53:03.643Z</time>
</trkpt>
<trkpt lat="31.8124900" lon="35.0051300">
<ele>258.890015</ele>
<time>2021-05-07T13:53:03.643Z</time>
</trkpt>
<trkpt lat="31.8124900" lon="35.0052700">
<ele>258.890015</ele>
<time>2021-05-07T13:53:03.643Z</time>
</trkpt>
<trkpt lat="31.8124900" lon="35.0052700">
<ele>258.890015</ele>
<time>2021-05-07T13:53:03.643Z</time>
</trkpt>
<trkpt lat="31.8124800" lon="35.0056700">
<ele>258.179993</ele>
<time>2021-05-07T13:53:03.643Z</time>
</trkpt>
<trkpt lat="31.8124300" lon="35.0059600">
<ele>260.209991</ele>
<time>2021-05-07T13:53:03.643Z</time>
</trkpt>
<trkpt lat="31.8123700" lon="35.0068400">
<ele>261.480011</ele>
<time>2021-05-07T13:53:03.643Z</time>
</trkpt>
<trkpt lat="31.8123400" lon="35.0072300">
<ele>260.979980</ele>
<time>2021-05-07T13:53:03.643Z</time>
</trkpt>
<trkpt lat="31.8123100" lon="35.0080400">
<ele>260.549988</ele>
<time>2021-05-07T13:53:03.643Z</time>
</trkpt>
<trkpt lat="31.8123000" lon="35.0085900">
<ele>260.880005</ele>
<time>2021-05-07T13:53:03.643Z</time>
</trkpt>
<trkpt lat="31.8122700" lon="35.0089200">
<ele>261.950012</ele>
<time>2021-05-07T13:53:03.643Z</time>
</trkpt>
<trkpt lat="31.8122200" lon="35.0098600">
<ele>266.479980</ele>
<time>2021-05-07T13:53:03.643Z</time>
</trkpt>
<trkpt lat="31.8121700" lon="35.0102300">
<ele>267.779999</ele>
<time>2021-05-07T13:53:03.643Z</time>
</trkpt>
<trkpt lat="31.8121400" lon="35.0104800">
<ele>268.979980</ele>
<time>2021-05-07T13:53:03.643Z</time>
</trkpt>
<trkpt lat="31.8121500" lon="35.0105700">
<ele>269.830017</ele>
<time>2021-05-07T13:53:03.643Z</time>
</trkpt>
<trkpt lat="31.8121500" lon="35.0105700">
<ele>269.830017</ele>
<time>2021-05-07T13:53:03.643Z</time>
</trkpt>
<trkpt lat="31.8121400" lon="35.0105700">
<ele>269.649994</ele>
<time>2021-05-07T13:53:03.643Z</time>
</trkpt>
<trkpt lat="31.8121400" lon="35.0105700">
<ele>269.649994</ele>
<time>2021-05-07T13:53:03.643Z</time>
</trkpt>
<trkpt lat="31.8121500" lon="35.0105700">
<ele>269.830017</ele>
<time>2021-05-07T13:53:03.643Z</time>
</trkpt>
<trkpt lat="31.8120900" lon="35.0107100">
<ele>270.260010</ele>
<time>2021-05-07T13:53:03.643Z</time>
</trkpt>
<trkpt lat="31.8119800" lon="35.0111200">
<ele>275.480011</ele>
<time>2021-05-07T13:53:03.643Z</time>
</trkpt>
<trkpt lat="31.8117500" lon="35.0121400">
<ele>278.899994</ele>
<time>2021-05-07T13:53:03.644Z</time>
</trkpt>
<trkpt lat="31.8115100" lon="35.0129000">
<ele>276.059998</ele>
<time>2021-05-07T13:53:03.644Z</time>
</trkpt>
<trkpt lat="31.8115100" lon="35.0129100">
<ele>276.080017</ele>
<time>2021-05-07T13:53:03.644Z</time>
</trkpt>
<trkpt lat="31.8115100" lon="35.0129100">
<ele>276.080017</ele>
<time>2021-05-07T13:53:03.644Z</time>
</trkpt>
</trkseg>
</trk>
</gpx>
